<?xml version="1.0" encoding="UTF-8" standalone="no" ?>
<gpx xmlns="http://www.topografix.com/GPX/1/1" xmlns:xsi="http://www.w3.org/2001/XMLSchema-instance" xsi:schemaLocation="http://www.topografix.com/GPX/1/1 http://www.topografix.com/GPX/1/1/gpx.xsd" version="1.1" creator="VisuGPX - https://www.visugpx.com">
  <metadata>
    <name>Arbizon depuis Lurgues - 18/12/21</name>
    <desc><![CDATA[08:30:06

Temps magnifique, crampons à partir de 2500, 30cm de neige jusqu'au sommet.]]></desc>
  </metadata>
  <trk>
    <name><![CDATA[Arbizon depuis Lurgues - 18/12/21]]></name>
    <desc><![CDATA[Temps magnifique, crampons à partir de 2500, 30cm de neige jusqu'au sommet.]]></desc>
    <extensions>
      <line xmlns="http://www.topografix.com/GPX/gpx_style/0/2">
        <color>0000FF</color>
        <width>4</width>
      </line>
    </extensions>
    <trkseg>
      <trkpt lat="42.85344" lon="0.27326">
        <ele>1408.7</ele>
        <time>2021-11-18T07:31:10Z</time>
      </trkpt>
      <trkpt lat="42.85343" lon="0.27314">
        <ele>1406.3</ele>
        <time>2021-11-18T07:31:19Z</time>
      </trkpt>
      <trkpt lat="42.85348" lon="0.27302">
        <ele>1406.7</ele>
        <time>2021-11-18T07:31:31Z</time>
      </trkpt>
      <trkpt lat="42.85348" lon="0.27297">
        <ele>1405.8</ele>
        <time>2021-11-18T07:31:35Z</time>
      </trkpt>
      <trkpt lat="42.85352" lon="0.27293">
        <ele>1406.9</ele>
        <time>2021-11-18T07:31:39Z</time>
      </trkpt>
      <trkpt lat="42.85353" lon="0.27282">
        <ele>1405.3</ele>
        <time>2021-11-18T07:31:47Z</time>
      </trkpt>
      <trkpt lat="42.85365" lon="0.27267">
        <ele>1407</ele>
        <time>2021-11-18T07:32:03Z</time>
      </trkpt>
      <trkpt lat="42.85379" lon="0.27255">
        <ele>1409.1</ele>
        <time>2021-11-18T07:32:17Z</time>
      </trkpt>
      <trkpt lat="42.85382" lon="0.27252">
        <ele>1409.3</ele>
        <time>2021-11-18T07:32:20Z</time>
      </trkpt>
      <trkpt lat="42.85388" lon="0.27245">
        <ele>1410.4</ele>
        <time>2021-11-18T07:32:25Z</time>
      </trkpt>
      <trkpt lat="42.8539" lon="0.27242">
        <ele>1410.8</ele>
        <time>2021-11-18T07:32:28Z</time>
      </trkpt>
      <trkpt lat="42.85392" lon="0.27237">
        <ele>1411.1</ele>
        <time>2021-11-18T07:32:32Z</time>
      </trkpt>
      <trkpt lat="42.85399" lon="0.27226">
        <ele>1412.4</ele>
        <time>2021-11-18T07:32:40Z</time>
      </trkpt>
      <trkpt lat="42.85411" lon="0.27205">
        <ele>1414.1</ele>
        <time>2021-11-18T07:32:57Z</time>
      </trkpt>
      <trkpt lat="42.85433" lon="0.27164">
        <ele>1417.8</ele>
        <time>2021-11-18T07:33:29Z</time>
      </trkpt>
      <trkpt lat="42.85447" lon="0.27134">
        <ele>1419.7</ele>
        <time>2021-11-18T07:33:51Z</time>
      </trkpt>
      <trkpt lat="42.85454" lon="0.27129">
        <ele>1421.5</ele>
        <time>2021-11-18T07:33:56Z</time>
      </trkpt>
      <trkpt lat="42.85455" lon="0.27124">
        <ele>1421.3</ele>
        <time>2021-11-18T07:33:59Z</time>
      </trkpt>
      <trkpt lat="42.85456" lon="0.2712">
        <ele>1421.1</ele>
        <time>2021-11-18T07:34:03Z</time>
      </trkpt>
      <trkpt lat="42.85458" lon="0.27116">
        <ele>1421.3</ele>
        <time>2021-11-18T07:34:06Z</time>
      </trkpt>
      <trkpt lat="42.8546" lon="0.27112">
        <ele>1421.5</ele>
        <time>2021-11-18T07:34:10Z</time>
      </trkpt>
      <trkpt lat="42.85481" lon="0.27084">
        <ele>1424.4</ele>
        <time>2021-11-18T07:34:40Z</time>
      </trkpt>
      <trkpt lat="42.85509" lon="0.27057">
        <ele>1434.4</ele>
        <time>2021-11-18T07:35:12Z</time>
      </trkpt>
      <trkpt lat="42.85515" lon="0.27045">
        <ele>1436.8</ele>
        <time>2021-11-18T07:35:24Z</time>
      </trkpt>
      <trkpt lat="42.85519" lon="0.27031">
        <ele>1438.3</ele>
        <time>2021-11-18T07:35:36Z</time>
      </trkpt>
      <trkpt lat="42.85522" lon="0.27029">
        <ele>1439.4</ele>
        <time>2021-11-18T07:35:39Z</time>
      </trkpt>
      <trkpt lat="42.85523" lon="0.27024">
        <ele>1439.8</ele>
        <time>2021-11-18T07:35:43Z</time>
      </trkpt>
      <trkpt lat="42.8553" lon="0.27012">
        <ele>1442</ele>
        <time>2021-11-18T07:35:55Z</time>
      </trkpt>
      <trkpt lat="42.8553" lon="0.27004">
        <ele>1441.8</ele>
        <time>2021-11-18T07:36:02Z</time>
      </trkpt>
      <trkpt lat="42.85531" lon="0.27">
        <ele>1442</ele>
        <time>2021-11-18T07:36:05Z</time>
      </trkpt>
      <trkpt lat="42.85534" lon="0.26997">
        <ele>1443.2</ele>
        <time>2021-11-18T07:36:08Z</time>
      </trkpt>
      <trkpt lat="42.85535" lon="0.26993">
        <ele>1443.8</ele>
        <time>2021-11-18T07:36:12Z</time>
      </trkpt>
      <trkpt lat="42.85538" lon="0.26989">
        <ele>1445</ele>
        <time>2021-11-18T07:36:16Z</time>
      </trkpt>
      <trkpt lat="42.85544" lon="0.26983">
        <ele>1447.3</ele>
        <time>2021-11-18T07:36:23Z</time>
      </trkpt>
      <trkpt lat="42.85547" lon="0.2698">
        <ele>1448.4</ele>
        <time>2021-11-18T07:36:26Z</time>
      </trkpt>
      <trkpt lat="42.85549" lon="0.26976">
        <ele>1449.3</ele>
        <time>2021-11-18T07:36:30Z</time>
      </trkpt>
      <trkpt lat="42.8555" lon="0.26972">
        <ele>1449.8</ele>
        <time>2021-11-18T07:36:34Z</time>
      </trkpt>
      <trkpt lat="42.85554" lon="0.26963">
        <ele>1451.6</ele>
        <time>2021-11-18T07:36:42Z</time>
      </trkpt>
      <trkpt lat="42.85556" lon="0.2696">
        <ele>1452.4</ele>
        <time>2021-11-18T07:36:45Z</time>
      </trkpt>
      <trkpt lat="42.85559" lon="0.26958">
        <ele>1453.4</ele>
        <time>2021-11-18T07:36:49Z</time>
      </trkpt>
      <trkpt lat="42.85563" lon="0.26957">
        <ele>1454.7</ele>
        <time>2021-11-18T07:36:53Z</time>
      </trkpt>
      <trkpt lat="42.85564" lon="0.26953">
        <ele>1455.3</ele>
        <time>2021-11-18T07:36:57Z</time>
      </trkpt>
      <trkpt lat="42.85574" lon="0.26941">
        <ele>1459</ele>
        <time>2021-11-18T07:37:11Z</time>
      </trkpt>
      <trkpt lat="42.85577" lon="0.26938">
        <ele>1460</ele>
        <time>2021-11-18T07:37:14Z</time>
      </trkpt>
      <trkpt lat="42.85579" lon="0.26935">
        <ele>1460.8</ele>
        <time>2021-11-18T07:37:17Z</time>
      </trkpt>
      <trkpt lat="42.85581" lon="0.26931">
        <ele>1461.6</ele>
        <time>2021-11-18T07:37:19Z</time>
      </trkpt>
      <trkpt lat="42.85584" lon="0.2693">
        <ele>1462.6</ele>
        <time>2021-11-18T07:37:22Z</time>
      </trkpt>
      <trkpt lat="42.85587" lon="0.26927">
        <ele>1463.8</ele>
        <time>2021-11-18T07:37:26Z</time>
      </trkpt>
      <trkpt lat="42.8559" lon="0.26926">
        <ele>1464.9</ele>
        <time>2021-11-18T07:37:28Z</time>
      </trkpt>
      <trkpt lat="42.85597" lon="0.26912">
        <ele>1468</ele>
        <time>2021-11-18T07:37:39Z</time>
      </trkpt>
      <trkpt lat="42.85604" lon="0.26887">
        <ele>1472.4</ele>
        <time>2021-11-18T07:38:03Z</time>
      </trkpt>
      <trkpt lat="42.85604" lon="0.26883">
        <ele>1472.7</ele>
        <time>2021-11-18T07:38:06Z</time>
      </trkpt>
      <trkpt lat="42.85604" lon="0.26879">
        <ele>1473</ele>
        <time>2021-11-18T07:38:10Z</time>
      </trkpt>
      <trkpt lat="42.85605" lon="0.26876">
        <ele>1473.5</ele>
        <time>2021-11-18T07:38:15Z</time>
      </trkpt>
      <trkpt lat="42.85608" lon="0.2687">
        <ele>1474.9</ele>
        <time>2021-11-18T07:38:24Z</time>
      </trkpt>
      <trkpt lat="42.85617" lon="0.26861">
        <ele>1478.3</ele>
        <time>2021-11-18T07:38:39Z</time>
      </trkpt>
      <trkpt lat="42.85618" lon="0.26857">
        <ele>1478.9</ele>
        <time>2021-11-18T07:38:43Z</time>
      </trkpt>
      <trkpt lat="42.85628" lon="0.26848">
        <ele>1482.4</ele>
        <time>2021-11-18T07:39:01Z</time>
      </trkpt>
      <trkpt lat="42.85631" lon="0.26848">
        <ele>1483.3</ele>
        <time>2021-11-18T07:39:04Z</time>
      </trkpt>
      <trkpt lat="42.85633" lon="0.26843">
        <ele>1484.1</ele>
        <time>2021-11-18T07:39:10Z</time>
      </trkpt>
      <trkpt lat="42.85635" lon="0.2684">
        <ele>1484.9</ele>
        <time>2021-11-18T07:39:13Z</time>
      </trkpt>
      <trkpt lat="42.8564" lon="0.26838">
        <ele>1486.4</ele>
        <time>2021-11-18T07:39:22Z</time>
      </trkpt>
      <trkpt lat="42.85643" lon="0.26838">
        <ele>1487.2</ele>
        <time>2021-11-18T07:39:25Z</time>
      </trkpt>
      <trkpt lat="42.85645" lon="0.26838">
        <ele>1487.8</ele>
        <time>2021-11-18T07:39:35Z</time>
      </trkpt>
      <trkpt lat="42.85652" lon="0.26832">
        <ele>1490</ele>
        <time>2021-11-18T07:39:45Z</time>
      </trkpt>
      <trkpt lat="42.8566" lon="0.2683">
        <ele>1492.2</ele>
        <time>2021-11-18T07:39:56Z</time>
      </trkpt>
      <trkpt lat="42.8566" lon="0.26826">
        <ele>1492.3</ele>
        <time>2021-11-18T07:40:00Z</time>
      </trkpt>
      <trkpt lat="42.85661" lon="0.26823">
        <ele>1492.6</ele>
        <time>2021-11-18T07:40:03Z</time>
      </trkpt>
      <trkpt lat="42.85661" lon="0.2682">
        <ele>1492.6</ele>
        <time>2021-11-18T07:40:07Z</time>
      </trkpt>
      <trkpt lat="42.85662" lon="0.26814">
        <ele>1493</ele>
        <time>2021-11-18T07:40:18Z</time>
      </trkpt>
      <trkpt lat="42.8567" lon="0.26806">
        <ele>1495.5</ele>
        <time>2021-11-18T07:40:30Z</time>
      </trkpt>
      <trkpt lat="42.85674" lon="0.26797">
        <ele>1497</ele>
        <time>2021-11-18T07:40:40Z</time>
      </trkpt>
      <trkpt lat="42.85674" lon="0.26794">
        <ele>1497</ele>
        <time>2021-11-18T07:40:45Z</time>
      </trkpt>
      <trkpt lat="42.85676" lon="0.26791">
        <ele>1497.8</ele>
        <time>2021-11-18T07:40:48Z</time>
      </trkpt>
      <trkpt lat="42.85681" lon="0.26784">
        <ele>1499.5</ele>
        <time>2021-11-18T07:41:00Z</time>
      </trkpt>
      <trkpt lat="42.8568" lon="0.26778">
        <ele>1499.3</ele>
        <time>2021-11-18T07:41:06Z</time>
      </trkpt>
      <trkpt lat="42.85685" lon="0.26774">
        <ele>1501</ele>
        <time>2021-11-18T07:41:16Z</time>
      </trkpt>
      <trkpt lat="42.85688" lon="0.26766">
        <ele>1502.1</ele>
        <time>2021-11-18T07:41:27Z</time>
      </trkpt>
      <trkpt lat="42.85691" lon="0.26753">
        <ele>1503.2</ele>
        <time>2021-11-18T07:41:43Z</time>
      </trkpt>
      <trkpt lat="42.85696" lon="0.2674">
        <ele>1505.5</ele>
        <time>2021-11-18T07:42:01Z</time>
      </trkpt>
      <trkpt lat="42.85696" lon="0.26736">
        <ele>1505.8</ele>
        <time>2021-11-18T07:42:04Z</time>
      </trkpt>
      <trkpt lat="42.85697" lon="0.26733">
        <ele>1506.3</ele>
        <time>2021-11-18T07:42:07Z</time>
      </trkpt>
      <trkpt lat="42.85697" lon="0.2673">
        <ele>1506.5</ele>
        <time>2021-11-18T07:42:09Z</time>
      </trkpt>
      <trkpt lat="42.85699" lon="0.26728">
        <ele>1507.3</ele>
        <time>2021-11-18T07:42:12Z</time>
      </trkpt>
      <trkpt lat="42.85701" lon="0.26725">
        <ele>1508.2</ele>
        <time>2021-11-18T07:42:16Z</time>
      </trkpt>
      <trkpt lat="42.85703" lon="0.26723">
        <ele>1509</ele>
        <time>2021-11-18T07:42:19Z</time>
      </trkpt>
      <trkpt lat="42.85705" lon="0.26721">
        <ele>1509.8</ele>
        <time>2021-11-18T07:42:23Z</time>
      </trkpt>
      <trkpt lat="42.85708" lon="0.2672">
        <ele>1510.9</ele>
        <time>2021-11-18T07:42:26Z</time>
      </trkpt>
      <trkpt lat="42.85711" lon="0.2672">
        <ele>1511.9</ele>
        <time>2021-11-18T07:42:29Z</time>
      </trkpt>
      <trkpt lat="42.85712" lon="0.26718">
        <ele>1512.3</ele>
        <time>2021-11-18T07:42:32Z</time>
      </trkpt>
      <trkpt lat="42.85714" lon="0.26715">
        <ele>1513.2</ele>
        <time>2021-11-18T07:42:35Z</time>
      </trkpt>
      <trkpt lat="42.85716" lon="0.26708">
        <ele>1514.3</ele>
        <time>2021-11-18T07:42:42Z</time>
      </trkpt>
      <trkpt lat="42.85717" lon="0.26706">
        <ele>1514.8</ele>
        <time>2021-11-18T07:42:44Z</time>
      </trkpt>
      <trkpt lat="42.85719" lon="0.26704">
        <ele>1515.5</ele>
        <time>2021-11-18T07:42:47Z</time>
      </trkpt>
      <trkpt lat="42.85721" lon="0.26702">
        <ele>1516.3</ele>
        <time>2021-11-18T07:42:50Z</time>
      </trkpt>
      <trkpt lat="42.85723" lon="0.26701">
        <ele>1517.1</ele>
        <time>2021-11-18T07:42:52Z</time>
      </trkpt>
      <trkpt lat="42.85726" lon="0.267">
        <ele>1518.1</ele>
        <time>2021-11-18T07:42:55Z</time>
      </trkpt>
      <trkpt lat="42.85725" lon="0.26697">
        <ele>1518</ele>
        <time>2021-11-18T07:42:59Z</time>
      </trkpt>
      <trkpt lat="42.85727" lon="0.26696">
        <ele>1518.7</ele>
        <time>2021-11-18T07:43:04Z</time>
      </trkpt>
      <trkpt lat="42.85728" lon="0.26692">
        <ele>1519.3</ele>
        <time>2021-11-18T07:43:08Z</time>
      </trkpt>
      <trkpt lat="42.85729" lon="0.26689">
        <ele>1519.8</ele>
        <time>2021-11-18T07:43:12Z</time>
      </trkpt>
      <trkpt lat="42.85731" lon="0.26686">
        <ele>1520.6</ele>
        <time>2021-11-18T07:43:16Z</time>
      </trkpt>
      <trkpt lat="42.85733" lon="0.26685">
        <ele>1521.3</ele>
        <time>2021-11-18T07:43:20Z</time>
      </trkpt>
      <trkpt lat="42.85733" lon="0.26682">
        <ele>1521.5</ele>
        <time>2021-11-18T07:43:27Z</time>
      </trkpt>
      <trkpt lat="42.85732" lon="0.2668">
        <ele>1521.3</ele>
        <time>2021-11-18T07:43:29Z</time>
      </trkpt>
      <trkpt lat="42.85731" lon="0.26673">
        <ele>1521.4</ele>
        <time>2021-11-18T07:43:33Z</time>
      </trkpt>
      <trkpt lat="42.85732" lon="0.26669">
        <ele>1522</ele>
        <time>2021-11-18T07:43:36Z</time>
      </trkpt>
      <trkpt lat="42.85733" lon="0.26667">
        <ele>1522.5</ele>
        <time>2021-11-18T07:43:38Z</time>
      </trkpt>
      <trkpt lat="42.85734" lon="0.26664">
        <ele>1522.9</ele>
        <time>2021-11-18T07:43:41Z</time>
      </trkpt>
      <trkpt lat="42.85738" lon="0.26654">
        <ele>1524.6</ele>
        <time>2021-11-18T07:43:48Z</time>
      </trkpt>
      <trkpt lat="42.8574" lon="0.2665">
        <ele>1525.4</ele>
        <time>2021-11-18T07:43:50Z</time>
      </trkpt>
      <trkpt lat="42.85741" lon="0.26644">
        <ele>1525.9</ele>
        <time>2021-11-18T07:43:56Z</time>
      </trkpt>
      <trkpt lat="42.85744" lon="0.26622">
        <ele>1527.7</ele>
        <time>2021-11-18T07:44:18Z</time>
      </trkpt>
      <trkpt lat="42.8575" lon="0.26619">
        <ele>1529.7</ele>
        <time>2021-11-18T07:44:25Z</time>
      </trkpt>
      <trkpt lat="42.85753" lon="0.2661">
        <ele>1531.3</ele>
        <time>2021-11-18T07:44:35Z</time>
      </trkpt>
      <trkpt lat="42.85754" lon="0.26606">
        <ele>1531.9</ele>
        <time>2021-11-18T07:44:40Z</time>
      </trkpt>
      <trkpt lat="42.85754" lon="0.26602">
        <ele>1532</ele>
        <time>2021-11-18T07:44:44Z</time>
      </trkpt>
      <trkpt lat="42.85755" lon="0.26598">
        <ele>1532.6</ele>
        <time>2021-11-18T07:44:46Z</time>
      </trkpt>
      <trkpt lat="42.85757" lon="0.26596">
        <ele>1533.5</ele>
        <time>2021-11-18T07:44:50Z</time>
      </trkpt>
      <trkpt lat="42.85758" lon="0.26592">
        <ele>1534.1</ele>
        <time>2021-11-18T07:45:05Z</time>
      </trkpt>
      <trkpt lat="42.8576" lon="0.2659">
        <ele>1535.1</ele>
        <time>2021-11-18T07:45:09Z</time>
      </trkpt>
      <trkpt lat="42.85763" lon="0.26588">
        <ele>1536.4</ele>
        <time>2021-11-18T07:45:13Z</time>
      </trkpt>
      <trkpt lat="42.85767" lon="0.26579">
        <ele>1537.9</ele>
        <time>2021-11-18T07:45:25Z</time>
      </trkpt>
      <trkpt lat="42.85769" lon="0.26569">
        <ele>1537.7</ele>
        <time>2021-11-18T07:45:39Z</time>
      </trkpt>
      <trkpt lat="42.85771" lon="0.26567">
        <ele>1538.4</ele>
        <time>2021-11-18T07:45:44Z</time>
      </trkpt>
      <trkpt lat="42.85772" lon="0.26564">
        <ele>1538.6</ele>
        <time>2021-11-18T07:45:53Z</time>
      </trkpt>
      <trkpt lat="42.85771" lon="0.26557">
        <ele>1537.4</ele>
        <time>2021-11-18T07:46:02Z</time>
      </trkpt>
      <trkpt lat="42.8578" lon="0.26538">
        <ele>1539.7</ele>
        <time>2021-11-18T07:46:36Z</time>
      </trkpt>
      <trkpt lat="42.85782" lon="0.26531">
        <ele>1540</ele>
        <time>2021-11-18T07:46:47Z</time>
      </trkpt>
      <trkpt lat="42.85784" lon="0.26524">
        <ele>1540.3</ele>
        <time>2021-11-18T07:46:59Z</time>
      </trkpt>
      <trkpt lat="42.85783" lon="0.2652">
        <ele>1539.5</ele>
        <time>2021-11-18T07:47:06Z</time>
      </trkpt>
      <trkpt lat="42.85785" lon="0.26517">
        <ele>1540.2</ele>
        <time>2021-11-18T07:47:13Z</time>
      </trkpt>
      <trkpt lat="42.85799" lon="0.26498">
        <ele>1545.7</ele>
        <time>2021-11-18T07:47:38Z</time>
      </trkpt>
      <trkpt lat="42.85796" lon="0.26496">
        <ele>1544.3</ele>
        <time>2021-11-18T07:47:47Z</time>
      </trkpt>
      <trkpt lat="42.85795" lon="0.26493">
        <ele>1543.8</ele>
        <time>2021-11-18T07:47:50Z</time>
      </trkpt>
      <trkpt lat="42.85796" lon="0.26485">
        <ele>1544.5</ele>
        <time>2021-11-18T07:48:03Z</time>
      </trkpt>
      <trkpt lat="42.85798" lon="0.26482">
        <ele>1545.6</ele>
        <time>2021-11-18T07:48:06Z</time>
      </trkpt>
      <trkpt lat="42.858" lon="0.26479">
        <ele>1546.7</ele>
        <time>2021-11-18T07:48:12Z</time>
      </trkpt>
      <trkpt lat="42.858" lon="0.26475">
        <ele>1546.8</ele>
        <time>2021-11-18T07:48:20Z</time>
      </trkpt>
      <trkpt lat="42.85802" lon="0.26472">
        <ele>1547.9</ele>
        <time>2021-11-18T07:48:24Z</time>
      </trkpt>
      <trkpt lat="42.85804" lon="0.2647">
        <ele>1548.9</ele>
        <time>2021-11-18T07:48:29Z</time>
      </trkpt>
      <trkpt lat="42.85804" lon="0.26466">
        <ele>1549</ele>
        <time>2021-11-18T07:48:33Z</time>
      </trkpt>
      <trkpt lat="42.8581" lon="0.26464">
        <ele>1552.1</ele>
        <time>2021-11-18T07:48:40Z</time>
      </trkpt>
      <trkpt lat="42.85811" lon="0.2646">
        <ele>1552.7</ele>
        <time>2021-11-18T07:48:47Z</time>
      </trkpt>
      <trkpt lat="42.85808" lon="0.26452">
        <ele>1551.4</ele>
        <time>2021-11-18T07:48:55Z</time>
      </trkpt>
      <trkpt lat="42.85811" lon="0.26451">
        <ele>1552.9</ele>
        <time>2021-11-18T07:49:03Z</time>
      </trkpt>
      <trkpt lat="42.85816" lon="0.26432">
        <ele>1555.9</ele>
        <time>2021-11-18T07:49:23Z</time>
      </trkpt>
      <trkpt lat="42.85819" lon="0.2643">
        <ele>1557.5</ele>
        <time>2021-11-18T07:49:26Z</time>
      </trkpt>
      <trkpt lat="42.85817" lon="0.26427">
        <ele>1556.5</ele>
        <time>2021-11-18T07:49:31Z</time>
      </trkpt>
      <trkpt lat="42.85824" lon="0.26406">
        <ele>1560.7</ele>
        <time>2021-11-18T07:50:01Z</time>
      </trkpt>
      <trkpt lat="42.85824" lon="0.26403">
        <ele>1560.8</ele>
        <time>2021-11-18T07:50:06Z</time>
      </trkpt>
      <trkpt lat="42.8583" lon="0.26395">
        <ele>1564.1</ele>
        <time>2021-11-18T07:50:26Z</time>
      </trkpt>
      <trkpt lat="42.85833" lon="0.26394">
        <ele>1565.7</ele>
        <time>2021-11-18T07:50:29Z</time>
      </trkpt>
      <trkpt lat="42.8584" lon="0.26375">
        <ele>1570.5</ele>
        <time>2021-11-18T07:51:00Z</time>
      </trkpt>
      <trkpt lat="42.85846" lon="0.26366">
        <ele>1574.3</ele>
        <time>2021-11-18T07:51:12Z</time>
      </trkpt>
      <trkpt lat="42.85849" lon="0.26366">
        <ele>1576</ele>
        <time>2021-11-18T07:51:19Z</time>
      </trkpt>
      <trkpt lat="42.8585" lon="0.26362">
        <ele>1576.7</ele>
        <time>2021-11-18T07:51:27Z</time>
      </trkpt>
      <trkpt lat="42.85853" lon="0.26356">
        <ele>1578.6</ele>
        <time>2021-11-18T07:51:48Z</time>
      </trkpt>
      <trkpt lat="42.85867" lon="0.26351">
        <ele>1586.8</ele>
        <time>2021-11-18T07:52:19Z</time>
      </trkpt>
      <trkpt lat="42.85873" lon="0.26345">
        <ele>1590.3</ele>
        <time>2021-11-18T07:52:30Z</time>
      </trkpt>
      <trkpt lat="42.85876" lon="0.26346">
        <ele>1592</ele>
        <time>2021-11-18T07:52:34Z</time>
      </trkpt>
      <trkpt lat="42.85881" lon="0.26342">
        <ele>1594.9</ele>
        <time>2021-11-18T07:52:43Z</time>
      </trkpt>
      <trkpt lat="42.85882" lon="0.26339">
        <ele>1595.4</ele>
        <time>2021-11-18T07:52:47Z</time>
      </trkpt>
      <trkpt lat="42.85883" lon="0.26336">
        <ele>1596</ele>
        <time>2021-11-18T07:52:50Z</time>
      </trkpt>
      <trkpt lat="42.85883" lon="0.26333">
        <ele>1596</ele>
        <time>2021-11-18T07:52:58Z</time>
      </trkpt>
      <trkpt lat="42.85884" lon="0.26329">
        <ele>1596.3</ele>
        <time>2021-11-18T07:53:02Z</time>
      </trkpt>
      <trkpt lat="42.85885" lon="0.26325">
        <ele>1596.6</ele>
        <time>2021-11-18T07:53:06Z</time>
      </trkpt>
      <trkpt lat="42.85887" lon="0.26323">
        <ele>1597.5</ele>
        <time>2021-11-18T07:53:14Z</time>
      </trkpt>
      <trkpt lat="42.85889" lon="0.2632">
        <ele>1598.4</ele>
        <time>2021-11-18T07:53:18Z</time>
      </trkpt>
      <trkpt lat="42.85892" lon="0.26318">
        <ele>1600</ele>
        <time>2021-11-18T07:53:21Z</time>
      </trkpt>
      <trkpt lat="42.85894" lon="0.26317">
        <ele>1601</ele>
        <time>2021-11-18T07:53:23Z</time>
      </trkpt>
      <trkpt lat="42.85897" lon="0.26317">
        <ele>1602.7</ele>
        <time>2021-11-18T07:53:26Z</time>
      </trkpt>
      <trkpt lat="42.85899" lon="0.26315">
        <ele>1603.6</ele>
        <time>2021-11-18T07:53:30Z</time>
      </trkpt>
      <trkpt lat="42.85902" lon="0.26313">
        <ele>1605.1</ele>
        <time>2021-11-18T07:53:37Z</time>
      </trkpt>
      <trkpt lat="42.85913" lon="0.26304">
        <ele>1610.5</ele>
        <time>2021-11-18T07:54:02Z</time>
      </trkpt>
      <trkpt lat="42.85915" lon="0.26304">
        <ele>1611.6</ele>
        <time>2021-11-18T07:54:06Z</time>
      </trkpt>
      <trkpt lat="42.85914" lon="0.26302">
        <ele>1610.9</ele>
        <time>2021-11-18T07:55:51Z</time>
      </trkpt>
      <trkpt lat="42.85918" lon="0.26302">
        <ele>1613</ele>
        <time>2021-11-18T07:57:27Z</time>
      </trkpt>
      <trkpt lat="42.85918" lon="0.26298">
        <ele>1612.6</ele>
        <time>2021-11-18T07:57:33Z</time>
      </trkpt>
      <trkpt lat="42.85915" lon="0.26302">
        <ele>1611.5</ele>
        <time>2021-11-18T07:57:43Z</time>
      </trkpt>
      <trkpt lat="42.85914" lon="0.26303">
        <ele>1611</ele>
        <time>2021-11-18T07:59:57Z</time>
      </trkpt>
      <trkpt lat="42.85917" lon="0.26302">
        <ele>1612.5</ele>
        <time>2021-11-18T08:00:38Z</time>
      </trkpt>
      <trkpt lat="42.85919" lon="0.263">
        <ele>1613.2</ele>
        <time>2021-11-18T08:00:43Z</time>
      </trkpt>
      <trkpt lat="42.85923" lon="0.26301">
        <ele>1615.1</ele>
        <time>2021-11-18T08:00:47Z</time>
      </trkpt>
      <trkpt lat="42.85925" lon="0.26301">
        <ele>1616</ele>
        <time>2021-11-18T08:00:52Z</time>
      </trkpt>
      <trkpt lat="42.85934" lon="0.26298">
        <ele>1619.7</ele>
        <time>2021-11-18T08:01:09Z</time>
      </trkpt>
      <trkpt lat="42.85933" lon="0.26298">
        <ele>1619.3</ele>
        <time>2021-11-18T08:01:24Z</time>
      </trkpt>
      <trkpt lat="42.85931" lon="0.26301">
        <ele>1618.6</ele>
        <time>2021-11-18T08:01:27Z</time>
      </trkpt>
      <trkpt lat="42.85931" lon="0.26298">
        <ele>1618.4</ele>
        <time>2021-11-18T08:01:47Z</time>
      </trkpt>
      <trkpt lat="42.85933" lon="0.26296">
        <ele>1619.1</ele>
        <time>2021-11-18T08:01:59Z</time>
      </trkpt>
      <trkpt lat="42.85937" lon="0.26298">
        <ele>1621.1</ele>
        <time>2021-11-18T08:02:01Z</time>
      </trkpt>
      <trkpt lat="42.85939" lon="0.26299">
        <ele>1622</ele>
        <time>2021-11-18T08:02:09Z</time>
      </trkpt>
      <trkpt lat="42.8594" lon="0.26297">
        <ele>1622.3</ele>
        <time>2021-11-18T08:02:11Z</time>
      </trkpt>
      <trkpt lat="42.85942" lon="0.26294">
        <ele>1622.9</ele>
        <time>2021-11-18T08:02:14Z</time>
      </trkpt>
      <trkpt lat="42.85945" lon="0.26291">
        <ele>1624</ele>
        <time>2021-11-18T08:02:17Z</time>
      </trkpt>
      <trkpt lat="42.85948" lon="0.2629">
        <ele>1625.3</ele>
        <time>2021-11-18T08:02:20Z</time>
      </trkpt>
      <trkpt lat="42.85951" lon="0.26288">
        <ele>1626.4</ele>
        <time>2021-11-18T08:02:23Z</time>
      </trkpt>
      <trkpt lat="42.85956" lon="0.26289">
        <ele>1628.7</ele>
        <time>2021-11-18T08:02:29Z</time>
      </trkpt>
      <trkpt lat="42.8596" lon="0.26287">
        <ele>1630.3</ele>
        <time>2021-11-18T08:02:36Z</time>
      </trkpt>
      <trkpt lat="42.85966" lon="0.26283">
        <ele>1632.7</ele>
        <time>2021-11-18T08:02:44Z</time>
      </trkpt>
      <trkpt lat="42.8598" lon="0.26279">
        <ele>1638.6</ele>
        <time>2021-11-18T08:03:07Z</time>
      </trkpt>
      <trkpt lat="42.85986" lon="0.26276">
        <ele>1641</ele>
        <time>2021-11-18T08:03:19Z</time>
      </trkpt>
      <trkpt lat="42.85992" lon="0.26271">
        <ele>1643.2</ele>
        <time>2021-11-18T08:03:31Z</time>
      </trkpt>
      <trkpt lat="42.86001" lon="0.26258">
        <ele>1646</ele>
        <time>2021-11-18T08:03:54Z</time>
      </trkpt>
      <trkpt lat="42.86008" lon="0.26255">
        <ele>1647.8</ele>
        <time>2021-11-18T08:04:05Z</time>
      </trkpt>
      <trkpt lat="42.86017" lon="0.26248">
        <ele>1649.9</ele>
        <time>2021-11-18T08:04:17Z</time>
      </trkpt>
      <trkpt lat="42.86023" lon="0.26242">
        <ele>1651</ele>
        <time>2021-11-18T08:04:29Z</time>
      </trkpt>
      <trkpt lat="42.86025" lon="0.26232">
        <ele>1650.5</ele>
        <time>2021-11-18T08:04:41Z</time>
      </trkpt>
      <trkpt lat="42.86027" lon="0.26229">
        <ele>1650.8</ele>
        <time>2021-11-18T08:04:44Z</time>
      </trkpt>
      <trkpt lat="42.86032" lon="0.26227">
        <ele>1652.2</ele>
        <time>2021-11-18T08:04:51Z</time>
      </trkpt>
      <trkpt lat="42.86035" lon="0.26227">
        <ele>1653.1</ele>
        <time>2021-11-18T08:04:55Z</time>
      </trkpt>
      <trkpt lat="42.86036" lon="0.26225">
        <ele>1653.2</ele>
        <time>2021-11-18T08:05:00Z</time>
      </trkpt>
      <trkpt lat="42.86036" lon="0.26221">
        <ele>1652.8</ele>
        <time>2021-11-18T08:05:04Z</time>
      </trkpt>
      <trkpt lat="42.86041" lon="0.26218">
        <ele>1654</ele>
        <time>2021-11-18T08:05:18Z</time>
      </trkpt>
      <trkpt lat="42.86046" lon="0.26216">
        <ele>1655.4</ele>
        <time>2021-11-18T08:05:23Z</time>
      </trkpt>
      <trkpt lat="42.86056" lon="0.26214">
        <ele>1658.4</ele>
        <time>2021-11-18T08:05:38Z</time>
      </trkpt>
      <trkpt lat="42.86071" lon="0.26198">
        <ele>1661.7</ele>
        <time>2021-11-18T08:06:02Z</time>
      </trkpt>
      <trkpt lat="42.86078" lon="0.26202">
        <ele>1664.3</ele>
        <time>2021-11-18T08:06:19Z</time>
      </trkpt>
      <trkpt lat="42.8608" lon="0.26201">
        <ele>1664.8</ele>
        <time>2021-11-18T08:06:22Z</time>
      </trkpt>
      <trkpt lat="42.86083" lon="0.26202">
        <ele>1665.9</ele>
        <time>2021-11-18T08:06:27Z</time>
      </trkpt>
      <trkpt lat="42.86092" lon="0.26199">
        <ele>1668.5</ele>
        <time>2021-11-18T08:06:42Z</time>
      </trkpt>
      <trkpt lat="42.86095" lon="0.26198">
        <ele>1669.4</ele>
        <time>2021-11-18T08:06:49Z</time>
      </trkpt>
      <trkpt lat="42.86102" lon="0.26196">
        <ele>1671.5</ele>
        <time>2021-11-18T08:07:00Z</time>
      </trkpt>
      <trkpt lat="42.86105" lon="0.26197">
        <ele>1672.5</ele>
        <time>2021-11-18T08:07:03Z</time>
      </trkpt>
      <trkpt lat="42.86109" lon="0.26197">
        <ele>1673.8</ele>
        <time>2021-11-18T08:07:10Z</time>
      </trkpt>
      <trkpt lat="42.86112" lon="0.26196">
        <ele>1674.7</ele>
        <time>2021-11-18T08:07:15Z</time>
      </trkpt>
      <trkpt lat="42.86116" lon="0.26195">
        <ele>1675.9</ele>
        <time>2021-11-18T08:07:23Z</time>
      </trkpt>
      <trkpt lat="42.86118" lon="0.26196">
        <ele>1676.6</ele>
        <time>2021-11-18T08:07:26Z</time>
      </trkpt>
      <trkpt lat="42.86122" lon="0.26193">
        <ele>1677.5</ele>
        <time>2021-11-18T08:07:37Z</time>
      </trkpt>
      <trkpt lat="42.8614" lon="0.2619">
        <ele>1682.8</ele>
        <time>2021-11-18T08:08:08Z</time>
      </trkpt>
      <trkpt lat="42.86142" lon="0.26189">
        <ele>1683.3</ele>
        <time>2021-11-18T08:08:12Z</time>
      </trkpt>
      <trkpt lat="42.86146" lon="0.26187">
        <ele>1684.2</ele>
        <time>2021-11-18T08:08:20Z</time>
      </trkpt>
      <trkpt lat="42.86149" lon="0.26189">
        <ele>1685.5</ele>
        <time>2021-11-18T08:08:24Z</time>
      </trkpt>
      <trkpt lat="42.86151" lon="0.26188">
        <ele>1685.9</ele>
        <time>2021-11-18T08:08:28Z</time>
      </trkpt>
      <trkpt lat="42.86154" lon="0.26189">
        <ele>1687</ele>
        <time>2021-11-18T08:08:31Z</time>
      </trkpt>
      <trkpt lat="42.86162" lon="0.26191">
        <ele>1689.9</ele>
        <time>2021-11-18T08:08:51Z</time>
      </trkpt>
      <trkpt lat="42.86166" lon="0.26189">
        <ele>1690.8</ele>
        <time>2021-11-18T08:09:00Z</time>
      </trkpt>
      <trkpt lat="42.86175" lon="0.26184">
        <ele>1692.8</ele>
        <time>2021-11-18T08:09:15Z</time>
      </trkpt>
      <trkpt lat="42.86177" lon="0.26185">
        <ele>1693.6</ele>
        <time>2021-11-18T08:09:18Z</time>
      </trkpt>
      <trkpt lat="42.86184" lon="0.26182">
        <ele>1695.3</ele>
        <time>2021-11-18T08:09:36Z</time>
      </trkpt>
      <trkpt lat="42.86188" lon="0.26177">
        <ele>1695.5</ele>
        <time>2021-11-18T08:09:44Z</time>
      </trkpt>
      <trkpt lat="42.8619" lon="0.26177">
        <ele>1696.2</ele>
        <time>2021-11-18T08:09:47Z</time>
      </trkpt>
      <trkpt lat="42.86193" lon="0.26177">
        <ele>1697.1</ele>
        <time>2021-11-18T08:09:52Z</time>
      </trkpt>
      <trkpt lat="42.8621" lon="0.26183">
        <ele>1703.9</ele>
        <time>2021-11-18T08:10:25Z</time>
      </trkpt>
      <trkpt lat="42.86211" lon="0.26185">
        <ele>1704.7</ele>
        <time>2021-11-18T08:10:29Z</time>
      </trkpt>
      <trkpt lat="42.86218" lon="0.26185">
        <ele>1706.9</ele>
        <time>2021-11-18T08:10:43Z</time>
      </trkpt>
      <trkpt lat="42.8622" lon="0.26185">
        <ele>1707.6</ele>
        <time>2021-11-18T08:10:47Z</time>
      </trkpt>
      <trkpt lat="42.86223" lon="0.26184">
        <ele>1708.3</ele>
        <time>2021-11-18T08:10:51Z</time>
      </trkpt>
      <trkpt lat="42.86225" lon="0.26185">
        <ele>1709.2</ele>
        <time>2021-11-18T08:11:00Z</time>
      </trkpt>
      <trkpt lat="42.86227" lon="0.26192">
        <ele>1711.6</ele>
        <time>2021-11-18T08:11:13Z</time>
      </trkpt>
      <trkpt lat="42.86229" lon="0.26193">
        <ele>1712.6</ele>
        <time>2021-11-18T08:11:18Z</time>
      </trkpt>
      <trkpt lat="42.86231" lon="0.26193">
        <ele>1713.2</ele>
        <time>2021-11-18T08:11:22Z</time>
      </trkpt>
      <trkpt lat="42.86233" lon="0.26193">
        <ele>1713.9</ele>
        <time>2021-11-18T08:11:27Z</time>
      </trkpt>
      <trkpt lat="42.86241" lon="0.26204">
        <ele>1719.6</ele>
        <time>2021-11-18T08:11:58Z</time>
      </trkpt>
      <trkpt lat="42.86243" lon="0.26205">
        <ele>1720.6</ele>
        <time>2021-11-18T08:12:05Z</time>
      </trkpt>
      <trkpt lat="42.86244" lon="0.26208">
        <ele>1721.8</ele>
        <time>2021-11-18T08:12:22Z</time>
      </trkpt>
      <trkpt lat="42.86247" lon="0.26209">
        <ele>1723.1</ele>
        <time>2021-11-18T08:12:26Z</time>
      </trkpt>
      <trkpt lat="42.8625" lon="0.26213">
        <ele>1725.3</ele>
        <time>2021-11-18T08:12:38Z</time>
      </trkpt>
      <trkpt lat="42.86252" lon="0.26213">
        <ele>1726.1</ele>
        <time>2021-11-18T08:12:44Z</time>
      </trkpt>
      <trkpt lat="42.86256" lon="0.26218">
        <ele>1728.9</ele>
        <time>2021-11-18T08:12:53Z</time>
      </trkpt>
      <trkpt lat="42.86258" lon="0.2622">
        <ele>1730.2</ele>
        <time>2021-11-18T08:12:59Z</time>
      </trkpt>
      <trkpt lat="42.86267" lon="0.26232">
        <ele>1736.8</ele>
        <time>2021-11-18T08:13:26Z</time>
      </trkpt>
      <trkpt lat="42.86267" lon="0.26236">
        <ele>1738</ele>
        <time>2021-11-18T08:13:33Z</time>
      </trkpt>
      <trkpt lat="42.86269" lon="0.26237">
        <ele>1738.9</ele>
        <time>2021-11-18T08:13:39Z</time>
      </trkpt>
      <trkpt lat="42.86271" lon="0.26238">
        <ele>1739.9</ele>
        <time>2021-11-18T08:13:44Z</time>
      </trkpt>
      <trkpt lat="42.86271" lon="0.26241">
        <ele>1740.8</ele>
        <time>2021-11-18T08:13:53Z</time>
      </trkpt>
      <trkpt lat="42.86272" lon="0.26245">
        <ele>1742.2</ele>
        <time>2021-11-18T08:14:02Z</time>
      </trkpt>
      <trkpt lat="42.86273" lon="0.26249">
        <ele>1743.7</ele>
        <time>2021-11-18T08:14:08Z</time>
      </trkpt>
      <trkpt lat="42.86276" lon="0.26252">
        <ele>1745.9</ele>
        <time>2021-11-18T08:14:15Z</time>
      </trkpt>
      <trkpt lat="42.86277" lon="0.26255">
        <ele>1747.5</ele>
        <time>2021-11-18T08:14:27Z</time>
      </trkpt>
      <trkpt lat="42.86278" lon="0.26258">
        <ele>1749.1</ele>
        <time>2021-11-18T08:14:32Z</time>
      </trkpt>
      <trkpt lat="42.8628" lon="0.26259">
        <ele>1750.2</ele>
        <time>2021-11-18T08:14:37Z</time>
      </trkpt>
      <trkpt lat="42.86284" lon="0.26272">
        <ele>1757.2</ele>
        <time>2021-11-18T08:15:04Z</time>
      </trkpt>
      <trkpt lat="42.86284" lon="0.26275">
        <ele>1758.5</ele>
        <time>2021-11-18T08:15:09Z</time>
      </trkpt>
      <trkpt lat="42.86288" lon="0.26274">
        <ele>1759.5</ele>
        <time>2021-11-18T08:15:23Z</time>
      </trkpt>
      <trkpt lat="42.8629" lon="0.26274">
        <ele>1760.3</ele>
        <time>2021-11-18T08:15:30Z</time>
      </trkpt>
      <trkpt lat="42.86293" lon="0.26276">
        <ele>1762.2</ele>
        <time>2021-11-18T08:15:38Z</time>
      </trkpt>
      <trkpt lat="42.86294" lon="0.26279">
        <ele>1763.9</ele>
        <time>2021-11-18T08:15:44Z</time>
      </trkpt>
      <trkpt lat="42.86296" lon="0.26281">
        <ele>1765.5</ele>
        <time>2021-11-18T08:15:50Z</time>
      </trkpt>
      <trkpt lat="42.86298" lon="0.26284">
        <ele>1767.6</ele>
        <time>2021-11-18T08:15:57Z</time>
      </trkpt>
      <trkpt lat="42.863" lon="0.26285">
        <ele>1768.8</ele>
        <time>2021-11-18T08:16:03Z</time>
      </trkpt>
      <trkpt lat="42.86302" lon="0.26289">
        <ele>1771.3</ele>
        <time>2021-11-18T08:16:13Z</time>
      </trkpt>
      <trkpt lat="42.86309" lon="0.26294">
        <ele>1776.2</ele>
        <time>2021-11-18T08:16:32Z</time>
      </trkpt>
      <trkpt lat="42.86313" lon="0.26299">
        <ele>1780</ele>
        <time>2021-11-18T08:16:50Z</time>
      </trkpt>
      <trkpt lat="42.86314" lon="0.26302">
        <ele>1781.7</ele>
        <time>2021-11-18T08:16:57Z</time>
      </trkpt>
      <trkpt lat="42.86316" lon="0.26305">
        <ele>1783.9</ele>
        <time>2021-11-18T08:17:02Z</time>
      </trkpt>
      <trkpt lat="42.86319" lon="0.26305">
        <ele>1785.1</ele>
        <time>2021-11-18T08:17:14Z</time>
      </trkpt>
      <trkpt lat="42.86321" lon="0.26306">
        <ele>1786.3</ele>
        <time>2021-11-18T08:17:21Z</time>
      </trkpt>
      <trkpt lat="42.86324" lon="0.26308">
        <ele>1788.4</ele>
        <time>2021-11-18T08:17:28Z</time>
      </trkpt>
      <trkpt lat="42.86327" lon="0.2631">
        <ele>1790.5</ele>
        <time>2021-11-18T08:17:35Z</time>
      </trkpt>
      <trkpt lat="42.86327" lon="0.26314">
        <ele>1792.4</ele>
        <time>2021-11-18T08:17:39Z</time>
      </trkpt>
      <trkpt lat="42.86327" lon="0.26323">
        <ele>1796.6</ele>
        <time>2021-11-18T08:17:55Z</time>
      </trkpt>
      <trkpt lat="42.86329" lon="0.26326">
        <ele>1798.8</ele>
        <time>2021-11-18T08:18:04Z</time>
      </trkpt>
      <trkpt lat="42.8633" lon="0.26329">
        <ele>1800.6</ele>
        <time>2021-11-18T08:18:11Z</time>
      </trkpt>
      <trkpt lat="42.86331" lon="0.26332">
        <ele>1802.4</ele>
        <time>2021-11-18T08:18:17Z</time>
      </trkpt>
      <trkpt lat="42.86335" lon="0.26337">
        <ele>1805.6</ele>
        <time>2021-11-18T08:18:25Z</time>
      </trkpt>
      <trkpt lat="42.86338" lon="0.26338">
        <ele>1806</ele>
        <time>2021-11-18T08:18:29Z</time>
      </trkpt>
      <trkpt lat="42.86342" lon="0.26343">
        <ele>1808.3</ele>
        <time>2021-11-18T08:18:44Z</time>
      </trkpt>
      <trkpt lat="42.86346" lon="0.26337">
        <ele>1805.5</ele>
        <time>2021-11-18T08:19:07Z</time>
      </trkpt>
      <trkpt lat="42.86343" lon="0.26339">
        <ele>1806.4</ele>
        <time>2021-11-18T08:19:10Z</time>
      </trkpt>
      <trkpt lat="42.86341" lon="0.2634">
        <ele>1806.9</ele>
        <time>2021-11-18T08:19:14Z</time>
      </trkpt>
      <trkpt lat="42.86339" lon="0.26341">
        <ele>1807.4</ele>
        <time>2021-11-18T08:19:16Z</time>
      </trkpt>
      <trkpt lat="42.86336" lon="0.26342">
        <ele>1807.8</ele>
        <time>2021-11-18T08:19:23Z</time>
      </trkpt>
      <trkpt lat="42.86335" lon="0.26346">
        <ele>1809.6</ele>
        <time>2021-11-18T08:20:19Z</time>
      </trkpt>
      <trkpt lat="42.86337" lon="0.26347">
        <ele>1810.1</ele>
        <time>2021-11-18T08:20:21Z</time>
      </trkpt>
      <trkpt lat="42.86342" lon="0.26345">
        <ele>1809.2</ele>
        <time>2021-11-18T08:20:31Z</time>
      </trkpt>
      <trkpt lat="42.86345" lon="0.26345">
        <ele>1809.2</ele>
        <time>2021-11-18T08:21:06Z</time>
      </trkpt>
      <trkpt lat="42.86345" lon="0.26348">
        <ele>1810.5</ele>
        <time>2021-11-18T08:22:14Z</time>
      </trkpt>
      <trkpt lat="42.86353" lon="0.2635">
        <ele>1811.4</ele>
        <time>2021-11-18T08:22:29Z</time>
      </trkpt>
      <trkpt lat="42.86355" lon="0.26352">
        <ele>1812.4</ele>
        <time>2021-11-18T08:22:34Z</time>
      </trkpt>
      <trkpt lat="42.86368" lon="0.26353">
        <ele>1812.9</ele>
        <time>2021-11-18T08:22:50Z</time>
      </trkpt>
      <trkpt lat="42.86372" lon="0.26357">
        <ele>1814.8</ele>
        <time>2021-11-18T08:23:01Z</time>
      </trkpt>
      <trkpt lat="42.8638" lon="0.26367">
        <ele>1819.7</ele>
        <time>2021-11-18T08:23:46Z</time>
      </trkpt>
      <trkpt lat="42.86385" lon="0.26366">
        <ele>1819.3</ele>
        <time>2021-11-18T08:23:58Z</time>
      </trkpt>
      <trkpt lat="42.86389" lon="0.26368">
        <ele>1820.4</ele>
        <time>2021-11-18T08:24:11Z</time>
      </trkpt>
      <trkpt lat="42.8639" lon="0.26371">
        <ele>1821.9</ele>
        <time>2021-11-18T08:24:17Z</time>
      </trkpt>
      <trkpt lat="42.86393" lon="0.26372">
        <ele>1822.4</ele>
        <time>2021-11-18T08:24:23Z</time>
      </trkpt>
      <trkpt lat="42.86397" lon="0.26376">
        <ele>1824.5</ele>
        <time>2021-11-18T08:24:30Z</time>
      </trkpt>
      <trkpt lat="42.86398" lon="0.26379">
        <ele>1826.1</ele>
        <time>2021-11-18T08:24:34Z</time>
      </trkpt>
      <trkpt lat="42.864" lon="0.2638">
        <ele>1826.6</ele>
        <time>2021-11-18T08:24:41Z</time>
      </trkpt>
      <trkpt lat="42.86402" lon="0.26382">
        <ele>1827.7</ele>
        <time>2021-11-18T08:24:47Z</time>
      </trkpt>
      <trkpt lat="42.86404" lon="0.26384">
        <ele>1828.7</ele>
        <time>2021-11-18T08:24:52Z</time>
      </trkpt>
      <trkpt lat="42.86411" lon="0.26384">
        <ele>1829</ele>
        <time>2021-11-18T08:25:13Z</time>
      </trkpt>
      <trkpt lat="42.86415" lon="0.26382">
        <ele>1828.1</ele>
        <time>2021-11-18T08:25:21Z</time>
      </trkpt>
      <trkpt lat="42.86418" lon="0.26382">
        <ele>1828.4</ele>
        <time>2021-11-18T08:25:28Z</time>
      </trkpt>
      <trkpt lat="42.86419" lon="0.26386">
        <ele>1830.6</ele>
        <time>2021-11-18T08:25:43Z</time>
      </trkpt>
      <trkpt lat="42.86421" lon="0.26384">
        <ele>1830</ele>
        <time>2021-11-18T08:25:48Z</time>
      </trkpt>
      <trkpt lat="42.86422" lon="0.26387">
        <ele>1831.7</ele>
        <time>2021-11-18T08:25:56Z</time>
      </trkpt>
      <trkpt lat="42.86426" lon="0.26398">
        <ele>1837.9</ele>
        <time>2021-11-18T08:26:32Z</time>
      </trkpt>
      <trkpt lat="42.86424" lon="0.26402">
        <ele>1839.6</ele>
        <time>2021-11-18T08:26:39Z</time>
      </trkpt>
      <trkpt lat="42.86429" lon="0.26405">
        <ele>1841.9</ele>
        <time>2021-11-18T08:27:01Z</time>
      </trkpt>
      <trkpt lat="42.86432" lon="0.26405">
        <ele>1842.4</ele>
        <time>2021-11-18T08:27:06Z</time>
      </trkpt>
      <trkpt lat="42.86434" lon="0.26403">
        <ele>1841.8</ele>
        <time>2021-11-18T08:27:13Z</time>
      </trkpt>
      <trkpt lat="42.86441" lon="0.26407">
        <ele>1844.8</ele>
        <time>2021-11-18T08:27:27Z</time>
      </trkpt>
      <trkpt lat="42.86457" lon="0.26405">
        <ele>1846.4</ele>
        <time>2021-11-18T08:27:58Z</time>
      </trkpt>
      <trkpt lat="42.86466" lon="0.26404">
        <ele>1847.4</ele>
        <time>2021-11-18T08:28:14Z</time>
      </trkpt>
      <trkpt lat="42.86468" lon="0.26403">
        <ele>1847.2</ele>
        <time>2021-11-18T08:28:19Z</time>
      </trkpt>
      <trkpt lat="42.86471" lon="0.26401">
        <ele>1846.8</ele>
        <time>2021-11-18T08:28:23Z</time>
      </trkpt>
      <trkpt lat="42.86477" lon="0.264">
        <ele>1847.4</ele>
        <time>2021-11-18T08:28:32Z</time>
      </trkpt>
      <trkpt lat="42.86479" lon="0.26402">
        <ele>1848.6</ele>
        <time>2021-11-18T08:28:38Z</time>
      </trkpt>
      <trkpt lat="42.86481" lon="0.26402">
        <ele>1848.9</ele>
        <time>2021-11-18T08:28:51Z</time>
      </trkpt>
      <trkpt lat="42.86485" lon="0.26401">
        <ele>1849.1</ele>
        <time>2021-11-18T08:29:07Z</time>
      </trkpt>
      <trkpt lat="42.86488" lon="0.26402">
        <ele>1850.1</ele>
        <time>2021-11-18T08:29:11Z</time>
      </trkpt>
      <trkpt lat="42.86491" lon="0.26401">
        <ele>1850.1</ele>
        <time>2021-11-18T08:29:13Z</time>
      </trkpt>
      <trkpt lat="42.86499" lon="0.26401">
        <ele>1851.4</ele>
        <time>2021-11-18T08:29:27Z</time>
      </trkpt>
      <trkpt lat="42.86501" lon="0.264">
        <ele>1851.4</ele>
        <time>2021-11-18T08:29:33Z</time>
      </trkpt>
      <trkpt lat="42.86503" lon="0.26402">
        <ele>1852.7</ele>
        <time>2021-11-18T08:29:37Z</time>
      </trkpt>
      <trkpt lat="42.86506" lon="0.26407">
        <ele>1855.2</ele>
        <time>2021-11-18T08:29:47Z</time>
      </trkpt>
      <trkpt lat="42.86508" lon="0.26406">
        <ele>1855.3</ele>
        <time>2021-11-18T08:29:51Z</time>
      </trkpt>
      <trkpt lat="42.8651" lon="0.26406">
        <ele>1855.7</ele>
        <time>2021-11-18T08:29:57Z</time>
      </trkpt>
      <trkpt lat="42.86517" lon="0.26408">
        <ele>1857.7</ele>
        <time>2021-11-18T08:30:15Z</time>
      </trkpt>
      <trkpt lat="42.86519" lon="0.26409">
        <ele>1858.4</ele>
        <time>2021-11-18T08:30:18Z</time>
      </trkpt>
      <trkpt lat="42.86527" lon="0.26409">
        <ele>1859.9</ele>
        <time>2021-11-18T08:30:34Z</time>
      </trkpt>
      <trkpt lat="42.86529" lon="0.26408">
        <ele>1860</ele>
        <time>2021-11-18T08:30:39Z</time>
      </trkpt>
      <trkpt lat="42.86532" lon="0.26411">
        <ele>1861.4</ele>
        <time>2021-11-18T08:30:47Z</time>
      </trkpt>
      <trkpt lat="42.86536" lon="0.26413">
        <ele>1862.7</ele>
        <time>2021-11-18T08:31:06Z</time>
      </trkpt>
      <trkpt lat="42.86537" lon="0.26414">
        <ele>1863.1</ele>
        <time>2021-11-18T08:31:10Z</time>
      </trkpt>
      <trkpt lat="42.86537" lon="0.26412">
        <ele>1862.6</ele>
        <time>2021-11-18T08:31:23Z</time>
      </trkpt>
      <trkpt lat="42.86534" lon="0.26413">
        <ele>1862.3</ele>
        <time>2021-11-18T08:31:25Z</time>
      </trkpt>
      <trkpt lat="42.86532" lon="0.26414">
        <ele>1862.3</ele>
        <time>2021-11-18T08:31:27Z</time>
      </trkpt>
      <trkpt lat="42.86534" lon="0.26416">
        <ele>1863.1</ele>
        <time>2021-11-18T08:31:32Z</time>
      </trkpt>
      <trkpt lat="42.86534" lon="0.26414">
        <ele>1862.6</ele>
        <time>2021-11-18T08:32:16Z</time>
      </trkpt>
      <trkpt lat="42.86537" lon="0.26413">
        <ele>1862.8</ele>
        <time>2021-11-18T08:32:32Z</time>
      </trkpt>
      <trkpt lat="42.86537" lon="0.26414">
        <ele>1863.1</ele>
        <time>2021-11-18T08:33:09Z</time>
      </trkpt>
      <trkpt lat="42.86537" lon="0.26416">
        <ele>1863.6</ele>
        <time>2021-11-18T08:33:10Z</time>
      </trkpt>
      <trkpt lat="42.86542" lon="0.26408">
        <ele>1862.5</ele>
        <time>2021-11-18T08:33:49Z</time>
      </trkpt>
      <trkpt lat="42.86544" lon="0.26409">
        <ele>1863.1</ele>
        <time>2021-11-18T08:33:55Z</time>
      </trkpt>
      <trkpt lat="42.86546" lon="0.2641">
        <ele>1863.7</ele>
        <time>2021-11-18T08:34:00Z</time>
      </trkpt>
      <trkpt lat="42.86546" lon="0.26414">
        <ele>1864.6</ele>
        <time>2021-11-18T08:34:04Z</time>
      </trkpt>
      <trkpt lat="42.86547" lon="0.26418">
        <ele>1865.9</ele>
        <time>2021-11-18T08:34:15Z</time>
      </trkpt>
      <trkpt lat="42.86557" lon="0.26425">
        <ele>1870.3</ele>
        <time>2021-11-18T08:35:12Z</time>
      </trkpt>
      <trkpt lat="42.86557" lon="0.26428">
        <ele>1871.5</ele>
        <time>2021-11-18T08:35:16Z</time>
      </trkpt>
      <trkpt lat="42.86564" lon="0.26434">
        <ele>1874.9</ele>
        <time>2021-11-18T08:35:39Z</time>
      </trkpt>
      <trkpt lat="42.86567" lon="0.26448">
        <ele>1880.8</ele>
        <time>2021-11-18T08:36:26Z</time>
      </trkpt>
      <trkpt lat="42.86576" lon="0.2645">
        <ele>1882.6</ele>
        <time>2021-11-18T08:36:45Z</time>
      </trkpt>
      <trkpt lat="42.86576" lon="0.26454">
        <ele>1884.1</ele>
        <time>2021-11-18T08:36:50Z</time>
      </trkpt>
      <trkpt lat="42.86579" lon="0.26453">
        <ele>1884</ele>
        <time>2021-11-18T08:37:05Z</time>
      </trkpt>
      <trkpt lat="42.86579" lon="0.26457">
        <ele>1885.6</ele>
        <time>2021-11-18T08:37:15Z</time>
      </trkpt>
      <trkpt lat="42.86585" lon="0.2646">
        <ele>1887.7</ele>
        <time>2021-11-18T08:37:43Z</time>
      </trkpt>
      <trkpt lat="42.86588" lon="0.2646">
        <ele>1888.6</ele>
        <time>2021-11-18T08:37:48Z</time>
      </trkpt>
      <trkpt lat="42.86591" lon="0.26474">
        <ele>1894.9</ele>
        <time>2021-11-18T08:38:29Z</time>
      </trkpt>
      <trkpt lat="42.86593" lon="0.26474">
        <ele>1895.5</ele>
        <time>2021-11-18T08:38:36Z</time>
      </trkpt>
      <trkpt lat="42.86595" lon="0.26476">
        <ele>1897</ele>
        <time>2021-11-18T08:38:51Z</time>
      </trkpt>
      <trkpt lat="42.86604" lon="0.26479">
        <ele>1901.1</ele>
        <time>2021-11-18T08:39:21Z</time>
      </trkpt>
      <trkpt lat="42.86608" lon="0.26482">
        <ele>1903.6</ele>
        <time>2021-11-18T08:39:35Z</time>
      </trkpt>
      <trkpt lat="42.86609" lon="0.26487">
        <ele>1905.9</ele>
        <time>2021-11-18T08:39:54Z</time>
      </trkpt>
      <trkpt lat="42.86611" lon="0.26489">
        <ele>1907.4</ele>
        <time>2021-11-18T08:39:58Z</time>
      </trkpt>
      <trkpt lat="42.8662" lon="0.26496">
        <ele>1913.2</ele>
        <time>2021-11-18T08:40:57Z</time>
      </trkpt>
      <trkpt lat="42.86622" lon="0.265">
        <ele>1915.5</ele>
        <time>2021-11-18T08:41:04Z</time>
      </trkpt>
      <trkpt lat="42.86623" lon="0.26503">
        <ele>1916.9</ele>
        <time>2021-11-18T08:41:09Z</time>
      </trkpt>
      <trkpt lat="42.86625" lon="0.26505">
        <ele>1918.3</ele>
        <time>2021-11-18T08:41:15Z</time>
      </trkpt>
      <trkpt lat="42.86627" lon="0.26503">
        <ele>1918.3</ele>
        <time>2021-11-18T08:41:21Z</time>
      </trkpt>
      <trkpt lat="42.86634" lon="0.26508">
        <ele>1922.6</ele>
        <time>2021-11-18T08:41:50Z</time>
      </trkpt>
      <trkpt lat="42.86644" lon="0.26513">
        <ele>1928</ele>
        <time>2021-11-18T08:42:17Z</time>
      </trkpt>
      <trkpt lat="42.86646" lon="0.26522">
        <ele>1932.1</ele>
        <time>2021-11-18T08:42:57Z</time>
      </trkpt>
      <trkpt lat="42.86648" lon="0.26524">
        <ele>1933.5</ele>
        <time>2021-11-18T08:43:02Z</time>
      </trkpt>
      <trkpt lat="42.86651" lon="0.26523">
        <ele>1934.2</ele>
        <time>2021-11-18T08:43:13Z</time>
      </trkpt>
      <trkpt lat="42.86653" lon="0.26527">
        <ele>1936.5</ele>
        <time>2021-11-18T08:43:24Z</time>
      </trkpt>
      <trkpt lat="42.86656" lon="0.26527">
        <ele>1937.5</ele>
        <time>2021-11-18T08:43:32Z</time>
      </trkpt>
      <trkpt lat="42.86656" lon="0.26522">
        <ele>1935.6</ele>
        <time>2021-11-18T08:43:46Z</time>
      </trkpt>
      <trkpt lat="42.86653" lon="0.2652">
        <ele>1933.8</ele>
        <time>2021-11-18T08:44:01Z</time>
      </trkpt>
      <trkpt lat="42.86651" lon="0.26518">
        <ele>1932.3</ele>
        <time>2021-11-18T08:44:04Z</time>
      </trkpt>
      <trkpt lat="42.86649" lon="0.26522">
        <ele>1933.1</ele>
        <time>2021-11-18T08:44:09Z</time>
      </trkpt>
      <trkpt lat="42.86647" lon="0.26524">
        <ele>1933.2</ele>
        <time>2021-11-18T08:45:15Z</time>
      </trkpt>
      <trkpt lat="42.86646" lon="0.26528">
        <ele>1934.3</ele>
        <time>2021-11-18T08:45:20Z</time>
      </trkpt>
      <trkpt lat="42.86645" lon="0.26527">
        <ele>1933.6</ele>
        <time>2021-11-18T08:45:38Z</time>
      </trkpt>
      <trkpt lat="42.86645" lon="0.26528">
        <ele>1933.9</ele>
        <time>2021-11-18T08:45:47Z</time>
      </trkpt>
      <trkpt lat="42.86661" lon="0.26518">
        <ele>1935.9</ele>
        <time>2021-11-18T08:46:13Z</time>
      </trkpt>
      <trkpt lat="42.86671" lon="0.26514">
        <ele>1938</ele>
        <time>2021-11-18T08:46:33Z</time>
      </trkpt>
      <trkpt lat="42.86674" lon="0.26506">
        <ele>1936.1</ele>
        <time>2021-11-18T08:46:46Z</time>
      </trkpt>
      <trkpt lat="42.86677" lon="0.26503">
        <ele>1936</ele>
        <time>2021-11-18T08:46:56Z</time>
      </trkpt>
      <trkpt lat="42.86683" lon="0.26494">
        <ele>1934.7</ele>
        <time>2021-11-18T08:47:14Z</time>
      </trkpt>
      <trkpt lat="42.86686" lon="0.26485">
        <ele>1932.4</ele>
        <time>2021-11-18T08:47:22Z</time>
      </trkpt>
      <trkpt lat="42.86684" lon="0.26481">
        <ele>1930</ele>
        <time>2021-11-18T08:47:25Z</time>
      </trkpt>
      <trkpt lat="42.86685" lon="0.26477">
        <ele>1928.9</ele>
        <time>2021-11-18T08:47:28Z</time>
      </trkpt>
      <trkpt lat="42.86687" lon="0.26475">
        <ele>1928.9</ele>
        <time>2021-11-18T08:47:32Z</time>
      </trkpt>
      <trkpt lat="42.86689" lon="0.26468">
        <ele>1927.1</ele>
        <time>2021-11-18T08:47:39Z</time>
      </trkpt>
      <trkpt lat="42.86691" lon="0.26466">
        <ele>1927.2</ele>
        <time>2021-11-18T08:47:43Z</time>
      </trkpt>
      <trkpt lat="42.86691" lon="0.26462">
        <ele>1925.7</ele>
        <time>2021-11-18T08:47:47Z</time>
      </trkpt>
      <trkpt lat="42.8669" lon="0.26458">
        <ele>1923.7</ele>
        <time>2021-11-18T08:47:53Z</time>
      </trkpt>
      <trkpt lat="42.8669" lon="0.26455">
        <ele>1922.6</ele>
        <time>2021-11-18T08:47:59Z</time>
      </trkpt>
      <trkpt lat="42.8669" lon="0.26452">
        <ele>1921.5</ele>
        <time>2021-11-18T08:48:07Z</time>
      </trkpt>
      <trkpt lat="42.86692" lon="0.26451">
        <ele>1922</ele>
        <time>2021-11-18T08:48:12Z</time>
      </trkpt>
      <trkpt lat="42.86695" lon="0.26445">
        <ele>1921.1</ele>
        <time>2021-11-18T08:48:18Z</time>
      </trkpt>
      <trkpt lat="42.86695" lon="0.26442">
        <ele>1920</ele>
        <time>2021-11-18T08:48:23Z</time>
      </trkpt>
      <trkpt lat="42.86697" lon="0.2644">
        <ele>1920.2</ele>
        <time>2021-11-18T08:48:29Z</time>
      </trkpt>
      <trkpt lat="42.867" lon="0.2644">
        <ele>1921.7</ele>
        <time>2021-11-18T08:48:33Z</time>
      </trkpt>
      <trkpt lat="42.86702" lon="0.2644">
        <ele>1922.6</ele>
        <time>2021-11-18T08:48:36Z</time>
      </trkpt>
      <trkpt lat="42.86703" lon="0.26438">
        <ele>1922.4</ele>
        <time>2021-11-18T08:48:41Z</time>
      </trkpt>
      <trkpt lat="42.86702" lon="0.26431">
        <ele>1919.4</ele>
        <time>2021-11-18T08:48:50Z</time>
      </trkpt>
      <trkpt lat="42.86706" lon="0.26422">
        <ele>1918.2</ele>
        <time>2021-11-18T08:49:11Z</time>
      </trkpt>
      <trkpt lat="42.86705" lon="0.26415">
        <ele>1915.7</ele>
        <time>2021-11-18T08:49:22Z</time>
      </trkpt>
      <trkpt lat="42.86707" lon="0.26405">
        <ele>1916.4</ele>
        <time>2021-11-18T08:49:30Z</time>
      </trkpt>
      <trkpt lat="42.86706" lon="0.26402">
        <ele>1915.7</ele>
        <time>2021-11-18T08:49:43Z</time>
      </trkpt>
      <trkpt lat="42.86705" lon="0.264">
        <ele>1915.2</ele>
        <time>2021-11-18T08:50:04Z</time>
      </trkpt>
      <trkpt lat="42.86703" lon="0.264">
        <ele>1914.2</ele>
        <time>2021-11-18T08:50:08Z</time>
      </trkpt>
      <trkpt lat="42.86704" lon="0.26392">
        <ele>1914.4</ele>
        <time>2021-11-18T08:50:31Z</time>
      </trkpt>
      <trkpt lat="42.86703" lon="0.26384">
        <ele>1913.7</ele>
        <time>2021-11-18T08:50:36Z</time>
      </trkpt>
      <trkpt lat="42.86705" lon="0.26362">
        <ele>1913.8</ele>
        <time>2021-11-18T08:50:54Z</time>
      </trkpt>
      <trkpt lat="42.86704" lon="0.26359">
        <ele>1913.3</ele>
        <time>2021-11-18T08:50:58Z</time>
      </trkpt>
      <trkpt lat="42.86705" lon="0.26357">
        <ele>1913.6</ele>
        <time>2021-11-18T08:51:07Z</time>
      </trkpt>
      <trkpt lat="42.86702" lon="0.26363">
        <ele>1912.6</ele>
        <time>2021-11-18T08:51:16Z</time>
      </trkpt>
      <trkpt lat="42.867" lon="0.26359">
        <ele>1911.7</ele>
        <time>2021-11-18T08:51:21Z</time>
      </trkpt>
      <trkpt lat="42.86706" lon="0.26351">
        <ele>1913.8</ele>
        <time>2021-11-18T08:51:27Z</time>
      </trkpt>
      <trkpt lat="42.86705" lon="0.26358">
        <ele>1913.7</ele>
        <time>2021-11-18T08:51:51Z</time>
      </trkpt>
      <trkpt lat="42.86706" lon="0.26355">
        <ele>1914</ele>
        <time>2021-11-18T08:52:18Z</time>
      </trkpt>
      <trkpt lat="42.86708" lon="0.26354">
        <ele>1914.7</ele>
        <time>2021-11-18T08:52:24Z</time>
      </trkpt>
      <trkpt lat="42.86708" lon="0.26357">
        <ele>1914.9</ele>
        <time>2021-11-18T08:52:34Z</time>
      </trkpt>
      <trkpt lat="42.86706" lon="0.26359">
        <ele>1914.1</ele>
        <time>2021-11-18T08:52:39Z</time>
      </trkpt>
      <trkpt lat="42.86704" lon="0.26356">
        <ele>1913.2</ele>
        <time>2021-11-18T08:52:45Z</time>
      </trkpt>
      <trkpt lat="42.86704" lon="0.26355">
        <ele>1913.2</ele>
        <time>2021-11-18T08:52:58Z</time>
      </trkpt>
      <trkpt lat="42.86702" lon="0.26354">
        <ele>1912.3</ele>
        <time>2021-11-18T08:53:15Z</time>
      </trkpt>
      <trkpt lat="42.86701" lon="0.26353">
        <ele>1911.9</ele>
        <time>2021-11-18T08:53:35Z</time>
      </trkpt>
      <trkpt lat="42.8671" lon="0.26347">
        <ele>1915.2</ele>
        <time>2021-11-18T08:53:42Z</time>
      </trkpt>
      <trkpt lat="42.86712" lon="0.26343">
        <ele>1915.8</ele>
        <time>2021-11-18T08:53:45Z</time>
      </trkpt>
      <trkpt lat="42.86712" lon="0.26339">
        <ele>1915.6</ele>
        <time>2021-11-18T08:53:47Z</time>
      </trkpt>
      <trkpt lat="42.86714" lon="0.26337">
        <ele>1916.2</ele>
        <time>2021-11-18T08:53:50Z</time>
      </trkpt>
      <trkpt lat="42.86715" lon="0.26333">
        <ele>1916.4</ele>
        <time>2021-11-18T08:53:52Z</time>
      </trkpt>
      <trkpt lat="42.86717" lon="0.26327">
        <ele>1917.6</ele>
        <time>2021-11-18T08:53:58Z</time>
      </trkpt>
      <trkpt lat="42.8672" lon="0.26328">
        <ele>1918.6</ele>
        <time>2021-11-18T08:54:01Z</time>
      </trkpt>
      <trkpt lat="42.86722" lon="0.26326">
        <ele>1919.5</ele>
        <time>2021-11-18T08:54:05Z</time>
      </trkpt>
      <trkpt lat="42.86722" lon="0.26323">
        <ele>1919.7</ele>
        <time>2021-11-18T08:54:08Z</time>
      </trkpt>
      <trkpt lat="42.86729" lon="0.26333">
        <ele>1921.5</ele>
        <time>2021-11-18T08:54:24Z</time>
      </trkpt>
      <trkpt lat="42.86731" lon="0.26332">
        <ele>1922.2</ele>
        <time>2021-11-18T08:54:28Z</time>
      </trkpt>
      <trkpt lat="42.86735" lon="0.26329">
        <ele>1923.8</ele>
        <time>2021-11-18T08:54:37Z</time>
      </trkpt>
      <trkpt lat="42.86737" lon="0.2633">
        <ele>1924.5</ele>
        <time>2021-11-18T08:54:42Z</time>
      </trkpt>
      <trkpt lat="42.86739" lon="0.26327">
        <ele>1925.4</ele>
        <time>2021-11-18T08:54:54Z</time>
      </trkpt>
      <trkpt lat="42.86744" lon="0.26324">
        <ele>1927.2</ele>
        <time>2021-11-18T08:55:03Z</time>
      </trkpt>
      <trkpt lat="42.86748" lon="0.26323">
        <ele>1928.7</ele>
        <time>2021-11-18T08:55:10Z</time>
      </trkpt>
      <trkpt lat="42.86748" lon="0.2632">
        <ele>1928.8</ele>
        <time>2021-11-18T08:55:14Z</time>
      </trkpt>
      <trkpt lat="42.86747" lon="0.26318">
        <ele>1928.5</ele>
        <time>2021-11-18T08:55:19Z</time>
      </trkpt>
      <trkpt lat="42.86746" lon="0.26315">
        <ele>1928.3</ele>
        <time>2021-11-18T08:55:26Z</time>
      </trkpt>
      <trkpt lat="42.86747" lon="0.26311">
        <ele>1928.8</ele>
        <time>2021-11-18T08:55:31Z</time>
      </trkpt>
      <trkpt lat="42.86748" lon="0.26308">
        <ele>1929.3</ele>
        <time>2021-11-18T08:55:35Z</time>
      </trkpt>
      <trkpt lat="42.86751" lon="0.26297">
        <ele>1930.8</ele>
        <time>2021-11-18T08:55:51Z</time>
      </trkpt>
      <trkpt lat="42.86751" lon="0.26295">
        <ele>1930.9</ele>
        <time>2021-11-18T08:55:55Z</time>
      </trkpt>
      <trkpt lat="42.86754" lon="0.2629">
        <ele>1932.7</ele>
        <time>2021-11-18T08:56:01Z</time>
      </trkpt>
      <trkpt lat="42.86757" lon="0.26285">
        <ele>1934.5</ele>
        <time>2021-11-18T08:56:06Z</time>
      </trkpt>
      <trkpt lat="42.86757" lon="0.26279">
        <ele>1934.7</ele>
        <time>2021-11-18T08:56:14Z</time>
      </trkpt>
      <trkpt lat="42.86755" lon="0.26277">
        <ele>1933.7</ele>
        <time>2021-11-18T08:56:18Z</time>
      </trkpt>
      <trkpt lat="42.86757" lon="0.26271">
        <ele>1935</ele>
        <time>2021-11-18T08:56:25Z</time>
      </trkpt>
      <trkpt lat="42.86764" lon="0.26264">
        <ele>1938.9</ele>
        <time>2021-11-18T08:56:40Z</time>
      </trkpt>
      <trkpt lat="42.8678" lon="0.26247">
        <ele>1948.4</ele>
        <time>2021-11-18T08:57:12Z</time>
      </trkpt>
      <trkpt lat="42.86782" lon="0.26245">
        <ele>1949.8</ele>
        <time>2021-11-18T08:57:18Z</time>
      </trkpt>
      <trkpt lat="42.86784" lon="0.26243">
        <ele>1951.2</ele>
        <time>2021-11-18T08:57:23Z</time>
      </trkpt>
      <trkpt lat="42.86787" lon="0.2624">
        <ele>1953.3</ele>
        <time>2021-11-18T08:57:29Z</time>
      </trkpt>
      <trkpt lat="42.86789" lon="0.26239">
        <ele>1954.5</ele>
        <time>2021-11-18T08:57:33Z</time>
      </trkpt>
      <trkpt lat="42.86792" lon="0.26238">
        <ele>1956.2</ele>
        <time>2021-11-18T08:57:37Z</time>
      </trkpt>
      <trkpt lat="42.86794" lon="0.26233">
        <ele>1958.1</ele>
        <time>2021-11-18T08:57:45Z</time>
      </trkpt>
      <trkpt lat="42.86803" lon="0.26227">
        <ele>1963.6</ele>
        <time>2021-11-18T08:58:05Z</time>
      </trkpt>
      <trkpt lat="42.86808" lon="0.26223">
        <ele>1966.8</ele>
        <time>2021-11-18T08:58:17Z</time>
      </trkpt>
      <trkpt lat="42.86815" lon="0.26217">
        <ele>1971.2</ele>
        <time>2021-11-18T08:58:30Z</time>
      </trkpt>
      <trkpt lat="42.86818" lon="0.26212">
        <ele>1973.4</ele>
        <time>2021-11-18T08:58:40Z</time>
      </trkpt>
      <trkpt lat="42.8682" lon="0.26209">
        <ele>1974.8</ele>
        <time>2021-11-18T08:58:45Z</time>
      </trkpt>
      <trkpt lat="42.8682" lon="0.26206">
        <ele>1975.3</ele>
        <time>2021-11-18T08:58:52Z</time>
      </trkpt>
      <trkpt lat="42.86829" lon="0.26191">
        <ele>1981.7</ele>
        <time>2021-11-18T08:59:21Z</time>
      </trkpt>
      <trkpt lat="42.86832" lon="0.26191">
        <ele>1983.2</ele>
        <time>2021-11-18T08:59:29Z</time>
      </trkpt>
      <trkpt lat="42.86836" lon="0.26188">
        <ele>1985.3</ele>
        <time>2021-11-18T08:59:37Z</time>
      </trkpt>
      <trkpt lat="42.86837" lon="0.26186">
        <ele>1986</ele>
        <time>2021-11-18T08:59:41Z</time>
      </trkpt>
      <trkpt lat="42.86838" lon="0.26183">
        <ele>1986.8</ele>
        <time>2021-11-18T08:59:49Z</time>
      </trkpt>
      <trkpt lat="42.86837" lon="0.26179">
        <ele>1986.9</ele>
        <time>2021-11-18T08:59:57Z</time>
      </trkpt>
      <trkpt lat="42.86839" lon="0.26177">
        <ele>1987.9</ele>
        <time>2021-11-18T09:00:05Z</time>
      </trkpt>
      <trkpt lat="42.86842" lon="0.26177">
        <ele>1989.1</ele>
        <time>2021-11-18T09:00:25Z</time>
      </trkpt>
      <trkpt lat="42.86844" lon="0.26175">
        <ele>1990.2</ele>
        <time>2021-11-18T09:00:29Z</time>
      </trkpt>
      <trkpt lat="42.86842" lon="0.26173">
        <ele>1989.6</ele>
        <time>2021-11-18T09:00:32Z</time>
      </trkpt>
      <trkpt lat="42.86843" lon="0.26172">
        <ele>1990.1</ele>
        <time>2021-11-18T09:00:46Z</time>
      </trkpt>
      <trkpt lat="42.8684" lon="0.26168">
        <ele>1989.4</ele>
        <time>2021-11-18T09:00:58Z</time>
      </trkpt>
      <trkpt lat="42.8685" lon="0.26156">
        <ele>1995.9</ele>
        <time>2021-11-18T09:01:25Z</time>
      </trkpt>
      <trkpt lat="42.86852" lon="0.26155">
        <ele>1996.9</ele>
        <time>2021-11-18T09:01:30Z</time>
      </trkpt>
      <trkpt lat="42.86854" lon="0.26163">
        <ele>1995.8</ele>
        <time>2021-11-18T09:02:10Z</time>
      </trkpt>
      <trkpt lat="42.86856" lon="0.26164">
        <ele>1996.3</ele>
        <time>2021-11-18T09:03:24Z</time>
      </trkpt>
      <trkpt lat="42.86848" lon="0.2616">
        <ele>1994.2</ele>
        <time>2021-11-18T09:03:43Z</time>
      </trkpt>
      <trkpt lat="42.8685" lon="0.26158">
        <ele>1995.4</ele>
        <time>2021-11-18T09:04:14Z</time>
      </trkpt>
      <trkpt lat="42.86851" lon="0.2616">
        <ele>1995.3</ele>
        <time>2021-11-18T09:04:42Z</time>
      </trkpt>
      <trkpt lat="42.8685" lon="0.26163">
        <ele>1994.2</ele>
        <time>2021-11-18T09:04:57Z</time>
      </trkpt>
      <trkpt lat="42.86843" lon="0.26158">
        <ele>1992.7</ele>
        <time>2021-11-18T09:05:22Z</time>
      </trkpt>
      <trkpt lat="42.86845" lon="0.26153">
        <ele>1994.6</ele>
        <time>2021-11-18T09:05:31Z</time>
      </trkpt>
      <trkpt lat="42.86849" lon="0.26153">
        <ele>1996.2</ele>
        <time>2021-11-18T09:05:32Z</time>
      </trkpt>
      <trkpt lat="42.86856" lon="0.26149">
        <ele>1999.8</ele>
        <time>2021-11-18T09:05:36Z</time>
      </trkpt>
      <trkpt lat="42.8686" lon="0.26148">
        <ele>2001.6</ele>
        <time>2021-11-18T09:05:38Z</time>
      </trkpt>
      <trkpt lat="42.8686" lon="0.26145">
        <ele>2002.3</ele>
        <time>2021-11-18T09:05:41Z</time>
      </trkpt>
      <trkpt lat="42.86861" lon="0.26142">
        <ele>2003.3</ele>
        <time>2021-11-18T09:05:46Z</time>
      </trkpt>
      <trkpt lat="42.86863" lon="0.26143">
        <ele>2003.9</ele>
        <time>2021-11-18T09:05:54Z</time>
      </trkpt>
      <trkpt lat="42.86877" lon="0.26133">
        <ele>2011.7</ele>
        <time>2021-11-18T09:06:26Z</time>
      </trkpt>
      <trkpt lat="42.86877" lon="0.26129">
        <ele>2012.6</ele>
        <time>2021-11-18T09:06:31Z</time>
      </trkpt>
      <trkpt lat="42.86879" lon="0.26123">
        <ele>2014.8</ele>
        <time>2021-11-18T09:06:38Z</time>
      </trkpt>
      <trkpt lat="42.86882" lon="0.26123">
        <ele>2016</ele>
        <time>2021-11-18T09:06:59Z</time>
      </trkpt>
      <trkpt lat="42.86885" lon="0.26121">
        <ele>2017.6</ele>
        <time>2021-11-18T09:07:03Z</time>
      </trkpt>
      <trkpt lat="42.86884" lon="0.26118">
        <ele>2017.9</ele>
        <time>2021-11-18T09:07:07Z</time>
      </trkpt>
      <trkpt lat="42.86885" lon="0.26115">
        <ele>2019</ele>
        <time>2021-11-18T09:07:14Z</time>
      </trkpt>
      <trkpt lat="42.86886" lon="0.26112">
        <ele>2020.1</ele>
        <time>2021-11-18T09:07:18Z</time>
      </trkpt>
      <trkpt lat="42.86897" lon="0.2611">
        <ele>2024.9</ele>
        <time>2021-11-18T09:07:32Z</time>
      </trkpt>
      <trkpt lat="42.86901" lon="0.26107">
        <ele>2027.2</ele>
        <time>2021-11-18T09:07:39Z</time>
      </trkpt>
      <trkpt lat="42.86904" lon="0.26108">
        <ele>2028.1</ele>
        <time>2021-11-18T09:07:45Z</time>
      </trkpt>
      <trkpt lat="42.86905" lon="0.26105">
        <ele>2029.2</ele>
        <time>2021-11-18T09:07:54Z</time>
      </trkpt>
      <trkpt lat="42.86903" lon="0.26097">
        <ele>2030.3</ele>
        <time>2021-11-18T09:08:10Z</time>
      </trkpt>
      <trkpt lat="42.86904" lon="0.26093">
        <ele>2031.7</ele>
        <time>2021-11-18T09:08:13Z</time>
      </trkpt>
      <trkpt lat="42.86906" lon="0.26093">
        <ele>2032.5</ele>
        <time>2021-11-18T09:08:16Z</time>
      </trkpt>
      <trkpt lat="42.86916" lon="0.26093">
        <ele>2036.4</ele>
        <time>2021-11-18T09:08:30Z</time>
      </trkpt>
      <trkpt lat="42.86918" lon="0.26091">
        <ele>2037.5</ele>
        <time>2021-11-18T09:08:35Z</time>
      </trkpt>
      <trkpt lat="42.8692" lon="0.26091">
        <ele>2038</ele>
        <time>2021-11-18T09:08:40Z</time>
      </trkpt>
      <trkpt lat="42.86922" lon="0.26088">
        <ele>2039.1</ele>
        <time>2021-11-18T09:08:56Z</time>
      </trkpt>
      <trkpt lat="42.86924" lon="0.26087">
        <ele>2039.7</ele>
        <time>2021-11-18T09:09:01Z</time>
      </trkpt>
      <trkpt lat="42.86925" lon="0.26084">
        <ele>2040.6</ele>
        <time>2021-11-18T09:09:05Z</time>
      </trkpt>
      <trkpt lat="42.86928" lon="0.26083">
        <ele>2041.4</ele>
        <time>2021-11-18T09:09:09Z</time>
      </trkpt>
      <trkpt lat="42.8693" lon="0.26083">
        <ele>2041.8</ele>
        <time>2021-11-18T09:09:16Z</time>
      </trkpt>
      <trkpt lat="42.86933" lon="0.26077">
        <ele>2044.1</ele>
        <time>2021-11-18T09:09:46Z</time>
      </trkpt>
      <trkpt lat="42.86936" lon="0.26076">
        <ele>2044.9</ele>
        <time>2021-11-18T09:09:50Z</time>
      </trkpt>
      <trkpt lat="42.86944" lon="0.26075">
        <ele>2046.6</ele>
        <time>2021-11-18T09:10:01Z</time>
      </trkpt>
      <trkpt lat="42.86946" lon="0.26073">
        <ele>2047.4</ele>
        <time>2021-11-18T09:10:07Z</time>
      </trkpt>
      <trkpt lat="42.86948" lon="0.26072">
        <ele>2048</ele>
        <time>2021-11-18T09:10:12Z</time>
      </trkpt>
      <trkpt lat="42.86948" lon="0.2607">
        <ele>2048.4</ele>
        <time>2021-11-18T09:10:22Z</time>
      </trkpt>
      <trkpt lat="42.86938" lon="0.26068">
        <ele>2047.3</ele>
        <time>2021-11-18T09:10:57Z</time>
      </trkpt>
      <trkpt lat="42.86945" lon="0.26071">
        <ele>2047.7</ele>
        <time>2021-11-18T09:12:12Z</time>
      </trkpt>
      <trkpt lat="42.86948" lon="0.2607">
        <ele>2048.4</ele>
        <time>2021-11-18T09:12:15Z</time>
      </trkpt>
      <trkpt lat="42.8695" lon="0.26069">
        <ele>2049</ele>
        <time>2021-11-18T09:12:19Z</time>
      </trkpt>
      <trkpt lat="42.86951" lon="0.26071">
        <ele>2048.7</ele>
        <time>2021-11-18T09:12:34Z</time>
      </trkpt>
      <trkpt lat="42.86953" lon="0.26071">
        <ele>2049.1</ele>
        <time>2021-11-18T09:12:37Z</time>
      </trkpt>
      <trkpt lat="42.86954" lon="0.26067">
        <ele>2050.1</ele>
        <time>2021-11-18T09:12:42Z</time>
      </trkpt>
      <trkpt lat="42.8696" lon="0.26061">
        <ele>2052.1</ele>
        <time>2021-11-18T09:12:54Z</time>
      </trkpt>
      <trkpt lat="42.86961" lon="0.26058">
        <ele>2052.9</ele>
        <time>2021-11-18T09:13:01Z</time>
      </trkpt>
      <trkpt lat="42.86963" lon="0.26056">
        <ele>2053.5</ele>
        <time>2021-11-18T09:13:07Z</time>
      </trkpt>
      <trkpt lat="42.86963" lon="0.26053">
        <ele>2054</ele>
        <time>2021-11-18T09:13:14Z</time>
      </trkpt>
      <trkpt lat="42.86965" lon="0.26051">
        <ele>2054.6</ele>
        <time>2021-11-18T09:13:18Z</time>
      </trkpt>
      <trkpt lat="42.86968" lon="0.2605">
        <ele>2055.1</ele>
        <time>2021-11-18T09:13:23Z</time>
      </trkpt>
      <trkpt lat="42.8697" lon="0.26048">
        <ele>2055.6</ele>
        <time>2021-11-18T09:13:30Z</time>
      </trkpt>
      <trkpt lat="42.86975" lon="0.26046">
        <ele>2056.4</ele>
        <time>2021-11-18T09:13:37Z</time>
      </trkpt>
      <trkpt lat="42.86978" lon="0.26041">
        <ele>2057.4</ele>
        <time>2021-11-18T09:13:45Z</time>
      </trkpt>
      <trkpt lat="42.86979" lon="0.26037">
        <ele>2058</ele>
        <time>2021-11-18T09:13:49Z</time>
      </trkpt>
      <trkpt lat="42.86981" lon="0.26038">
        <ele>2058</ele>
        <time>2021-11-18T09:13:52Z</time>
      </trkpt>
      <trkpt lat="42.86988" lon="0.26036">
        <ele>2058.7</ele>
        <time>2021-11-18T09:14:23Z</time>
      </trkpt>
      <trkpt lat="42.86988" lon="0.26033">
        <ele>2059</ele>
        <time>2021-11-18T09:14:27Z</time>
      </trkpt>
      <trkpt lat="42.8699" lon="0.26033">
        <ele>2059.1</ele>
        <time>2021-11-18T09:14:33Z</time>
      </trkpt>
      <trkpt lat="42.86992" lon="0.26019">
        <ele>2060.6</ele>
        <time>2021-11-18T09:14:58Z</time>
      </trkpt>
      <trkpt lat="42.86995" lon="0.26018">
        <ele>2060.7</ele>
        <time>2021-11-18T09:15:02Z</time>
      </trkpt>
      <trkpt lat="42.86997" lon="0.26019">
        <ele>2060.6</ele>
        <time>2021-11-18T09:15:05Z</time>
      </trkpt>
      <trkpt lat="42.86999" lon="0.26021">
        <ele>2060.5</ele>
        <time>2021-11-18T09:15:09Z</time>
      </trkpt>
      <trkpt lat="42.87004" lon="0.26021">
        <ele>2061.8</ele>
        <time>2021-11-18T09:15:19Z</time>
      </trkpt>
      <trkpt lat="42.87005" lon="0.26019">
        <ele>2062.2</ele>
        <time>2021-11-18T09:15:25Z</time>
      </trkpt>
      <trkpt lat="42.87007" lon="0.26017">
        <ele>2063</ele>
        <time>2021-11-18T09:15:30Z</time>
      </trkpt>
      <trkpt lat="42.8701" lon="0.26019">
        <ele>2063.8</ele>
        <time>2021-11-18T09:15:35Z</time>
      </trkpt>
      <trkpt lat="42.87012" lon="0.2602">
        <ele>2064.4</ele>
        <time>2021-11-18T09:15:40Z</time>
      </trkpt>
      <trkpt lat="42.87014" lon="0.26019">
        <ele>2065.1</ele>
        <time>2021-11-18T09:15:46Z</time>
      </trkpt>
      <trkpt lat="42.87016" lon="0.26019">
        <ele>2065.7</ele>
        <time>2021-11-18T09:15:54Z</time>
      </trkpt>
      <trkpt lat="42.87019" lon="0.26017">
        <ele>2066.7</ele>
        <time>2021-11-18T09:16:15Z</time>
      </trkpt>
      <trkpt lat="42.87018" lon="0.26014">
        <ele>2066.4</ele>
        <time>2021-11-18T09:16:19Z</time>
      </trkpt>
      <trkpt lat="42.87022" lon="0.26015">
        <ele>2067.6</ele>
        <time>2021-11-18T09:16:40Z</time>
      </trkpt>
      <trkpt lat="42.87024" lon="0.26018">
        <ele>2068.2</ele>
        <time>2021-11-18T09:16:47Z</time>
      </trkpt>
      <trkpt lat="42.87026" lon="0.26018">
        <ele>2068.9</ele>
        <time>2021-11-18T09:17:04Z</time>
      </trkpt>
      <trkpt lat="42.87029" lon="0.26017">
        <ele>2069.8</ele>
        <time>2021-11-18T09:17:11Z</time>
      </trkpt>
      <trkpt lat="42.87032" lon="0.26016">
        <ele>2070.7</ele>
        <time>2021-11-18T09:17:15Z</time>
      </trkpt>
      <trkpt lat="42.87033" lon="0.26013">
        <ele>2070.9</ele>
        <time>2021-11-18T09:17:19Z</time>
      </trkpt>
      <trkpt lat="42.87033" lon="0.26005">
        <ele>2070.5</ele>
        <time>2021-11-18T09:17:31Z</time>
      </trkpt>
      <trkpt lat="42.87036" lon="0.26005">
        <ele>2071.3</ele>
        <time>2021-11-18T09:17:37Z</time>
      </trkpt>
      <trkpt lat="42.87042" lon="0.26004">
        <ele>2072.9</ele>
        <time>2021-11-18T09:17:45Z</time>
      </trkpt>
      <trkpt lat="42.87045" lon="0.25999">
        <ele>2073.8</ele>
        <time>2021-11-18T09:17:52Z</time>
      </trkpt>
      <trkpt lat="42.87047" lon="0.25995">
        <ele>2076</ele>
        <time>2021-11-18T09:18:02Z</time>
      </trkpt>
      <trkpt lat="42.87046" lon="0.25991">
        <ele>2077.5</ele>
        <time>2021-11-18T09:18:07Z</time>
      </trkpt>
      <trkpt lat="42.87048" lon="0.25987">
        <ele>2079.5</ele>
        <time>2021-11-18T09:18:13Z</time>
      </trkpt>
      <trkpt lat="42.87056" lon="0.25983">
        <ele>2082.4</ele>
        <time>2021-11-18T09:18:24Z</time>
      </trkpt>
      <trkpt lat="42.87057" lon="0.25981">
        <ele>2083.3</ele>
        <time>2021-11-18T09:18:39Z</time>
      </trkpt>
      <trkpt lat="42.87055" lon="0.25979">
        <ele>2083.7</ele>
        <time>2021-11-18T09:18:45Z</time>
      </trkpt>
      <trkpt lat="42.87052" lon="0.25983">
        <ele>2081.8</ele>
        <time>2021-11-18T09:18:52Z</time>
      </trkpt>
      <trkpt lat="42.87052" lon="0.25988">
        <ele>2079.8</ele>
        <time>2021-11-18T09:18:58Z</time>
      </trkpt>
      <trkpt lat="42.87053" lon="0.25986">
        <ele>2080.8</ele>
        <time>2021-11-18T09:19:43Z</time>
      </trkpt>
      <trkpt lat="42.87057" lon="0.25981">
        <ele>2083.3</ele>
        <time>2021-11-18T09:20:18Z</time>
      </trkpt>
      <trkpt lat="42.87059" lon="0.25984">
        <ele>2082.5</ele>
        <time>2021-11-18T09:20:21Z</time>
      </trkpt>
      <trkpt lat="42.87066" lon="0.25993">
        <ele>2080.8</ele>
        <time>2021-11-18T09:20:30Z</time>
      </trkpt>
      <trkpt lat="42.87068" lon="0.25995">
        <ele>2080.6</ele>
        <time>2021-11-18T09:20:36Z</time>
      </trkpt>
      <trkpt lat="42.87068" lon="0.25992">
        <ele>2081.5</ele>
        <time>2021-11-18T09:20:45Z</time>
      </trkpt>
      <trkpt lat="42.87071" lon="0.25991">
        <ele>2082.4</ele>
        <time>2021-11-18T09:21:00Z</time>
      </trkpt>
      <trkpt lat="42.87076" lon="0.25986">
        <ele>2084.6</ele>
        <time>2021-11-18T09:21:11Z</time>
      </trkpt>
      <trkpt lat="42.87081" lon="0.25985">
        <ele>2085.7</ele>
        <time>2021-11-18T09:21:21Z</time>
      </trkpt>
      <trkpt lat="42.87083" lon="0.25982">
        <ele>2086.6</ele>
        <time>2021-11-18T09:21:27Z</time>
      </trkpt>
      <trkpt lat="42.87085" lon="0.25984">
        <ele>2087.1</ele>
        <time>2021-11-18T09:21:31Z</time>
      </trkpt>
      <trkpt lat="42.87089" lon="0.2599">
        <ele>2087.8</ele>
        <time>2021-11-18T09:21:43Z</time>
      </trkpt>
      <trkpt lat="42.87089" lon="0.25996">
        <ele>2086.5</ele>
        <time>2021-11-18T09:21:49Z</time>
      </trkpt>
      <trkpt lat="42.87092" lon="0.25997">
        <ele>2087.6</ele>
        <time>2021-11-18T09:21:58Z</time>
      </trkpt>
      <trkpt lat="42.87093" lon="0.25993">
        <ele>2089</ele>
        <time>2021-11-18T09:22:02Z</time>
      </trkpt>
      <trkpt lat="42.87102" lon="0.25987">
        <ele>2094.8</ele>
        <time>2021-11-18T09:22:21Z</time>
      </trkpt>
      <trkpt lat="42.87105" lon="0.25983">
        <ele>2097.4</ele>
        <time>2021-11-18T09:22:30Z</time>
      </trkpt>
      <trkpt lat="42.87109" lon="0.25983">
        <ele>2099.4</ele>
        <time>2021-11-18T09:22:51Z</time>
      </trkpt>
      <trkpt lat="42.87112" lon="0.25982">
        <ele>2101.2</ele>
        <time>2021-11-18T09:22:56Z</time>
      </trkpt>
      <trkpt lat="42.87113" lon="0.2598">
        <ele>2102.2</ele>
        <time>2021-11-18T09:23:04Z</time>
      </trkpt>
      <trkpt lat="42.87115" lon="0.25983">
        <ele>2102.4</ele>
        <time>2021-11-18T09:23:13Z</time>
      </trkpt>
      <trkpt lat="42.87121" lon="0.25987">
        <ele>2104.2</ele>
        <time>2021-11-18T09:23:30Z</time>
      </trkpt>
      <trkpt lat="42.87121" lon="0.2599">
        <ele>2103.2</ele>
        <time>2021-11-18T09:23:34Z</time>
      </trkpt>
      <trkpt lat="42.87126" lon="0.25992">
        <ele>2105</ele>
        <time>2021-11-18T09:23:54Z</time>
      </trkpt>
      <trkpt lat="42.8713" lon="0.25988">
        <ele>2108.3</ele>
        <time>2021-11-18T09:24:02Z</time>
      </trkpt>
      <trkpt lat="42.87134" lon="0.25991">
        <ele>2109.2</ele>
        <time>2021-11-18T09:24:11Z</time>
      </trkpt>
      <trkpt lat="42.87139" lon="0.25987">
        <ele>2113</ele>
        <time>2021-11-18T09:29:10Z</time>
      </trkpt>
      <trkpt lat="42.87136" lon="0.2599">
        <ele>2110.5</ele>
        <time>2021-11-18T09:29:13Z</time>
      </trkpt>
      <trkpt lat="42.87137" lon="0.26">
        <ele>2107.5</ele>
        <time>2021-11-18T09:30:24Z</time>
      </trkpt>
      <trkpt lat="42.87137" lon="0.26003">
        <ele>2108.6</ele>
        <time>2021-11-18T09:30:29Z</time>
      </trkpt>
      <trkpt lat="42.87137" lon="0.26006">
        <ele>2109.7</ele>
        <time>2021-11-18T09:30:36Z</time>
      </trkpt>
      <trkpt lat="42.87143" lon="0.2601">
        <ele>2114.2</ele>
        <time>2021-11-18T09:30:56Z</time>
      </trkpt>
      <trkpt lat="42.87144" lon="0.26016">
        <ele>2117.1</ele>
        <time>2021-11-18T09:31:01Z</time>
      </trkpt>
      <trkpt lat="42.87146" lon="0.26017">
        <ele>2118.5</ele>
        <time>2021-11-18T09:31:08Z</time>
      </trkpt>
      <trkpt lat="42.87148" lon="0.26014">
        <ele>2118.2</ele>
        <time>2021-11-18T09:31:13Z</time>
      </trkpt>
      <trkpt lat="42.87151" lon="0.26011">
        <ele>2118.5</ele>
        <time>2021-11-18T09:31:18Z</time>
      </trkpt>
      <trkpt lat="42.87153" lon="0.2601">
        <ele>2119</ele>
        <time>2021-11-18T09:31:22Z</time>
      </trkpt>
      <trkpt lat="42.87156" lon="0.26005">
        <ele>2118.3</ele>
        <time>2021-11-18T09:31:38Z</time>
      </trkpt>
      <trkpt lat="42.87161" lon="0.26016">
        <ele>2125.6</ele>
        <time>2021-11-18T09:32:00Z</time>
      </trkpt>
      <trkpt lat="42.87162" lon="0.26018">
        <ele>2127</ele>
        <time>2021-11-18T09:32:06Z</time>
      </trkpt>
      <trkpt lat="42.87162" lon="0.26021">
        <ele>2128.4</ele>
        <time>2021-11-18T09:32:15Z</time>
      </trkpt>
      <trkpt lat="42.87161" lon="0.26021">
        <ele>2127.9</ele>
        <time>2021-11-18T09:32:39Z</time>
      </trkpt>
      <trkpt lat="42.87158" lon="0.26023">
        <ele>2127.2</ele>
        <time>2021-11-18T09:32:44Z</time>
      </trkpt>
      <trkpt lat="42.87157" lon="0.26025">
        <ele>2127.6</ele>
        <time>2021-11-18T09:32:48Z</time>
      </trkpt>
      <trkpt lat="42.87155" lon="0.26028">
        <ele>2127.8</ele>
        <time>2021-11-18T09:33:22Z</time>
      </trkpt>
      <trkpt lat="42.87154" lon="0.2603">
        <ele>2128.1</ele>
        <time>2021-11-18T09:33:26Z</time>
      </trkpt>
      <trkpt lat="42.87153" lon="0.26032">
        <ele>2128.4</ele>
        <time>2021-11-18T09:33:34Z</time>
      </trkpt>
      <trkpt lat="42.87152" lon="0.26041">
        <ele>2131.7</ele>
        <time>2021-11-18T09:33:50Z</time>
      </trkpt>
      <trkpt lat="42.8715" lon="0.26048">
        <ele>2133.4</ele>
        <time>2021-11-18T09:34:28Z</time>
      </trkpt>
      <trkpt lat="42.87151" lon="0.26051">
        <ele>2135.3</ele>
        <time>2021-11-18T09:35:06Z</time>
      </trkpt>
      <trkpt lat="42.87147" lon="0.26059">
        <ele>2136.1</ele>
        <time>2021-11-18T09:35:36Z</time>
      </trkpt>
      <trkpt lat="42.87148" lon="0.26061">
        <ele>2137.6</ele>
        <time>2021-11-18T09:36:58Z</time>
      </trkpt>
      <trkpt lat="42.87146" lon="0.26066">
        <ele>2138.3</ele>
        <time>2021-11-18T09:36:59Z</time>
      </trkpt>
      <trkpt lat="42.87153" lon="0.26061">
        <ele>2140.8</ele>
        <time>2021-11-18T09:37:28Z</time>
      </trkpt>
      <trkpt lat="42.8716" lon="0.26064">
        <ele>2146.6</ele>
        <time>2021-11-18T09:37:40Z</time>
      </trkpt>
      <trkpt lat="42.87157" lon="0.26065">
        <ele>2145.1</ele>
        <time>2021-11-18T09:37:53Z</time>
      </trkpt>
      <trkpt lat="42.87155" lon="0.26073">
        <ele>2147.3</ele>
        <time>2021-11-18T09:38:33Z</time>
      </trkpt>
      <trkpt lat="42.87159" lon="0.2608">
        <ele>2153.1</ele>
        <time>2021-11-18T09:39:17Z</time>
      </trkpt>
      <trkpt lat="42.87159" lon="0.26075">
        <ele>2150.9</ele>
        <time>2021-11-18T09:39:20Z</time>
      </trkpt>
      <trkpt lat="42.87154" lon="0.26076">
        <ele>2147.9</ele>
        <time>2021-11-18T09:39:31Z</time>
      </trkpt>
      <trkpt lat="42.87153" lon="0.2607">
        <ele>2144.6</ele>
        <time>2021-11-18T09:39:56Z</time>
      </trkpt>
      <trkpt lat="42.87155" lon="0.26068">
        <ele>2145.1</ele>
        <time>2021-11-18T09:41:15Z</time>
      </trkpt>
      <trkpt lat="42.87158" lon="0.26068">
        <ele>2147.1</ele>
        <time>2021-11-18T09:41:34Z</time>
      </trkpt>
      <trkpt lat="42.87158" lon="0.2607">
        <ele>2148</ele>
        <time>2021-11-18T09:41:44Z</time>
      </trkpt>
      <trkpt lat="42.87158" lon="0.26069">
        <ele>2147.5</ele>
        <time>2021-11-18T09:42:02Z</time>
      </trkpt>
      <trkpt lat="42.87156" lon="0.26072">
        <ele>2147.5</ele>
        <time>2021-11-18T09:42:09Z</time>
      </trkpt>
      <trkpt lat="42.87154" lon="0.26074">
        <ele>2147</ele>
        <time>2021-11-18T09:42:18Z</time>
      </trkpt>
      <trkpt lat="42.87154" lon="0.2607">
        <ele>2145.3</ele>
        <time>2021-11-18T09:42:27Z</time>
      </trkpt>
      <trkpt lat="42.87156" lon="0.26072">
        <ele>2147.5</ele>
        <time>2021-11-18T09:42:29Z</time>
      </trkpt>
      <trkpt lat="42.87157" lon="0.26072">
        <ele>2148.2</ele>
        <time>2021-11-18T09:43:14Z</time>
      </trkpt>
      <trkpt lat="42.87159" lon="0.2607">
        <ele>2148.6</ele>
        <time>2021-11-18T09:43:19Z</time>
      </trkpt>
      <trkpt lat="42.87161" lon="0.26073">
        <ele>2151.3</ele>
        <time>2021-11-18T09:43:42Z</time>
      </trkpt>
      <trkpt lat="42.87158" lon="0.26074">
        <ele>2149.7</ele>
        <time>2021-11-18T09:43:50Z</time>
      </trkpt>
      <trkpt lat="42.87155" lon="0.2608">
        <ele>2150.3</ele>
        <time>2021-11-18T09:43:56Z</time>
      </trkpt>
      <trkpt lat="42.87153" lon="0.26082">
        <ele>2149.8</ele>
        <time>2021-11-18T09:44:03Z</time>
      </trkpt>
      <trkpt lat="42.87153" lon="0.26085">
        <ele>2150.9</ele>
        <time>2021-11-18T09:44:12Z</time>
      </trkpt>
      <trkpt lat="42.87159" lon="0.26095">
        <ele>2159</ele>
        <time>2021-11-18T09:45:20Z</time>
      </trkpt>
      <trkpt lat="42.87164" lon="0.26093">
        <ele>2161.8</ele>
        <time>2021-11-18T09:45:47Z</time>
      </trkpt>
      <trkpt lat="42.87167" lon="0.26094">
        <ele>2164.3</ele>
        <time>2021-11-18T09:45:52Z</time>
      </trkpt>
      <trkpt lat="42.87168" lon="0.26098">
        <ele>2166.6</ele>
        <time>2021-11-18T09:46:21Z</time>
      </trkpt>
      <trkpt lat="42.87166" lon="0.261">
        <ele>2165.9</ele>
        <time>2021-11-18T09:46:34Z</time>
      </trkpt>
      <trkpt lat="42.87163" lon="0.26099">
        <ele>2163.4</ele>
        <time>2021-11-18T09:46:44Z</time>
      </trkpt>
      <trkpt lat="42.87161" lon="0.26099">
        <ele>2161.9</ele>
        <time>2021-11-18T09:46:53Z</time>
      </trkpt>
      <trkpt lat="42.87158" lon="0.26108">
        <ele>2163.2</ele>
        <time>2021-11-18T09:47:23Z</time>
      </trkpt>
      <trkpt lat="42.87156" lon="0.26109">
        <ele>2162.1</ele>
        <time>2021-11-18T09:47:27Z</time>
      </trkpt>
      <trkpt lat="42.87153" lon="0.26114">
        <ele>2161.8</ele>
        <time>2021-11-18T09:47:34Z</time>
      </trkpt>
      <trkpt lat="42.87153" lon="0.26117">
        <ele>2162.9</ele>
        <time>2021-11-18T09:47:36Z</time>
      </trkpt>
      <trkpt lat="42.87151" lon="0.26119">
        <ele>2162.2</ele>
        <time>2021-11-18T09:47:43Z</time>
      </trkpt>
      <trkpt lat="42.87149" lon="0.2612">
        <ele>2161.1</ele>
        <time>2021-11-18T09:47:50Z</time>
      </trkpt>
      <trkpt lat="42.87148" lon="0.26126">
        <ele>2162.6</ele>
        <time>2021-11-18T09:48:03Z</time>
      </trkpt>
      <trkpt lat="42.87146" lon="0.26124">
        <ele>2160.4</ele>
        <time>2021-11-18T09:49:16Z</time>
      </trkpt>
      <trkpt lat="42.87146" lon="0.26138">
        <ele>2165.5</ele>
        <time>2021-11-18T09:49:33Z</time>
      </trkpt>
      <trkpt lat="42.87146" lon="0.26142">
        <ele>2167</ele>
        <time>2021-11-18T09:49:37Z</time>
      </trkpt>
      <trkpt lat="42.87147" lon="0.26145">
        <ele>2168.9</ele>
        <time>2021-11-18T09:49:41Z</time>
      </trkpt>
      <trkpt lat="42.87149" lon="0.26147">
        <ele>2171.1</ele>
        <time>2021-11-18T09:49:47Z</time>
      </trkpt>
      <trkpt lat="42.87148" lon="0.26151">
        <ele>2171.9</ele>
        <time>2021-11-18T09:49:51Z</time>
      </trkpt>
      <trkpt lat="42.87147" lon="0.26154">
        <ele>2172.2</ele>
        <time>2021-11-18T09:49:54Z</time>
      </trkpt>
      <trkpt lat="42.87148" lon="0.26155">
        <ele>2173.3</ele>
        <time>2021-11-18T09:50:10Z</time>
      </trkpt>
      <trkpt lat="42.87148" lon="0.26156">
        <ele>2173.7</ele>
        <time>2021-11-18T09:50:27Z</time>
      </trkpt>
      <trkpt lat="42.87148" lon="0.2616">
        <ele>2175.2</ele>
        <time>2021-11-18T09:50:32Z</time>
      </trkpt>
      <trkpt lat="42.87147" lon="0.26163">
        <ele>2175.5</ele>
        <time>2021-11-18T09:50:41Z</time>
      </trkpt>
      <trkpt lat="42.87148" lon="0.26166">
        <ele>2177.4</ele>
        <time>2021-11-18T09:50:47Z</time>
      </trkpt>
      <trkpt lat="42.87148" lon="0.2617">
        <ele>2178.8</ele>
        <time>2021-11-18T09:50:53Z</time>
      </trkpt>
      <trkpt lat="42.8715" lon="0.26175">
        <ele>2182.1</ele>
        <time>2021-11-18T09:51:37Z</time>
      </trkpt>
      <trkpt lat="42.87153" lon="0.26175">
        <ele>2184.4</ele>
        <time>2021-11-18T09:51:51Z</time>
      </trkpt>
      <trkpt lat="42.87154" lon="0.26179">
        <ele>2186.6</ele>
        <time>2021-11-18T09:51:57Z</time>
      </trkpt>
      <trkpt lat="42.87153" lon="0.26184">
        <ele>2187.6</ele>
        <time>2021-11-18T09:52:31Z</time>
      </trkpt>
      <trkpt lat="42.87153" lon="0.26187">
        <ele>2188.6</ele>
        <time>2021-11-18T09:52:53Z</time>
      </trkpt>
      <trkpt lat="42.8715" lon="0.26189">
        <ele>2187</ele>
        <time>2021-11-18T09:53:04Z</time>
      </trkpt>
      <trkpt lat="42.87147" lon="0.26195">
        <ele>2186.8</ele>
        <time>2021-11-18T09:53:20Z</time>
      </trkpt>
      <trkpt lat="42.87143" lon="0.262">
        <ele>2185.5</ele>
        <time>2021-11-18T09:53:44Z</time>
      </trkpt>
      <trkpt lat="42.87141" lon="0.26206">
        <ele>2186.1</ele>
        <time>2021-11-18T09:53:53Z</time>
      </trkpt>
      <trkpt lat="42.8714" lon="0.26207">
        <ele>2185.7</ele>
        <time>2021-11-18T09:53:59Z</time>
      </trkpt>
      <trkpt lat="42.87137" lon="0.26206">
        <ele>2183.1</ele>
        <time>2021-11-18T09:54:17Z</time>
      </trkpt>
      <trkpt lat="42.87135" lon="0.2621">
        <ele>2183</ele>
        <time>2021-11-18T09:54:29Z</time>
      </trkpt>
      <trkpt lat="42.87138" lon="0.26211">
        <ele>2185.6</ele>
        <time>2021-11-18T09:54:32Z</time>
      </trkpt>
      <trkpt lat="42.8714" lon="0.26212">
        <ele>2187.5</ele>
        <time>2021-11-18T09:54:36Z</time>
      </trkpt>
      <trkpt lat="42.87142" lon="0.26213">
        <ele>2189.3</ele>
        <time>2021-11-18T09:54:40Z</time>
      </trkpt>
      <trkpt lat="42.87147" lon="0.26212">
        <ele>2192.8</ele>
        <time>2021-11-18T09:54:54Z</time>
      </trkpt>
      <trkpt lat="42.8715" lon="0.26214">
        <ele>2195.8</ele>
        <time>2021-11-18T09:54:59Z</time>
      </trkpt>
      <trkpt lat="42.87151" lon="0.26211">
        <ele>2195.5</ele>
        <time>2021-11-18T09:55:03Z</time>
      </trkpt>
      <trkpt lat="42.87153" lon="0.26211">
        <ele>2197</ele>
        <time>2021-11-18T09:55:13Z</time>
      </trkpt>
      <trkpt lat="42.87157" lon="0.26211">
        <ele>2200.1</ele>
        <time>2021-11-18T09:55:21Z</time>
      </trkpt>
      <trkpt lat="42.8716" lon="0.26212">
        <ele>2202.7</ele>
        <time>2021-11-18T09:55:32Z</time>
      </trkpt>
      <trkpt lat="42.87159" lon="0.26217">
        <ele>2203.7</ele>
        <time>2021-11-18T09:56:07Z</time>
      </trkpt>
      <trkpt lat="42.87162" lon="0.26218">
        <ele>2206.3</ele>
        <time>2021-11-18T09:56:28Z</time>
      </trkpt>
      <trkpt lat="42.87166" lon="0.26214">
        <ele>2208</ele>
        <time>2021-11-18T09:56:39Z</time>
      </trkpt>
      <trkpt lat="42.87168" lon="0.26213">
        <ele>2209.1</ele>
        <time>2021-11-18T09:56:42Z</time>
      </trkpt>
      <trkpt lat="42.87176" lon="0.26215">
        <ele>2215.6</ele>
        <time>2021-11-18T09:57:03Z</time>
      </trkpt>
      <trkpt lat="42.87179" lon="0.26217">
        <ele>2218.4</ele>
        <time>2021-11-18T09:57:08Z</time>
      </trkpt>
      <trkpt lat="42.87179" lon="0.2622">
        <ele>2219.4</ele>
        <time>2021-11-18T09:57:12Z</time>
      </trkpt>
      <trkpt lat="42.87179" lon="0.26223">
        <ele>2220.4</ele>
        <time>2021-11-18T09:57:16Z</time>
      </trkpt>
      <trkpt lat="42.87177" lon="0.26225">
        <ele>2219.7</ele>
        <time>2021-11-18T09:57:21Z</time>
      </trkpt>
      <trkpt lat="42.87177" lon="0.26228">
        <ele>2220.7</ele>
        <time>2021-11-18T09:57:29Z</time>
      </trkpt>
      <trkpt lat="42.87175" lon="0.26231">
        <ele>2220.3</ele>
        <time>2021-11-18T09:57:36Z</time>
      </trkpt>
      <trkpt lat="42.87175" lon="0.26234">
        <ele>2221.3</ele>
        <time>2021-11-18T09:57:42Z</time>
      </trkpt>
      <trkpt lat="42.87179" lon="0.26244">
        <ele>2227.4</ele>
        <time>2021-11-18T09:58:20Z</time>
      </trkpt>
      <trkpt lat="42.8718" lon="0.26247">
        <ele>2229.1</ele>
        <time>2021-11-18T09:58:27Z</time>
      </trkpt>
      <trkpt lat="42.87183" lon="0.2625">
        <ele>2232.2</ele>
        <time>2021-11-18T09:58:40Z</time>
      </trkpt>
      <trkpt lat="42.87189" lon="0.26263">
        <ele>2237.6</ele>
        <time>2021-11-18T09:59:28Z</time>
      </trkpt>
      <trkpt lat="42.87189" lon="0.26266">
        <ele>2237.9</ele>
        <time>2021-11-18T09:59:33Z</time>
      </trkpt>
      <trkpt lat="42.87196" lon="0.26275">
        <ele>2243.4</ele>
        <time>2021-11-18T10:00:03Z</time>
      </trkpt>
      <trkpt lat="42.87198" lon="0.26284">
        <ele>2245.6</ele>
        <time>2021-11-18T10:00:20Z</time>
      </trkpt>
      <trkpt lat="42.87199" lon="0.26296">
        <ele>2247.4</ele>
        <time>2021-11-18T10:00:37Z</time>
      </trkpt>
      <trkpt lat="42.87201" lon="0.26302">
        <ele>2249.2</ele>
        <time>2021-11-18T10:00:50Z</time>
      </trkpt>
      <trkpt lat="42.87204" lon="0.26297">
        <ele>2250.7</ele>
        <time>2021-11-18T10:05:10Z</time>
      </trkpt>
      <trkpt lat="42.87205" lon="0.26298">
        <ele>2251.4</ele>
        <time>2021-11-18T10:05:48Z</time>
      </trkpt>
      <trkpt lat="42.87207" lon="0.26299">
        <ele>2252.8</ele>
        <time>2021-11-18T10:10:41Z</time>
      </trkpt>
      <trkpt lat="42.87204" lon="0.26301">
        <ele>2251</ele>
        <time>2021-11-18T10:12:08Z</time>
      </trkpt>
      <trkpt lat="42.87206" lon="0.26303">
        <ele>2252.5</ele>
        <time>2021-11-18T10:13:38Z</time>
      </trkpt>
      <trkpt lat="42.87205" lon="0.26308">
        <ele>2252.3</ele>
        <time>2021-11-18T10:13:44Z</time>
      </trkpt>
      <trkpt lat="42.87208" lon="0.26308">
        <ele>2254.2</ele>
        <time>2021-11-18T10:13:52Z</time>
      </trkpt>
      <trkpt lat="42.87207" lon="0.26304">
        <ele>2253.2</ele>
        <time>2021-11-18T10:14:06Z</time>
      </trkpt>
      <trkpt lat="42.87205" lon="0.26303">
        <ele>2251.8</ele>
        <time>2021-11-18T10:14:09Z</time>
      </trkpt>
      <trkpt lat="42.87203" lon="0.26302">
        <ele>2250.5</ele>
        <time>2021-11-18T10:14:27Z</time>
      </trkpt>
      <trkpt lat="42.87203" lon="0.26299">
        <ele>2250.2</ele>
        <time>2021-11-18T10:14:48Z</time>
      </trkpt>
      <trkpt lat="42.87201" lon="0.26308">
        <ele>2249.7</ele>
        <time>2021-11-18T10:15:51Z</time>
      </trkpt>
      <trkpt lat="42.872" lon="0.26311">
        <ele>2249.4</ele>
        <time>2021-11-18T10:15:54Z</time>
      </trkpt>
      <trkpt lat="42.87199" lon="0.26316">
        <ele>2249.2</ele>
        <time>2021-11-18T10:16:03Z</time>
      </trkpt>
      <trkpt lat="42.87201" lon="0.26322">
        <ele>2251</ele>
        <time>2021-11-18T10:16:12Z</time>
      </trkpt>
      <trkpt lat="42.87202" lon="0.2633">
        <ele>2252.3</ele>
        <time>2021-11-18T10:16:24Z</time>
      </trkpt>
      <trkpt lat="42.87205" lon="0.26337">
        <ele>2254.9</ele>
        <time>2021-11-18T10:16:35Z</time>
      </trkpt>
      <trkpt lat="42.87205" lon="0.2634">
        <ele>2255.2</ele>
        <time>2021-11-18T10:16:39Z</time>
      </trkpt>
      <trkpt lat="42.87207" lon="0.26342">
        <ele>2256.6</ele>
        <time>2021-11-18T10:16:49Z</time>
      </trkpt>
      <trkpt lat="42.87207" lon="0.26345">
        <ele>2257</ele>
        <time>2021-11-18T10:16:54Z</time>
      </trkpt>
      <trkpt lat="42.87206" lon="0.26352">
        <ele>2257.1</ele>
        <time>2021-11-18T10:17:02Z</time>
      </trkpt>
      <trkpt lat="42.8721" lon="0.2635">
        <ele>2259.3</ele>
        <time>2021-11-18T10:17:15Z</time>
      </trkpt>
      <trkpt lat="42.87211" lon="0.26357">
        <ele>2260.6</ele>
        <time>2021-11-18T10:17:35Z</time>
      </trkpt>
      <trkpt lat="42.87212" lon="0.2636">
        <ele>2261.5</ele>
        <time>2021-11-18T10:17:38Z</time>
      </trkpt>
      <trkpt lat="42.87212" lon="0.26364">
        <ele>2262</ele>
        <time>2021-11-18T10:17:41Z</time>
      </trkpt>
      <trkpt lat="42.87211" lon="0.26367">
        <ele>2261.7</ele>
        <time>2021-11-18T10:17:46Z</time>
      </trkpt>
      <trkpt lat="42.87212" lon="0.26371">
        <ele>2262.7</ele>
        <time>2021-11-18T10:17:51Z</time>
      </trkpt>
      <trkpt lat="42.8722" lon="0.26378">
        <ele>2268</ele>
        <time>2021-11-18T10:18:50Z</time>
      </trkpt>
      <trkpt lat="42.8722" lon="0.26381">
        <ele>2268.3</ele>
        <time>2021-11-18T10:18:54Z</time>
      </trkpt>
      <trkpt lat="42.87222" lon="0.26384">
        <ele>2269.7</ele>
        <time>2021-11-18T10:19:12Z</time>
      </trkpt>
      <trkpt lat="42.87225" lon="0.26387">
        <ele>2271.7</ele>
        <time>2021-11-18T10:19:21Z</time>
      </trkpt>
      <trkpt lat="42.87228" lon="0.26394">
        <ele>2274.1</ele>
        <time>2021-11-18T10:19:51Z</time>
      </trkpt>
      <trkpt lat="42.87226" lon="0.26397">
        <ele>2273.2</ele>
        <time>2021-11-18T10:19:56Z</time>
      </trkpt>
      <trkpt lat="42.87226" lon="0.26405">
        <ele>2274</ele>
        <time>2021-11-18T10:20:04Z</time>
      </trkpt>
      <trkpt lat="42.87228" lon="0.26411">
        <ele>2275.6</ele>
        <time>2021-11-18T10:20:13Z</time>
      </trkpt>
      <trkpt lat="42.87231" lon="0.26408">
        <ele>2277</ele>
        <time>2021-11-18T10:20:32Z</time>
      </trkpt>
      <trkpt lat="42.87233" lon="0.26407">
        <ele>2278</ele>
        <time>2021-11-18T10:20:38Z</time>
      </trkpt>
      <trkpt lat="42.87234" lon="0.2641">
        <ele>2278.8</ele>
        <time>2021-11-18T10:20:47Z</time>
      </trkpt>
      <trkpt lat="42.87237" lon="0.26411">
        <ele>2280.5</ele>
        <time>2021-11-18T10:20:52Z</time>
      </trkpt>
      <trkpt lat="42.87238" lon="0.26414">
        <ele>2281.3</ele>
        <time>2021-11-18T10:21:11Z</time>
      </trkpt>
      <trkpt lat="42.87239" lon="0.26418">
        <ele>2282.6</ele>
        <time>2021-11-18T10:21:24Z</time>
      </trkpt>
      <trkpt lat="42.87241" lon="0.26421">
        <ele>2284.8</ele>
        <time>2021-11-18T10:21:39Z</time>
      </trkpt>
      <trkpt lat="42.87241" lon="0.26425">
        <ele>2286.4</ele>
        <time>2021-11-18T10:21:44Z</time>
      </trkpt>
      <trkpt lat="42.87242" lon="0.26429">
        <ele>2288.5</ele>
        <time>2021-11-18T10:21:53Z</time>
      </trkpt>
      <trkpt lat="42.87244" lon="0.26432">
        <ele>2290.8</ele>
        <time>2021-11-18T10:21:58Z</time>
      </trkpt>
      <trkpt lat="42.87246" lon="0.26432">
        <ele>2291.9</ele>
        <time>2021-11-18T10:22:33Z</time>
      </trkpt>
      <trkpt lat="42.87248" lon="0.26435">
        <ele>2294.2</ele>
        <time>2021-11-18T10:22:45Z</time>
      </trkpt>
      <trkpt lat="42.8725" lon="0.26433">
        <ele>2294.5</ele>
        <time>2021-11-18T10:22:53Z</time>
      </trkpt>
      <trkpt lat="42.87253" lon="0.26436">
        <ele>2297.8</ele>
        <time>2021-11-18T10:23:10Z</time>
      </trkpt>
      <trkpt lat="42.87252" lon="0.26446">
        <ele>2301</ele>
        <time>2021-11-18T10:23:21Z</time>
      </trkpt>
      <trkpt lat="42.87257" lon="0.26453">
        <ele>2307.2</ele>
        <time>2021-11-18T10:24:01Z</time>
      </trkpt>
      <trkpt lat="42.87258" lon="0.26459">
        <ele>2310.1</ele>
        <time>2021-11-18T10:24:37Z</time>
      </trkpt>
      <trkpt lat="42.87264" lon="0.26455">
        <ele>2312.6</ele>
        <time>2021-11-18T10:24:50Z</time>
      </trkpt>
      <trkpt lat="42.87264" lon="0.26474">
        <ele>2319.4</ele>
        <time>2021-11-18T10:25:23Z</time>
      </trkpt>
      <trkpt lat="42.87265" lon="0.26477">
        <ele>2321.1</ele>
        <time>2021-11-18T10:25:29Z</time>
      </trkpt>
      <trkpt lat="42.8727" lon="0.26482">
        <ele>2325.9</ele>
        <time>2021-11-18T10:26:00Z</time>
      </trkpt>
      <trkpt lat="42.87273" lon="0.26484">
        <ele>2328.4</ele>
        <time>2021-11-18T10:26:36Z</time>
      </trkpt>
      <trkpt lat="42.87284" lon="0.26477">
        <ele>2332.8</ele>
        <time>2021-11-18T10:27:12Z</time>
      </trkpt>
      <trkpt lat="42.87286" lon="0.26479">
        <ele>2334.6</ele>
        <time>2021-11-18T10:27:21Z</time>
      </trkpt>
      <trkpt lat="42.87287" lon="0.26486">
        <ele>2337.3</ele>
        <time>2021-11-18T10:27:53Z</time>
      </trkpt>
      <trkpt lat="42.87289" lon="0.26489">
        <ele>2339.3</ele>
        <time>2021-11-18T10:28:04Z</time>
      </trkpt>
      <trkpt lat="42.87295" lon="0.26489">
        <ele>2342.8</ele>
        <time>2021-11-18T10:28:37Z</time>
      </trkpt>
      <trkpt lat="42.87295" lon="0.26485">
        <ele>2341.7</ele>
        <time>2021-11-18T10:28:53Z</time>
      </trkpt>
      <trkpt lat="42.87291" lon="0.26485">
        <ele>2339.4</ele>
        <time>2021-11-18T10:28:55Z</time>
      </trkpt>
      <trkpt lat="42.87292" lon="0.26488">
        <ele>2340.8</ele>
        <time>2021-11-18T10:29:06Z</time>
      </trkpt>
      <trkpt lat="42.87295" lon="0.26489">
        <ele>2342.8</ele>
        <time>2021-11-18T10:29:10Z</time>
      </trkpt>
      <trkpt lat="42.87295" lon="0.26493">
        <ele>2343.9</ele>
        <time>2021-11-18T10:29:17Z</time>
      </trkpt>
      <trkpt lat="42.87294" lon="0.26496">
        <ele>2344.2</ele>
        <time>2021-11-18T10:29:25Z</time>
      </trkpt>
      <trkpt lat="42.87297" lon="0.26502">
        <ele>2348</ele>
        <time>2021-11-18T10:29:50Z</time>
      </trkpt>
      <trkpt lat="42.87297" lon="0.26506">
        <ele>2350.2</ele>
        <time>2021-11-18T10:29:59Z</time>
      </trkpt>
      <trkpt lat="42.87305" lon="0.26505">
        <ele>2354</ele>
        <time>2021-11-18T10:30:32Z</time>
      </trkpt>
      <trkpt lat="42.87305" lon="0.26507">
        <ele>2355</ele>
        <time>2021-11-18T10:30:53Z</time>
      </trkpt>
      <trkpt lat="42.87307" lon="0.26508">
        <ele>2356.6</ele>
        <time>2021-11-18T10:31:00Z</time>
      </trkpt>
      <trkpt lat="42.87315" lon="0.26502">
        <ele>2357.9</ele>
        <time>2021-11-18T10:32:06Z</time>
      </trkpt>
      <trkpt lat="42.87319" lon="0.265">
        <ele>2359.1</ele>
        <time>2021-11-18T10:33:20Z</time>
      </trkpt>
      <trkpt lat="42.87322" lon="0.26498">
        <ele>2360.3</ele>
        <time>2021-11-18T10:33:37Z</time>
      </trkpt>
      <trkpt lat="42.87328" lon="0.265">
        <ele>2364.1</ele>
        <time>2021-11-18T10:34:24Z</time>
      </trkpt>
      <trkpt lat="42.8733" lon="0.26498">
        <ele>2364.8</ele>
        <time>2021-11-18T10:34:27Z</time>
      </trkpt>
      <trkpt lat="42.87331" lon="0.26502">
        <ele>2366.6</ele>
        <time>2021-11-18T10:34:37Z</time>
      </trkpt>
      <trkpt lat="42.8734" lon="0.26509">
        <ele>2374.3</ele>
        <time>2021-11-18T10:35:25Z</time>
      </trkpt>
      <trkpt lat="42.87341" lon="0.26511">
        <ele>2375.6</ele>
        <time>2021-11-18T10:35:34Z</time>
      </trkpt>
      <trkpt lat="42.87346" lon="0.26518">
        <ele>2380.9</ele>
        <time>2021-11-18T10:36:41Z</time>
      </trkpt>
      <trkpt lat="42.87347" lon="0.26521">
        <ele>2382.6</ele>
        <time>2021-11-18T10:37:12Z</time>
      </trkpt>
      <trkpt lat="42.87345" lon="0.26524">
        <ele>2383</ele>
        <time>2021-11-18T10:37:35Z</time>
      </trkpt>
      <trkpt lat="42.87344" lon="0.26533">
        <ele>2386.4</ele>
        <time>2021-11-18T10:38:02Z</time>
      </trkpt>
      <trkpt lat="42.8734" lon="0.26538">
        <ele>2386.9</ele>
        <time>2021-11-18T10:38:20Z</time>
      </trkpt>
      <trkpt lat="42.87339" lon="0.26541">
        <ele>2387.8</ele>
        <time>2021-11-18T10:38:26Z</time>
      </trkpt>
      <trkpt lat="42.87337" lon="0.2654">
        <ele>2386.6</ele>
        <time>2021-11-18T10:38:32Z</time>
      </trkpt>
      <trkpt lat="42.87336" lon="0.26533">
        <ele>2383.1</ele>
        <time>2021-11-18T10:38:58Z</time>
      </trkpt>
      <trkpt lat="42.87334" lon="0.26536">
        <ele>2383.7</ele>
        <time>2021-11-18T10:39:03Z</time>
      </trkpt>
      <trkpt lat="42.87333" lon="0.2654">
        <ele>2385.1</ele>
        <time>2021-11-18T10:39:24Z</time>
      </trkpt>
      <trkpt lat="42.87333" lon="0.26543">
        <ele>2386.5</ele>
        <time>2021-11-18T10:39:36Z</time>
      </trkpt>
      <trkpt lat="42.87333" lon="0.26546">
        <ele>2387.8</ele>
        <time>2021-11-18T10:39:44Z</time>
      </trkpt>
      <trkpt lat="42.87338" lon="0.26548">
        <ele>2390.6</ele>
        <time>2021-11-18T10:40:07Z</time>
      </trkpt>
      <trkpt lat="42.8734" lon="0.26546">
        <ele>2390.4</ele>
        <time>2021-11-18T10:40:11Z</time>
      </trkpt>
      <trkpt lat="42.87344" lon="0.26547">
        <ele>2392.3</ele>
        <time>2021-11-18T10:40:46Z</time>
      </trkpt>
      <trkpt lat="42.87347" lon="0.26548">
        <ele>2393.8</ele>
        <time>2021-11-18T10:41:22Z</time>
      </trkpt>
      <trkpt lat="42.87349" lon="0.26549">
        <ele>2394.9</ele>
        <time>2021-11-18T10:41:31Z</time>
      </trkpt>
      <trkpt lat="42.87351" lon="0.2656">
        <ele>2400.1</ele>
        <time>2021-11-18T10:42:17Z</time>
      </trkpt>
      <trkpt lat="42.87351" lon="0.26562">
        <ele>2400.9</ele>
        <time>2021-11-18T10:42:27Z</time>
      </trkpt>
      <trkpt lat="42.87353" lon="0.26565">
        <ele>2402.7</ele>
        <time>2021-11-18T10:42:56Z</time>
      </trkpt>
      <trkpt lat="42.8736" lon="0.26562">
        <ele>2403.7</ele>
        <time>2021-11-18T10:43:24Z</time>
      </trkpt>
      <trkpt lat="42.87361" lon="0.2656">
        <ele>2403.3</ele>
        <time>2021-11-18T10:43:36Z</time>
      </trkpt>
      <trkpt lat="42.87365" lon="0.26572">
        <ele>2408.9</ele>
        <time>2021-11-18T10:44:23Z</time>
      </trkpt>
      <trkpt lat="42.87365" lon="0.26576">
        <ele>2410.3</ele>
        <time>2021-11-18T10:44:26Z</time>
      </trkpt>
      <trkpt lat="42.87364" lon="0.26579">
        <ele>2411.2</ele>
        <time>2021-11-18T10:44:29Z</time>
      </trkpt>
      <trkpt lat="42.87363" lon="0.26582">
        <ele>2412</ele>
        <time>2021-11-18T10:44:34Z</time>
      </trkpt>
      <trkpt lat="42.8736" lon="0.26588">
        <ele>2413.3</ele>
        <time>2021-11-18T10:45:05Z</time>
      </trkpt>
      <trkpt lat="42.8736" lon="0.26592">
        <ele>2414.6</ele>
        <time>2021-11-18T10:45:10Z</time>
      </trkpt>
      <trkpt lat="42.87362" lon="0.26602">
        <ele>2418.3</ele>
        <time>2021-11-18T10:46:00Z</time>
      </trkpt>
      <trkpt lat="42.87367" lon="0.26598">
        <ele>2418.2</ele>
        <time>2021-11-18T10:46:15Z</time>
      </trkpt>
      <trkpt lat="42.87369" lon="0.266">
        <ele>2419.2</ele>
        <time>2021-11-18T10:46:21Z</time>
      </trkpt>
      <trkpt lat="42.87371" lon="0.26602">
        <ele>2420.3</ele>
        <time>2021-11-18T10:46:50Z</time>
      </trkpt>
      <trkpt lat="42.87374" lon="0.26596">
        <ele>2419.1</ele>
        <time>2021-11-18T10:47:12Z</time>
      </trkpt>
      <trkpt lat="42.87383" lon="0.2659">
        <ele>2419.5</ele>
        <time>2021-11-18T10:48:13Z</time>
      </trkpt>
      <trkpt lat="42.87392" lon="0.26588">
        <ele>2421.1</ele>
        <time>2021-11-18T10:48:35Z</time>
      </trkpt>
      <trkpt lat="42.87392" lon="0.26587">
        <ele>2420.8</ele>
        <time>2021-11-18T10:49:09Z</time>
      </trkpt>
      <trkpt lat="42.8739" lon="0.26586">
        <ele>2420</ele>
        <time>2021-11-18T10:49:18Z</time>
      </trkpt>
      <trkpt lat="42.87384" lon="0.26589">
        <ele>2419.4</ele>
        <time>2021-11-18T10:49:40Z</time>
      </trkpt>
      <trkpt lat="42.87389" lon="0.26591">
        <ele>2421.2</ele>
        <time>2021-11-18T10:49:44Z</time>
      </trkpt>
      <trkpt lat="42.87391" lon="0.26592">
        <ele>2422</ele>
        <time>2021-11-18T10:49:48Z</time>
      </trkpt>
      <trkpt lat="42.87394" lon="0.26593">
        <ele>2423</ele>
        <time>2021-11-18T10:49:53Z</time>
      </trkpt>
      <trkpt lat="42.87387" lon="0.26588">
        <ele>2419.9</ele>
        <time>2021-11-18T10:50:14Z</time>
      </trkpt>
      <trkpt lat="42.87383" lon="0.26586">
        <ele>2418.3</ele>
        <time>2021-11-18T10:50:42Z</time>
      </trkpt>
      <trkpt lat="42.87385" lon="0.26586">
        <ele>2418.8</ele>
        <time>2021-11-18T10:52:47Z</time>
      </trkpt>
      <trkpt lat="42.87389" lon="0.2659">
        <ele>2420.9</ele>
        <time>2021-11-18T10:53:06Z</time>
      </trkpt>
      <trkpt lat="42.87388" lon="0.26586">
        <ele>2419.5</ele>
        <time>2021-11-18T10:53:19Z</time>
      </trkpt>
      <trkpt lat="42.8739" lon="0.26584">
        <ele>2419.5</ele>
        <time>2021-11-18T10:53:23Z</time>
      </trkpt>
      <trkpt lat="42.87391" lon="0.26582">
        <ele>2419.2</ele>
        <time>2021-11-18T10:53:28Z</time>
      </trkpt>
      <trkpt lat="42.87393" lon="0.26574">
        <ele>2417.5</ele>
        <time>2021-11-18T10:53:44Z</time>
      </trkpt>
      <trkpt lat="42.87396" lon="0.26573">
        <ele>2418</ele>
        <time>2021-11-18T10:54:13Z</time>
      </trkpt>
      <trkpt lat="42.87398" lon="0.26574">
        <ele>2418.9</ele>
        <time>2021-11-18T10:54:18Z</time>
      </trkpt>
      <trkpt lat="42.874" lon="0.26572">
        <ele>2418.9</ele>
        <time>2021-11-18T10:54:23Z</time>
      </trkpt>
      <trkpt lat="42.874" lon="0.26569">
        <ele>2418.2</ele>
        <time>2021-11-18T10:54:31Z</time>
      </trkpt>
      <trkpt lat="42.874" lon="0.26565">
        <ele>2417.1</ele>
        <time>2021-11-18T10:54:44Z</time>
      </trkpt>
      <trkpt lat="42.87402" lon="0.26562">
        <ele>2417</ele>
        <time>2021-11-18T10:54:50Z</time>
      </trkpt>
      <trkpt lat="42.87401" lon="0.26559">
        <ele>2415.9</ele>
        <time>2021-11-18T10:54:54Z</time>
      </trkpt>
      <trkpt lat="42.874" lon="0.26556">
        <ele>2414.8</ele>
        <time>2021-11-18T10:54:58Z</time>
      </trkpt>
      <trkpt lat="42.87399" lon="0.26553">
        <ele>2413.7</ele>
        <time>2021-11-18T10:55:21Z</time>
      </trkpt>
      <trkpt lat="42.874" lon="0.26549">
        <ele>2413.1</ele>
        <time>2021-11-18T10:55:31Z</time>
      </trkpt>
      <trkpt lat="42.87403" lon="0.26546">
        <ele>2413.4</ele>
        <time>2021-11-18T10:55:34Z</time>
      </trkpt>
      <trkpt lat="42.87403" lon="0.26542">
        <ele>2412.4</ele>
        <time>2021-11-18T10:55:38Z</time>
      </trkpt>
      <trkpt lat="42.87402" lon="0.26539">
        <ele>2411.3</ele>
        <time>2021-11-18T10:55:42Z</time>
      </trkpt>
      <trkpt lat="42.87404" lon="0.26533">
        <ele>2410.6</ele>
        <time>2021-11-18T10:55:53Z</time>
      </trkpt>
      <trkpt lat="42.87406" lon="0.26531">
        <ele>2410.9</ele>
        <time>2021-11-18T10:55:57Z</time>
      </trkpt>
      <trkpt lat="42.87413" lon="0.26532">
        <ele>2414</ele>
        <time>2021-11-18T10:56:15Z</time>
      </trkpt>
      <trkpt lat="42.87413" lon="0.26528">
        <ele>2413.2</ele>
        <time>2021-11-18T10:57:07Z</time>
      </trkpt>
      <trkpt lat="42.87411" lon="0.26524">
        <ele>2411.5</ele>
        <time>2021-11-18T10:57:12Z</time>
      </trkpt>
      <trkpt lat="42.87414" lon="0.26525">
        <ele>2413</ele>
        <time>2021-11-18T10:57:17Z</time>
      </trkpt>
      <trkpt lat="42.87417" lon="0.26524">
        <ele>2414.1</ele>
        <time>2021-11-18T10:57:21Z</time>
      </trkpt>
      <trkpt lat="42.8742" lon="0.26523">
        <ele>2416.2</ele>
        <time>2021-11-18T10:57:24Z</time>
      </trkpt>
      <trkpt lat="42.87422" lon="0.26524">
        <ele>2417.9</ele>
        <time>2021-11-18T10:57:27Z</time>
      </trkpt>
      <trkpt lat="42.87421" lon="0.26528">
        <ele>2418</ele>
        <time>2021-11-18T10:57:40Z</time>
      </trkpt>
      <trkpt lat="42.8743" lon="0.26534">
        <ele>2425.9</ele>
        <time>2021-11-18T10:57:59Z</time>
      </trkpt>
      <trkpt lat="42.87428" lon="0.26536">
        <ele>2424.8</ele>
        <time>2021-11-18T10:58:07Z</time>
      </trkpt>
      <trkpt lat="42.87428" lon="0.26539">
        <ele>2425.4</ele>
        <time>2021-11-18T10:59:03Z</time>
      </trkpt>
      <trkpt lat="42.87428" lon="0.26542">
        <ele>2425.9</ele>
        <time>2021-11-18T10:59:16Z</time>
      </trkpt>
      <trkpt lat="42.87431" lon="0.26544">
        <ele>2428.5</ele>
        <time>2021-11-18T10:59:20Z</time>
      </trkpt>
      <trkpt lat="42.87432" lon="0.26547">
        <ele>2429.8</ele>
        <time>2021-11-18T10:59:29Z</time>
      </trkpt>
      <trkpt lat="42.87437" lon="0.26553">
        <ele>2434.6</ele>
        <time>2021-11-18T10:59:44Z</time>
      </trkpt>
      <trkpt lat="42.87444" lon="0.26554">
        <ele>2439.8</ele>
        <time>2021-11-18T10:59:57Z</time>
      </trkpt>
      <trkpt lat="42.87446" lon="0.26555">
        <ele>2441.5</ele>
        <time>2021-11-18T11:00:01Z</time>
      </trkpt>
      <trkpt lat="42.87448" lon="0.26558">
        <ele>2443.4</ele>
        <time>2021-11-18T11:00:06Z</time>
      </trkpt>
      <trkpt lat="42.8745" lon="0.26564">
        <ele>2445.9</ele>
        <time>2021-11-18T11:00:48Z</time>
      </trkpt>
      <trkpt lat="42.87448" lon="0.26567">
        <ele>2445</ele>
        <time>2021-11-18T11:01:11Z</time>
      </trkpt>
      <trkpt lat="42.87445" lon="0.26573">
        <ele>2443.9</ele>
        <time>2021-11-18T11:01:19Z</time>
      </trkpt>
      <trkpt lat="42.87447" lon="0.26576">
        <ele>2445.8</ele>
        <time>2021-11-18T11:01:38Z</time>
      </trkpt>
      <trkpt lat="42.87447" lon="0.26579">
        <ele>2446.4</ele>
        <time>2021-11-18T11:02:20Z</time>
      </trkpt>
      <trkpt lat="42.87448" lon="0.26585">
        <ele>2448.2</ele>
        <time>2021-11-18T11:02:33Z</time>
      </trkpt>
      <trkpt lat="42.8745" lon="0.26589">
        <ele>2450.4</ele>
        <time>2021-11-18T11:02:42Z</time>
      </trkpt>
      <trkpt lat="42.87455" lon="0.26597">
        <ele>2455.6</ele>
        <time>2021-11-18T11:03:27Z</time>
      </trkpt>
      <trkpt lat="42.87449" lon="0.266">
        <ele>2452.1</ele>
        <time>2021-11-18T11:04:23Z</time>
      </trkpt>
      <trkpt lat="42.87452" lon="0.26601">
        <ele>2454.4</ele>
        <time>2021-11-18T11:04:26Z</time>
      </trkpt>
      <trkpt lat="42.87452" lon="0.26604">
        <ele>2455</ele>
        <time>2021-11-18T11:04:47Z</time>
      </trkpt>
      <trkpt lat="42.87451" lon="0.26609">
        <ele>2455.4</ele>
        <time>2021-11-18T11:05:05Z</time>
      </trkpt>
      <trkpt lat="42.87457" lon="0.2662">
        <ele>2461.8</ele>
        <time>2021-11-18T11:05:48Z</time>
      </trkpt>
      <trkpt lat="42.87465" lon="0.26625">
        <ele>2468.2</ele>
        <time>2021-11-18T11:06:15Z</time>
      </trkpt>
      <trkpt lat="42.87471" lon="0.26624">
        <ele>2472</ele>
        <time>2021-11-18T11:07:16Z</time>
      </trkpt>
      <trkpt lat="42.87473" lon="0.26624">
        <ele>2473.3</ele>
        <time>2021-11-18T11:07:19Z</time>
      </trkpt>
      <trkpt lat="42.8748" lon="0.26626">
        <ele>2478.4</ele>
        <time>2021-11-18T11:08:34Z</time>
      </trkpt>
      <trkpt lat="42.8748" lon="0.26629">
        <ele>2479</ele>
        <time>2021-11-18T11:08:48Z</time>
      </trkpt>
      <trkpt lat="42.87479" lon="0.26631">
        <ele>2478.7</ele>
        <time>2021-11-18T11:08:51Z</time>
      </trkpt>
      <trkpt lat="42.87478" lon="0.26631">
        <ele>2478</ele>
        <time>2021-11-18T11:10:27Z</time>
      </trkpt>
      <trkpt lat="42.87475" lon="0.2663">
        <ele>2475.8</ele>
        <time>2021-11-18T11:10:30Z</time>
      </trkpt>
      <trkpt lat="42.87484" lon="0.26628">
        <ele>2481.4</ele>
        <time>2021-11-18T11:12:01Z</time>
      </trkpt>
      <trkpt lat="42.87488" lon="0.26622">
        <ele>2482.9</ele>
        <time>2021-11-18T11:12:28Z</time>
      </trkpt>
      <trkpt lat="42.8749" lon="0.26621">
        <ele>2484.1</ele>
        <time>2021-11-18T11:12:36Z</time>
      </trkpt>
      <trkpt lat="42.87496" lon="0.26612">
        <ele>2486.5</ele>
        <time>2021-11-18T11:13:30Z</time>
      </trkpt>
      <trkpt lat="42.87498" lon="0.2661">
        <ele>2487.4</ele>
        <time>2021-11-18T11:13:37Z</time>
      </trkpt>
      <trkpt lat="42.87499" lon="0.26607">
        <ele>2487.6</ele>
        <time>2021-11-18T11:13:43Z</time>
      </trkpt>
      <trkpt lat="42.87502" lon="0.26607">
        <ele>2489.7</ele>
        <time>2021-11-18T11:13:46Z</time>
      </trkpt>
      <trkpt lat="42.87504" lon="0.26598">
        <ele>2489.5</ele>
        <time>2021-11-18T11:14:15Z</time>
      </trkpt>
      <trkpt lat="42.87505" lon="0.26594">
        <ele>2489.5</ele>
        <time>2021-11-18T11:14:36Z</time>
      </trkpt>
      <trkpt lat="42.87507" lon="0.26591">
        <ele>2490.4</ele>
        <time>2021-11-18T11:14:49Z</time>
      </trkpt>
      <trkpt lat="42.87509" lon="0.2659">
        <ele>2491.7</ele>
        <time>2021-11-18T11:14:53Z</time>
      </trkpt>
      <trkpt lat="42.87516" lon="0.26586">
        <ele>2496</ele>
        <time>2021-11-18T11:15:11Z</time>
      </trkpt>
      <trkpt lat="42.87516" lon="0.26583">
        <ele>2495.5</ele>
        <time>2021-11-18T11:15:19Z</time>
      </trkpt>
      <trkpt lat="42.87519" lon="0.26582">
        <ele>2497.5</ele>
        <time>2021-11-18T11:15:24Z</time>
      </trkpt>
      <trkpt lat="42.87523" lon="0.2658">
        <ele>2500.2</ele>
        <time>2021-11-18T11:16:32Z</time>
      </trkpt>
      <trkpt lat="42.87525" lon="0.26575">
        <ele>2501.1</ele>
        <time>2021-11-18T11:16:53Z</time>
      </trkpt>
      <trkpt lat="42.87528" lon="0.26575">
        <ele>2503.2</ele>
        <time>2021-11-18T11:16:59Z</time>
      </trkpt>
      <trkpt lat="42.87533" lon="0.26574">
        <ele>2506.7</ele>
        <time>2021-11-18T11:17:17Z</time>
      </trkpt>
      <trkpt lat="42.87536" lon="0.26569">
        <ele>2508.3</ele>
        <time>2021-11-18T11:18:04Z</time>
      </trkpt>
      <trkpt lat="42.87536" lon="0.26567">
        <ele>2508.1</ele>
        <time>2021-11-18T11:18:19Z</time>
      </trkpt>
      <trkpt lat="42.87538" lon="0.26564">
        <ele>2509.3</ele>
        <time>2021-11-18T11:18:30Z</time>
      </trkpt>
      <trkpt lat="42.87538" lon="0.26561">
        <ele>2508.9</ele>
        <time>2021-11-18T11:18:33Z</time>
      </trkpt>
      <trkpt lat="42.8754" lon="0.26559">
        <ele>2510.2</ele>
        <time>2021-11-18T11:18:38Z</time>
      </trkpt>
      <trkpt lat="42.87542" lon="0.26559">
        <ele>2511.6</ele>
        <time>2021-11-18T11:18:44Z</time>
      </trkpt>
      <trkpt lat="42.87552" lon="0.26559">
        <ele>2518.9</ele>
        <time>2021-11-18T11:19:37Z</time>
      </trkpt>
      <trkpt lat="42.87552" lon="0.26562">
        <ele>2519.2</ele>
        <time>2021-11-18T11:19:45Z</time>
      </trkpt>
      <trkpt lat="42.87553" lon="0.26561">
        <ele>2519.8</ele>
        <time>2021-11-18T11:20:06Z</time>
      </trkpt>
      <trkpt lat="42.87558" lon="0.26556">
        <ele>2522.9</ele>
        <time>2021-11-18T11:20:31Z</time>
      </trkpt>
      <trkpt lat="42.87563" lon="0.26556">
        <ele>2526.6</ele>
        <time>2021-11-18T11:20:54Z</time>
      </trkpt>
      <trkpt lat="42.87561" lon="0.26553">
        <ele>2524.8</ele>
        <time>2021-11-18T11:21:04Z</time>
      </trkpt>
      <trkpt lat="42.87562" lon="0.26549">
        <ele>2525.1</ele>
        <time>2021-11-18T11:21:19Z</time>
      </trkpt>
      <trkpt lat="42.87563" lon="0.26546">
        <ele>2525.6</ele>
        <time>2021-11-18T11:21:31Z</time>
      </trkpt>
      <trkpt lat="42.87566" lon="0.26546">
        <ele>2527.7</ele>
        <time>2021-11-18T11:21:34Z</time>
      </trkpt>
      <trkpt lat="42.87568" lon="0.26545">
        <ele>2529.1</ele>
        <time>2021-11-18T11:21:40Z</time>
      </trkpt>
      <trkpt lat="42.87571" lon="0.26542">
        <ele>2531</ele>
        <time>2021-11-18T11:21:56Z</time>
      </trkpt>
      <trkpt lat="42.87575" lon="0.26541">
        <ele>2533.8</ele>
        <time>2021-11-18T11:22:11Z</time>
      </trkpt>
      <trkpt lat="42.87577" lon="0.26543">
        <ele>2535.5</ele>
        <time>2021-11-18T11:22:27Z</time>
      </trkpt>
      <trkpt lat="42.87579" lon="0.26541">
        <ele>2536.8</ele>
        <time>2021-11-18T11:22:31Z</time>
      </trkpt>
      <trkpt lat="42.8758" lon="0.26552">
        <ele>2538.6</ele>
        <time>2021-11-18T11:23:27Z</time>
      </trkpt>
      <trkpt lat="42.87581" lon="0.26555">
        <ele>2539.6</ele>
        <time>2021-11-18T11:23:36Z</time>
      </trkpt>
      <trkpt lat="42.87581" lon="0.26567">
        <ele>2540.7</ele>
        <time>2021-11-18T11:24:32Z</time>
      </trkpt>
      <trkpt lat="42.87583" lon="0.26569">
        <ele>2542.4</ele>
        <time>2021-11-18T11:24:37Z</time>
      </trkpt>
      <trkpt lat="42.87582" lon="0.26579">
        <ele>2542.6</ele>
        <time>2021-11-18T11:25:13Z</time>
      </trkpt>
      <trkpt lat="42.87584" lon="0.26581">
        <ele>2544.3</ele>
        <time>2021-11-18T11:25:23Z</time>
      </trkpt>
      <trkpt lat="42.87584" lon="0.26584">
        <ele>2544.6</ele>
        <time>2021-11-18T11:25:28Z</time>
      </trkpt>
      <trkpt lat="42.87585" lon="0.26596">
        <ele>2548</ele>
        <time>2021-11-18T11:26:09Z</time>
      </trkpt>
      <trkpt lat="42.87584" lon="0.2661">
        <ele>2550.2</ele>
        <time>2021-11-18T11:26:43Z</time>
      </trkpt>
      <trkpt lat="42.87584" lon="0.26618">
        <ele>2552</ele>
        <time>2021-11-18T11:27:30Z</time>
      </trkpt>
      <trkpt lat="42.87584" lon="0.26626">
        <ele>2553.7</ele>
        <time>2021-11-18T11:27:54Z</time>
      </trkpt>
      <trkpt lat="42.87583" lon="0.26639">
        <ele>2555.8</ele>
        <time>2021-11-18T11:28:44Z</time>
      </trkpt>
      <trkpt lat="42.87585" lon="0.26645">
        <ele>2558.5</ele>
        <time>2021-11-18T11:29:00Z</time>
      </trkpt>
      <trkpt lat="42.87583" lon="0.26647">
        <ele>2557.5</ele>
        <time>2021-11-18T11:29:04Z</time>
      </trkpt>
      <trkpt lat="42.87578" lon="0.26657">
        <ele>2555.9</ele>
        <time>2021-11-18T11:29:24Z</time>
      </trkpt>
      <trkpt lat="42.87581" lon="0.26661">
        <ele>2559</ele>
        <time>2021-11-18T11:29:57Z</time>
      </trkpt>
      <trkpt lat="42.87583" lon="0.26662">
        <ele>2560.7</ele>
        <time>2021-11-18T11:30:02Z</time>
      </trkpt>
      <trkpt lat="42.87581" lon="0.26667">
        <ele>2560.3</ele>
        <time>2021-11-18T11:30:20Z</time>
      </trkpt>
      <trkpt lat="42.8758" lon="0.2667">
        <ele>2560.1</ele>
        <time>2021-11-18T11:30:24Z</time>
      </trkpt>
      <trkpt lat="42.87583" lon="0.26677">
        <ele>2563.6</ele>
        <time>2021-11-18T11:30:42Z</time>
      </trkpt>
      <trkpt lat="42.87581" lon="0.26685">
        <ele>2563.6</ele>
        <time>2021-11-18T11:30:52Z</time>
      </trkpt>
      <trkpt lat="42.8758" lon="0.26687">
        <ele>2563.2</ele>
        <time>2021-11-18T11:30:56Z</time>
      </trkpt>
      <trkpt lat="42.87579" lon="0.26688">
        <ele>2562.6</ele>
        <time>2021-11-18T11:31:49Z</time>
      </trkpt>
      <trkpt lat="42.8758" lon="0.26689">
        <ele>2563.6</ele>
        <time>2021-11-18T11:32:50Z</time>
      </trkpt>
      <trkpt lat="42.87581" lon="0.26689">
        <ele>2564.3</ele>
        <time>2021-11-18T11:33:10Z</time>
      </trkpt>
      <trkpt lat="42.87582" lon="0.26692">
        <ele>2565.6</ele>
        <time>2021-11-18T11:33:15Z</time>
      </trkpt>
      <trkpt lat="42.87581" lon="0.26697">
        <ele>2565.8</ele>
        <time>2021-11-18T11:33:28Z</time>
      </trkpt>
      <trkpt lat="42.87583" lon="0.26699">
        <ele>2567.6</ele>
        <time>2021-11-18T11:33:35Z</time>
      </trkpt>
      <trkpt lat="42.87585" lon="0.26704">
        <ele>2569.8</ele>
        <time>2021-11-18T11:33:43Z</time>
      </trkpt>
      <trkpt lat="42.87583" lon="0.2671">
        <ele>2569.6</ele>
        <time>2021-11-18T11:33:51Z</time>
      </trkpt>
      <trkpt lat="42.87584" lon="0.26712">
        <ele>2570.6</ele>
        <time>2021-11-18T11:33:55Z</time>
      </trkpt>
      <trkpt lat="42.87581" lon="0.26717">
        <ele>2569.4</ele>
        <time>2021-11-18T11:34:05Z</time>
      </trkpt>
      <trkpt lat="42.87583" lon="0.26718">
        <ele>2571</ele>
        <time>2021-11-18T11:34:11Z</time>
      </trkpt>
      <trkpt lat="42.87586" lon="0.26726">
        <ele>2574.4</ele>
        <time>2021-11-18T11:34:26Z</time>
      </trkpt>
      <trkpt lat="42.87585" lon="0.26729">
        <ele>2574.3</ele>
        <time>2021-11-18T11:34:30Z</time>
      </trkpt>
      <trkpt lat="42.87585" lon="0.26734">
        <ele>2575.2</ele>
        <time>2021-11-18T11:34:39Z</time>
      </trkpt>
      <trkpt lat="42.87585" lon="0.26736">
        <ele>2575.6</ele>
        <time>2021-11-18T11:34:44Z</time>
      </trkpt>
      <trkpt lat="42.87585" lon="0.26739">
        <ele>2576.1</ele>
        <time>2021-11-18T11:34:49Z</time>
      </trkpt>
      <trkpt lat="42.87585" lon="0.26741">
        <ele>2576.5</ele>
        <time>2021-11-18T11:34:53Z</time>
      </trkpt>
      <trkpt lat="42.87585" lon="0.26744">
        <ele>2577</ele>
        <time>2021-11-18T11:34:58Z</time>
      </trkpt>
      <trkpt lat="42.87584" lon="0.26746">
        <ele>2576.7</ele>
        <time>2021-11-18T11:35:04Z</time>
      </trkpt>
      <trkpt lat="42.87586" lon="0.26749">
        <ele>2578.6</ele>
        <time>2021-11-18T11:35:10Z</time>
      </trkpt>
      <trkpt lat="42.87586" lon="0.26754">
        <ele>2579.8</ele>
        <time>2021-11-18T11:35:26Z</time>
      </trkpt>
      <trkpt lat="42.87584" lon="0.26757">
        <ele>2579.3</ele>
        <time>2021-11-18T11:35:31Z</time>
      </trkpt>
      <trkpt lat="42.87583" lon="0.2676">
        <ele>2579.4</ele>
        <time>2021-11-18T11:35:35Z</time>
      </trkpt>
      <trkpt lat="42.87584" lon="0.26762">
        <ele>2580.6</ele>
        <time>2021-11-18T11:35:40Z</time>
      </trkpt>
      <trkpt lat="42.87586" lon="0.26764">
        <ele>2582.5</ele>
        <time>2021-11-18T11:36:07Z</time>
      </trkpt>
      <trkpt lat="42.87589" lon="0.26776">
        <ele>2587.6</ele>
        <time>2021-11-18T11:36:53Z</time>
      </trkpt>
      <trkpt lat="42.87594" lon="0.26787">
        <ele>2593.9</ele>
        <time>2021-11-18T11:38:26Z</time>
      </trkpt>
      <trkpt lat="42.87595" lon="0.26784">
        <ele>2593.8</ele>
        <time>2021-11-18T11:40:38Z</time>
      </trkpt>
      <trkpt lat="42.87594" lon="0.26782">
        <ele>2592.6</ele>
        <time>2021-11-18T11:42:56Z</time>
      </trkpt>
      <trkpt lat="42.8759" lon="0.26781">
        <ele>2589.6</ele>
        <time>2021-11-18T11:43:03Z</time>
      </trkpt>
      <trkpt lat="42.87586" lon="0.26788">
        <ele>2588.8</ele>
        <time>2021-11-18T11:43:10Z</time>
      </trkpt>
      <trkpt lat="42.87588" lon="0.26784">
        <ele>2589.1</ele>
        <time>2021-11-18T11:43:13Z</time>
      </trkpt>
      <trkpt lat="42.87589" lon="0.26784">
        <ele>2589.8</ele>
        <time>2021-11-18T11:43:24Z</time>
      </trkpt>
      <trkpt lat="42.8759" lon="0.26786">
        <ele>2591</ele>
        <time>2021-11-18T11:45:04Z</time>
      </trkpt>
      <trkpt lat="42.87591" lon="0.26786">
        <ele>2591.6</ele>
        <time>2021-11-18T11:47:49Z</time>
      </trkpt>
      <trkpt lat="42.87592" lon="0.26787">
        <ele>2592.6</ele>
        <time>2021-11-18T11:48:11Z</time>
      </trkpt>
      <trkpt lat="42.87591" lon="0.26794">
        <ele>2593.8</ele>
        <time>2021-11-18T11:55:00Z</time>
      </trkpt>
      <trkpt lat="42.87591" lon="0.26797">
        <ele>2594.6</ele>
        <time>2021-11-18T11:55:03Z</time>
      </trkpt>
      <trkpt lat="42.87591" lon="0.26799">
        <ele>2595.1</ele>
        <time>2021-11-18T11:55:09Z</time>
      </trkpt>
      <trkpt lat="42.87592" lon="0.26802">
        <ele>2596.6</ele>
        <time>2021-11-18T11:55:14Z</time>
      </trkpt>
      <trkpt lat="42.87588" lon="0.26809">
        <ele>2595.7</ele>
        <time>2021-11-18T11:55:36Z</time>
      </trkpt>
      <trkpt lat="42.87587" lon="0.26822">
        <ele>2598.5</ele>
        <time>2021-11-18T11:56:10Z</time>
      </trkpt>
      <trkpt lat="42.87587" lon="0.26825">
        <ele>2599.3</ele>
        <time>2021-11-18T11:56:18Z</time>
      </trkpt>
      <trkpt lat="42.87587" lon="0.26832">
        <ele>2601.2</ele>
        <time>2021-11-18T11:56:40Z</time>
      </trkpt>
      <trkpt lat="42.87586" lon="0.26833">
        <ele>2600.7</ele>
        <time>2021-11-18T11:56:45Z</time>
      </trkpt>
      <trkpt lat="42.87584" lon="0.26833">
        <ele>2599.4</ele>
        <time>2021-11-18T11:56:49Z</time>
      </trkpt>
      <trkpt lat="42.87584" lon="0.26836">
        <ele>2600.8</ele>
        <time>2021-11-18T11:57:04Z</time>
      </trkpt>
      <trkpt lat="42.87584" lon="0.26839">
        <ele>2602.3</ele>
        <time>2021-11-18T11:57:08Z</time>
      </trkpt>
      <trkpt lat="42.87583" lon="0.26845">
        <ele>2604.7</ele>
        <time>2021-11-18T11:57:19Z</time>
      </trkpt>
      <trkpt lat="42.87585" lon="0.2685">
        <ele>2608.5</ele>
        <time>2021-11-18T11:57:36Z</time>
      </trkpt>
      <trkpt lat="42.87587" lon="0.2686">
        <ele>2614.8</ele>
        <time>2021-11-18T11:59:02Z</time>
      </trkpt>
      <trkpt lat="42.87587" lon="0.26863">
        <ele>2616.4</ele>
        <time>2021-11-18T11:59:05Z</time>
      </trkpt>
      <trkpt lat="42.87585" lon="0.26865">
        <ele>2616</ele>
        <time>2021-11-18T11:59:11Z</time>
      </trkpt>
      <trkpt lat="42.87584" lon="0.26869">
        <ele>2617.4</ele>
        <time>2021-11-18T11:59:16Z</time>
      </trkpt>
      <trkpt lat="42.87583" lon="0.26871">
        <ele>2617.8</ele>
        <time>2021-11-18T11:59:20Z</time>
      </trkpt>
      <trkpt lat="42.87583" lon="0.26875">
        <ele>2619.8</ele>
        <time>2021-11-18T11:59:44Z</time>
      </trkpt>
      <trkpt lat="42.87583" lon="0.2688">
        <ele>2622.3</ele>
        <time>2021-11-18T12:00:20Z</time>
      </trkpt>
      <trkpt lat="42.87579" lon="0.26881">
        <ele>2620.6</ele>
        <time>2021-11-18T12:00:55Z</time>
      </trkpt>
      <trkpt lat="42.87578" lon="0.26883">
        <ele>2621.1</ele>
        <time>2021-11-18T12:01:00Z</time>
      </trkpt>
      <trkpt lat="42.87577" lon="0.26885">
        <ele>2621.5</ele>
        <time>2021-11-18T12:01:06Z</time>
      </trkpt>
      <trkpt lat="42.87575" lon="0.26888">
        <ele>2622</ele>
        <time>2021-11-18T12:01:20Z</time>
      </trkpt>
      <trkpt lat="42.87573" lon="0.26889">
        <ele>2621.4</ele>
        <time>2021-11-18T12:01:27Z</time>
      </trkpt>
      <trkpt lat="42.87574" lon="0.26899">
        <ele>2627.2</ele>
        <time>2021-11-18T12:02:11Z</time>
      </trkpt>
      <trkpt lat="42.87574" lon="0.26903">
        <ele>2629.3</ele>
        <time>2021-11-18T12:02:32Z</time>
      </trkpt>
      <trkpt lat="42.87573" lon="0.26912">
        <ele>2633.5</ele>
        <time>2021-11-18T12:03:20Z</time>
      </trkpt>
      <trkpt lat="42.87569" lon="0.26915">
        <ele>2633.1</ele>
        <time>2021-11-18T12:04:23Z</time>
      </trkpt>
      <trkpt lat="42.87567" lon="0.26918">
        <ele>2633.6</ele>
        <time>2021-11-18T12:04:27Z</time>
      </trkpt>
      <trkpt lat="42.87569" lon="0.26919">
        <ele>2635</ele>
        <time>2021-11-18T12:04:46Z</time>
      </trkpt>
      <trkpt lat="42.87571" lon="0.26921">
        <ele>2636.9</ele>
        <time>2021-11-18T12:04:52Z</time>
      </trkpt>
      <trkpt lat="42.87577" lon="0.26932">
        <ele>2644.7</ele>
        <time>2021-11-18T12:05:44Z</time>
      </trkpt>
      <trkpt lat="42.87575" lon="0.26934">
        <ele>2644.7</ele>
        <time>2021-11-18T12:06:06Z</time>
      </trkpt>
      <trkpt lat="42.87576" lon="0.26933">
        <ele>2644.7</ele>
        <time>2021-11-18T12:06:52Z</time>
      </trkpt>
      <trkpt lat="42.87573" lon="0.26933">
        <ele>2643.3</ele>
        <time>2021-11-18T12:07:13Z</time>
      </trkpt>
      <trkpt lat="42.87574" lon="0.26946">
        <ele>2649.6</ele>
        <time>2021-11-18T12:07:37Z</time>
      </trkpt>
      <trkpt lat="42.87565" lon="0.26953">
        <ele>2648.5</ele>
        <time>2021-11-18T12:08:30Z</time>
      </trkpt>
      <trkpt lat="42.87563" lon="0.26955">
        <ele>2648.5</ele>
        <time>2021-11-18T12:08:53Z</time>
      </trkpt>
      <trkpt lat="42.87566" lon="0.26964">
        <ele>2654</ele>
        <time>2021-11-18T12:09:24Z</time>
      </trkpt>
      <trkpt lat="42.87563" lon="0.26976">
        <ele>2658</ele>
        <time>2021-11-18T12:10:09Z</time>
      </trkpt>
      <trkpt lat="42.87563" lon="0.26981">
        <ele>2660.3</ele>
        <time>2021-11-18T12:10:29Z</time>
      </trkpt>
      <trkpt lat="42.87562" lon="0.26984">
        <ele>2661.2</ele>
        <time>2021-11-18T12:11:08Z</time>
      </trkpt>
      <trkpt lat="42.8756" lon="0.26985">
        <ele>2660.8</ele>
        <time>2021-11-18T12:11:23Z</time>
      </trkpt>
      <trkpt lat="42.87561" lon="0.26989">
        <ele>2663.1</ele>
        <time>2021-11-18T12:11:29Z</time>
      </trkpt>
      <trkpt lat="42.87561" lon="0.26991">
        <ele>2664</ele>
        <time>2021-11-18T12:11:35Z</time>
      </trkpt>
      <trkpt lat="42.87563" lon="0.26997">
        <ele>2667.6</ele>
        <time>2021-11-18T12:12:01Z</time>
      </trkpt>
      <trkpt lat="42.87565" lon="0.27005">
        <ele>2671.2</ele>
        <time>2021-11-18T12:12:33Z</time>
      </trkpt>
      <trkpt lat="42.87568" lon="0.27017">
        <ele>2675.8</ele>
        <time>2021-11-18T12:13:37Z</time>
      </trkpt>
      <trkpt lat="42.87566" lon="0.27022">
        <ele>2676.3</ele>
        <time>2021-11-18T12:13:44Z</time>
      </trkpt>
      <trkpt lat="42.87567" lon="0.27025">
        <ele>2677.6</ele>
        <time>2021-11-18T12:13:49Z</time>
      </trkpt>
      <trkpt lat="42.87569" lon="0.27039">
        <ele>2682.3</ele>
        <time>2021-11-18T12:14:43Z</time>
      </trkpt>
      <trkpt lat="42.87568" lon="0.27041">
        <ele>2682.4</ele>
        <time>2021-11-18T12:14:46Z</time>
      </trkpt>
      <trkpt lat="42.87567" lon="0.27044">
        <ele>2682.8</ele>
        <time>2021-11-18T12:14:50Z</time>
      </trkpt>
      <trkpt lat="42.87566" lon="0.27046">
        <ele>2682.9</ele>
        <time>2021-11-18T12:14:56Z</time>
      </trkpt>
      <trkpt lat="42.87565" lon="0.27049">
        <ele>2683.3</ele>
        <time>2021-11-18T12:15:12Z</time>
      </trkpt>
      <trkpt lat="42.87563" lon="0.27063">
        <ele>2686.3</ele>
        <time>2021-11-18T12:15:51Z</time>
      </trkpt>
      <trkpt lat="42.87561" lon="0.27075">
        <ele>2688.8</ele>
        <time>2021-11-18T12:16:46Z</time>
      </trkpt>
      <trkpt lat="42.87562" lon="0.27089">
        <ele>2695.8</ele>
        <time>2021-11-18T12:17:31Z</time>
      </trkpt>
      <trkpt lat="42.87554" lon="0.27099">
        <ele>2699.3</ele>
        <time>2021-11-18T12:18:08Z</time>
      </trkpt>
      <trkpt lat="42.87551" lon="0.27105">
        <ele>2701.9</ele>
        <time>2021-11-18T12:18:24Z</time>
      </trkpt>
      <trkpt lat="42.87549" lon="0.27114">
        <ele>2706.7</ele>
        <time>2021-11-18T12:19:14Z</time>
      </trkpt>
      <trkpt lat="42.87548" lon="0.27127">
        <ele>2714.6</ele>
        <time>2021-11-18T12:20:05Z</time>
      </trkpt>
      <trkpt lat="42.87549" lon="0.27139">
        <ele>2723.3</ele>
        <time>2021-11-18T12:20:50Z</time>
      </trkpt>
      <trkpt lat="42.87549" lon="0.27143">
        <ele>2725.9</ele>
        <time>2021-11-18T12:21:31Z</time>
      </trkpt>
      <trkpt lat="42.87547" lon="0.27142">
        <ele>2723.7</ele>
        <time>2021-11-18T12:21:42Z</time>
      </trkpt>
      <trkpt lat="42.87545" lon="0.27144">
        <ele>2723.3</ele>
        <time>2021-11-18T12:23:10Z</time>
      </trkpt>
      <trkpt lat="42.87545" lon="0.27145">
        <ele>2724</ele>
        <time>2021-11-18T12:23:34Z</time>
      </trkpt>
      <trkpt lat="42.87548" lon="0.27146">
        <ele>2727.1</ele>
        <time>2021-11-18T12:23:41Z</time>
      </trkpt>
      <trkpt lat="42.87546" lon="0.27143">
        <ele>2723.5</ele>
        <time>2021-11-18T12:26:47Z</time>
      </trkpt>
      <trkpt lat="42.87554" lon="0.27142">
        <ele>2729.3</ele>
        <time>2021-11-18T12:27:11Z</time>
      </trkpt>
      <trkpt lat="42.87556" lon="0.27145">
        <ele>2733</ele>
        <time>2021-11-18T12:27:25Z</time>
      </trkpt>
      <trkpt lat="42.87559" lon="0.27147">
        <ele>2737</ele>
        <time>2021-11-18T12:27:34Z</time>
      </trkpt>
      <trkpt lat="42.87568" lon="0.27153">
        <ele>2749.2</ele>
        <time>2021-11-18T12:28:41Z</time>
      </trkpt>
      <trkpt lat="42.8757" lon="0.27156">
        <ele>2753.4</ele>
        <time>2021-11-18T12:28:57Z</time>
      </trkpt>
      <trkpt lat="42.87571" lon="0.27161">
        <ele>2758.4</ele>
        <time>2021-11-18T12:29:17Z</time>
      </trkpt>
      <trkpt lat="42.87575" lon="0.27161">
        <ele>2762.1</ele>
        <time>2021-11-18T12:29:43Z</time>
      </trkpt>
      <trkpt lat="42.87578" lon="0.27168">
        <ele>2769.6</ele>
        <time>2021-11-18T12:30:14Z</time>
      </trkpt>
      <trkpt lat="42.87585" lon="0.27178">
        <ele>2773</ele>
        <time>2021-11-18T12:31:21Z</time>
      </trkpt>
      <trkpt lat="42.87592" lon="0.27187">
        <ele>2772.6</ele>
        <time>2021-11-18T12:32:37Z</time>
      </trkpt>
      <trkpt lat="42.8759" lon="0.27201">
        <ele>2769.7</ele>
        <time>2021-11-18T12:33:14Z</time>
      </trkpt>
      <trkpt lat="42.87589" lon="0.27203">
        <ele>2769.1</ele>
        <time>2021-11-18T12:33:19Z</time>
      </trkpt>
      <trkpt lat="42.87589" lon="0.27208">
        <ele>2768.2</ele>
        <time>2021-11-18T12:33:44Z</time>
      </trkpt>
      <trkpt lat="42.87589" lon="0.27211">
        <ele>2767.6</ele>
        <time>2021-11-18T12:34:01Z</time>
      </trkpt>
      <trkpt lat="42.87591" lon="0.27212">
        <ele>2768.1</ele>
        <time>2021-11-18T12:34:25Z</time>
      </trkpt>
      <trkpt lat="42.87587" lon="0.27226">
        <ele>2764.2</ele>
        <time>2021-11-18T12:35:41Z</time>
      </trkpt>
      <trkpt lat="42.87588" lon="0.27239">
        <ele>2762.2</ele>
        <time>2021-11-18T12:36:44Z</time>
      </trkpt>
      <trkpt lat="42.87592" lon="0.27242">
        <ele>2763.3</ele>
        <time>2021-11-18T12:42:17Z</time>
      </trkpt>
      <trkpt lat="42.87598" lon="0.27251">
        <ele>2764.6</ele>
        <time>2021-11-18T12:45:52Z</time>
      </trkpt>
      <trkpt lat="42.87593" lon="0.27253">
        <ele>2762.3</ele>
        <time>2021-11-18T12:46:00Z</time>
      </trkpt>
      <trkpt lat="42.87599" lon="0.27265">
        <ele>2764.4</ele>
        <time>2021-11-18T12:46:11Z</time>
      </trkpt>
      <trkpt lat="42.87603" lon="0.27266">
        <ele>2766.1</ele>
        <time>2021-11-18T12:46:16Z</time>
      </trkpt>
      <trkpt lat="42.87601" lon="0.27261">
        <ele>2765.5</ele>
        <time>2021-11-18T12:46:21Z</time>
      </trkpt>
      <trkpt lat="42.87598" lon="0.2726">
        <ele>2764.2</ele>
        <time>2021-11-18T12:46:23Z</time>
      </trkpt>
      <trkpt lat="42.87596" lon="0.27257">
        <ele>2763.5</ele>
        <time>2021-11-18T12:46:28Z</time>
      </trkpt>
      <trkpt lat="42.87595" lon="0.27254">
        <ele>2763.2</ele>
        <time>2021-11-18T12:46:32Z</time>
      </trkpt>
      <trkpt lat="42.87596" lon="0.27252">
        <ele>2763.7</ele>
        <time>2021-11-18T12:46:35Z</time>
      </trkpt>
      <trkpt lat="42.87595" lon="0.27249">
        <ele>2763.5</ele>
        <time>2021-11-18T12:46:39Z</time>
      </trkpt>
      <trkpt lat="42.87593" lon="0.27243">
        <ele>2763.6</ele>
        <time>2021-11-18T13:11:02Z</time>
      </trkpt>
      <trkpt lat="42.8759" lon="0.27245">
        <ele>2761.9</ele>
        <time>2021-11-18T13:11:13Z</time>
      </trkpt>
      <trkpt lat="42.87594" lon="0.27243">
        <ele>2764</ele>
        <time>2021-11-18T13:14:28Z</time>
      </trkpt>
      <trkpt lat="42.87591" lon="0.27245">
        <ele>2762.4</ele>
        <time>2021-11-18T13:18:45Z</time>
      </trkpt>
      <trkpt lat="42.87587" lon="0.27239">
        <ele>2761.8</ele>
        <time>2021-11-18T13:19:16Z</time>
      </trkpt>
      <trkpt lat="42.87585" lon="0.27234">
        <ele>2761.9</ele>
        <time>2021-11-18T13:19:26Z</time>
      </trkpt>
      <trkpt lat="42.87586" lon="0.27227">
        <ele>2763.7</ele>
        <time>2021-11-18T13:19:35Z</time>
      </trkpt>
      <trkpt lat="42.87587" lon="0.27225">
        <ele>2764.4</ele>
        <time>2021-11-18T13:19:38Z</time>
      </trkpt>
      <trkpt lat="42.87587" lon="0.27222">
        <ele>2765</ele>
        <time>2021-11-18T13:19:47Z</time>
      </trkpt>
      <trkpt lat="42.87588" lon="0.27216">
        <ele>2766.4</ele>
        <time>2021-11-18T13:19:55Z</time>
      </trkpt>
      <trkpt lat="42.87589" lon="0.27213">
        <ele>2767.3</ele>
        <time>2021-11-18T13:19:59Z</time>
      </trkpt>
      <trkpt lat="42.87587" lon="0.27209">
        <ele>2767.4</ele>
        <time>2021-11-18T13:20:13Z</time>
      </trkpt>
      <trkpt lat="42.87586" lon="0.27206">
        <ele>2767.7</ele>
        <time>2021-11-18T13:20:25Z</time>
      </trkpt>
      <trkpt lat="42.87585" lon="0.27204">
        <ele>2767.8</ele>
        <time>2021-11-18T13:20:30Z</time>
      </trkpt>
      <trkpt lat="42.87584" lon="0.27204">
        <ele>2767.6</ele>
        <time>2021-11-18T13:20:39Z</time>
      </trkpt>
      <trkpt lat="42.87583" lon="0.27201">
        <ele>2767.7</ele>
        <time>2021-11-18T13:20:44Z</time>
      </trkpt>
      <trkpt lat="42.87583" lon="0.27198">
        <ele>2768.3</ele>
        <time>2021-11-18T13:20:47Z</time>
      </trkpt>
      <trkpt lat="42.87585" lon="0.27194">
        <ele>2769.8</ele>
        <time>2021-11-18T13:20:53Z</time>
      </trkpt>
      <trkpt lat="42.87586" lon="0.27192">
        <ele>2770.4</ele>
        <time>2021-11-18T13:20:57Z</time>
      </trkpt>
      <trkpt lat="42.87587" lon="0.2719">
        <ele>2771</ele>
        <time>2021-11-18T13:21:03Z</time>
      </trkpt>
      <trkpt lat="42.87588" lon="0.27188">
        <ele>2771.6</ele>
        <time>2021-11-18T13:21:07Z</time>
      </trkpt>
      <trkpt lat="42.87586" lon="0.27183">
        <ele>2772.2</ele>
        <time>2021-11-18T13:21:13Z</time>
      </trkpt>
      <trkpt lat="42.87585" lon="0.27182">
        <ele>2772.2</ele>
        <time>2021-11-18T13:21:16Z</time>
      </trkpt>
      <trkpt lat="42.87583" lon="0.2718">
        <ele>2772</ele>
        <time>2021-11-18T13:21:21Z</time>
      </trkpt>
      <trkpt lat="42.87582" lon="0.27178">
        <ele>2771.4</ele>
        <time>2021-11-18T13:21:25Z</time>
      </trkpt>
      <trkpt lat="42.87581" lon="0.27176">
        <ele>2770.9</ele>
        <time>2021-11-18T13:21:30Z</time>
      </trkpt>
      <trkpt lat="42.8758" lon="0.27174">
        <ele>2770.4</ele>
        <time>2021-11-18T13:21:34Z</time>
      </trkpt>
      <trkpt lat="42.87578" lon="0.27172">
        <ele>2768.8</ele>
        <time>2021-11-18T13:21:40Z</time>
      </trkpt>
      <trkpt lat="42.87577" lon="0.27173">
        <ele>2767.7</ele>
        <time>2021-11-18T13:21:44Z</time>
      </trkpt>
      <trkpt lat="42.8757" lon="0.27167">
        <ele>2762</ele>
        <time>2021-11-18T13:22:05Z</time>
      </trkpt>
      <trkpt lat="42.87568" lon="0.27163">
        <ele>2757.2</ele>
        <time>2021-11-18T13:22:11Z</time>
      </trkpt>
      <trkpt lat="42.87568" lon="0.27158">
        <ele>2753.2</ele>
        <time>2021-11-18T13:22:18Z</time>
      </trkpt>
      <trkpt lat="42.87569" lon="0.27155">
        <ele>2751.7</ele>
        <time>2021-11-18T13:22:21Z</time>
      </trkpt>
      <trkpt lat="42.87568" lon="0.27153">
        <ele>2749.2</ele>
        <time>2021-11-18T13:22:26Z</time>
      </trkpt>
      <trkpt lat="42.87567" lon="0.27151">
        <ele>2746.8</ele>
        <time>2021-11-18T13:22:31Z</time>
      </trkpt>
      <trkpt lat="42.87566" lon="0.27149">
        <ele>2744.4</ele>
        <time>2021-11-18T13:22:35Z</time>
      </trkpt>
      <trkpt lat="42.87562" lon="0.27147">
        <ele>2739.5</ele>
        <time>2021-11-18T13:22:42Z</time>
      </trkpt>
      <trkpt lat="42.8756" lon="0.27148">
        <ele>2738.5</ele>
        <time>2021-11-18T13:22:47Z</time>
      </trkpt>
      <trkpt lat="42.87559" lon="0.27146">
        <ele>2736.2</ele>
        <time>2021-11-18T13:22:51Z</time>
      </trkpt>
      <trkpt lat="42.87559" lon="0.27144">
        <ele>2734.8</ele>
        <time>2021-11-18T13:22:54Z</time>
      </trkpt>
      <trkpt lat="42.87558" lon="0.27142">
        <ele>2732.5</ele>
        <time>2021-11-18T13:22:57Z</time>
      </trkpt>
      <trkpt lat="42.87556" lon="0.27141">
        <ele>2730.2</ele>
        <time>2021-11-18T13:23:01Z</time>
      </trkpt>
      <trkpt lat="42.87552" lon="0.27141">
        <ele>2727</ele>
        <time>2021-11-18T13:23:06Z</time>
      </trkpt>
      <trkpt lat="42.87547" lon="0.2714">
        <ele>2722.4</ele>
        <time>2021-11-18T13:23:17Z</time>
      </trkpt>
      <trkpt lat="42.87545" lon="0.27139">
        <ele>2720.2</ele>
        <time>2021-11-18T13:23:25Z</time>
      </trkpt>
      <trkpt lat="42.87546" lon="0.27133">
        <ele>2717.1</ele>
        <time>2021-11-18T13:23:36Z</time>
      </trkpt>
      <trkpt lat="42.87544" lon="0.27128">
        <ele>2712.5</ele>
        <time>2021-11-18T13:23:43Z</time>
      </trkpt>
      <trkpt lat="42.87545" lon="0.27125">
        <ele>2711.3</ele>
        <time>2021-11-18T13:23:46Z</time>
      </trkpt>
      <trkpt lat="42.87545" lon="0.2712">
        <ele>2708.1</ele>
        <time>2021-11-18T13:23:54Z</time>
      </trkpt>
      <trkpt lat="42.87547" lon="0.27118">
        <ele>2708.1</ele>
        <time>2021-11-18T13:23:57Z</time>
      </trkpt>
      <trkpt lat="42.87547" lon="0.27112">
        <ele>2704.2</ele>
        <time>2021-11-18T13:24:10Z</time>
      </trkpt>
      <trkpt lat="42.87548" lon="0.27107">
        <ele>2701.5</ele>
        <time>2021-11-18T13:24:16Z</time>
      </trkpt>
      <trkpt lat="42.87548" lon="0.27105">
        <ele>2700.2</ele>
        <time>2021-11-18T13:24:19Z</time>
      </trkpt>
      <trkpt lat="42.87546" lon="0.27103">
        <ele>2697.8</ele>
        <time>2021-11-18T13:24:25Z</time>
      </trkpt>
      <trkpt lat="42.87546" lon="0.27101">
        <ele>2696.6</ele>
        <time>2021-11-18T13:24:33Z</time>
      </trkpt>
      <trkpt lat="42.87546" lon="0.27099">
        <ele>2695.3</ele>
        <time>2021-11-18T13:24:37Z</time>
      </trkpt>
      <trkpt lat="42.87548" lon="0.27097">
        <ele>2695</ele>
        <time>2021-11-18T13:24:40Z</time>
      </trkpt>
      <trkpt lat="42.87551" lon="0.27094">
        <ele>2694.4</ele>
        <time>2021-11-18T13:24:46Z</time>
      </trkpt>
      <trkpt lat="42.87555" lon="0.27087">
        <ele>2691.4</ele>
        <time>2021-11-18T13:24:58Z</time>
      </trkpt>
      <trkpt lat="42.87557" lon="0.27079">
        <ele>2688.4</ele>
        <time>2021-11-18T13:25:10Z</time>
      </trkpt>
      <trkpt lat="42.87556" lon="0.27077">
        <ele>2687.4</ele>
        <time>2021-11-18T13:25:13Z</time>
      </trkpt>
      <trkpt lat="42.87557" lon="0.27074">
        <ele>2687</ele>
        <time>2021-11-18T13:25:16Z</time>
      </trkpt>
      <trkpt lat="42.87557" lon="0.27067">
        <ele>2685</ele>
        <time>2021-11-18T13:25:22Z</time>
      </trkpt>
      <trkpt lat="42.87558" lon="0.27065">
        <ele>2684.9</ele>
        <time>2021-11-18T13:25:24Z</time>
      </trkpt>
      <trkpt lat="42.8756" lon="0.27063">
        <ele>2685.1</ele>
        <time>2021-11-18T13:25:28Z</time>
      </trkpt>
      <trkpt lat="42.8756" lon="0.27058">
        <ele>2683.7</ele>
        <time>2021-11-18T13:25:34Z</time>
      </trkpt>
      <trkpt lat="42.87562" lon="0.27053">
        <ele>2683.2</ele>
        <time>2021-11-18T13:25:42Z</time>
      </trkpt>
      <trkpt lat="42.87562" lon="0.27045">
        <ele>2681</ele>
        <time>2021-11-18T13:25:54Z</time>
      </trkpt>
      <trkpt lat="42.87561" lon="0.27043">
        <ele>2680</ele>
        <time>2021-11-18T13:25:57Z</time>
      </trkpt>
      <trkpt lat="42.87562" lon="0.27039">
        <ele>2679.3</ele>
        <time>2021-11-18T13:26:00Z</time>
      </trkpt>
      <trkpt lat="42.87563" lon="0.27037">
        <ele>2679.2</ele>
        <time>2021-11-18T13:26:03Z</time>
      </trkpt>
      <trkpt lat="42.87563" lon="0.27018">
        <ele>2673.9</ele>
        <time>2021-11-18T13:26:35Z</time>
      </trkpt>
      <trkpt lat="42.87563" lon="0.27015">
        <ele>2673.1</ele>
        <time>2021-11-18T13:26:40Z</time>
      </trkpt>
      <trkpt lat="42.87564" lon="0.27013">
        <ele>2673</ele>
        <time>2021-11-18T13:26:45Z</time>
      </trkpt>
      <trkpt lat="42.87563" lon="0.27011">
        <ele>2672</ele>
        <time>2021-11-18T13:26:49Z</time>
      </trkpt>
      <trkpt lat="42.87562" lon="0.27008">
        <ele>2670.7</ele>
        <time>2021-11-18T13:26:58Z</time>
      </trkpt>
      <trkpt lat="42.87562" lon="0.27005">
        <ele>2669.9</ele>
        <time>2021-11-18T13:27:03Z</time>
      </trkpt>
      <trkpt lat="42.87561" lon="0.27002">
        <ele>2668.6</ele>
        <time>2021-11-18T13:27:08Z</time>
      </trkpt>
      <trkpt lat="42.8756" lon="0.27">
        <ele>2667.6</ele>
        <time>2021-11-18T13:27:12Z</time>
      </trkpt>
      <trkpt lat="42.87558" lon="0.26999">
        <ele>2666.3</ele>
        <time>2021-11-18T13:27:17Z</time>
      </trkpt>
      <trkpt lat="42.87559" lon="0.26996">
        <ele>2665.4</ele>
        <time>2021-11-18T13:27:24Z</time>
      </trkpt>
      <trkpt lat="42.87559" lon="0.26989">
        <ele>2662.2</ele>
        <time>2021-11-18T13:27:36Z</time>
      </trkpt>
      <trkpt lat="42.87559" lon="0.2697">
        <ele>2653.5</ele>
        <time>2021-11-18T13:28:01Z</time>
      </trkpt>
      <trkpt lat="42.8756" lon="0.26967">
        <ele>2652.5</ele>
        <time>2021-11-18T13:28:05Z</time>
      </trkpt>
      <trkpt lat="42.8756" lon="0.26964">
        <ele>2651.2</ele>
        <time>2021-11-18T13:28:09Z</time>
      </trkpt>
      <trkpt lat="42.87561" lon="0.26962">
        <ele>2650.7</ele>
        <time>2021-11-18T13:28:12Z</time>
      </trkpt>
      <trkpt lat="42.87561" lon="0.26959">
        <ele>2649.4</ele>
        <time>2021-11-18T13:28:23Z</time>
      </trkpt>
      <trkpt lat="42.87563" lon="0.26958">
        <ele>2649.8</ele>
        <time>2021-11-18T13:28:28Z</time>
      </trkpt>
      <trkpt lat="42.87564" lon="0.26956">
        <ele>2649.4</ele>
        <time>2021-11-18T13:28:32Z</time>
      </trkpt>
      <trkpt lat="42.87568" lon="0.26941">
        <ele>2644.5</ele>
        <time>2021-11-18T13:28:53Z</time>
      </trkpt>
      <trkpt lat="42.8757" lon="0.26939">
        <ele>2644.5</ele>
        <time>2021-11-18T13:28:57Z</time>
      </trkpt>
      <trkpt lat="42.87572" lon="0.26939">
        <ele>2645.5</ele>
        <time>2021-11-18T13:29:01Z</time>
      </trkpt>
      <trkpt lat="42.87575" lon="0.26936">
        <ele>2645.6</ele>
        <time>2021-11-18T13:29:08Z</time>
      </trkpt>
      <trkpt lat="42.87575" lon="0.26934">
        <ele>2644.7</ele>
        <time>2021-11-18T13:30:26Z</time>
      </trkpt>
      <trkpt lat="42.8757" lon="0.26919">
        <ele>2635.5</ele>
        <time>2021-11-18T13:30:49Z</time>
      </trkpt>
      <trkpt lat="42.87567" lon="0.26915">
        <ele>2632.1</ele>
        <time>2021-11-18T13:30:53Z</time>
      </trkpt>
      <trkpt lat="42.87566" lon="0.26912">
        <ele>2630</ele>
        <time>2021-11-18T13:30:56Z</time>
      </trkpt>
      <trkpt lat="42.87566" lon="0.26911">
        <ele>2629.4</ele>
        <time>2021-11-18T13:31:11Z</time>
      </trkpt>
      <trkpt lat="42.87568" lon="0.26905">
        <ele>2627.2</ele>
        <time>2021-11-18T13:31:17Z</time>
      </trkpt>
      <trkpt lat="42.87572" lon="0.26898">
        <ele>2625.6</ele>
        <time>2021-11-18T13:31:26Z</time>
      </trkpt>
      <trkpt lat="42.87572" lon="0.26896">
        <ele>2624.6</ele>
        <time>2021-11-18T13:31:30Z</time>
      </trkpt>
      <trkpt lat="42.87574" lon="0.26882">
        <ele>2618.3</ele>
        <time>2021-11-18T13:31:56Z</time>
      </trkpt>
      <trkpt lat="42.8758" lon="0.26878">
        <ele>2619.6</ele>
        <time>2021-11-18T13:32:13Z</time>
      </trkpt>
      <trkpt lat="42.87582" lon="0.26873">
        <ele>2618.2</ele>
        <time>2021-11-18T13:32:19Z</time>
      </trkpt>
      <trkpt lat="42.87582" lon="0.2687">
        <ele>2616.7</ele>
        <time>2021-11-18T13:32:22Z</time>
      </trkpt>
      <trkpt lat="42.87582" lon="0.26864">
        <ele>2613.7</ele>
        <time>2021-11-18T13:32:28Z</time>
      </trkpt>
      <trkpt lat="42.87582" lon="0.26862">
        <ele>2612.7</ele>
        <time>2021-11-18T13:32:31Z</time>
      </trkpt>
      <trkpt lat="42.87585" lon="0.26856">
        <ele>2611.5</ele>
        <time>2021-11-18T13:32:37Z</time>
      </trkpt>
      <trkpt lat="42.87586" lon="0.26854">
        <ele>2611.2</ele>
        <time>2021-11-18T13:32:40Z</time>
      </trkpt>
      <trkpt lat="42.87587" lon="0.26852">
        <ele>2610.8</ele>
        <time>2021-11-18T13:32:43Z</time>
      </trkpt>
      <trkpt lat="42.87586" lon="0.26849">
        <ele>2608.7</ele>
        <time>2021-11-18T13:32:55Z</time>
      </trkpt>
      <trkpt lat="42.87584" lon="0.26847">
        <ele>2606.3</ele>
        <time>2021-11-18T13:32:58Z</time>
      </trkpt>
      <trkpt lat="42.87583" lon="0.26842">
        <ele>2603.2</ele>
        <time>2021-11-18T13:33:15Z</time>
      </trkpt>
      <trkpt lat="42.87584" lon="0.2684">
        <ele>2602.8</ele>
        <time>2021-11-18T13:33:18Z</time>
      </trkpt>
      <trkpt lat="42.87583" lon="0.26838">
        <ele>2601.1</ele>
        <time>2021-11-18T13:33:31Z</time>
      </trkpt>
      <trkpt lat="42.87584" lon="0.26831">
        <ele>2598.8</ele>
        <time>2021-11-18T13:34:29Z</time>
      </trkpt>
      <trkpt lat="42.87585" lon="0.26828">
        <ele>2598.7</ele>
        <time>2021-11-18T13:34:32Z</time>
      </trkpt>
      <trkpt lat="42.87586" lon="0.26817">
        <ele>2596.5</ele>
        <time>2021-11-18T13:34:45Z</time>
      </trkpt>
      <trkpt lat="42.87589" lon="0.26805">
        <ele>2595.3</ele>
        <time>2021-11-18T13:34:55Z</time>
      </trkpt>
      <trkpt lat="42.87593" lon="0.26797">
        <ele>2595.9</ele>
        <time>2021-11-18T13:35:12Z</time>
      </trkpt>
      <trkpt lat="42.87592" lon="0.26795">
        <ele>2594.7</ele>
        <time>2021-11-18T13:35:17Z</time>
      </trkpt>
      <trkpt lat="42.87592" lon="0.26789">
        <ele>2593.1</ele>
        <time>2021-11-18T13:35:33Z</time>
      </trkpt>
      <trkpt lat="42.87594" lon="0.26787">
        <ele>2593.9</ele>
        <time>2021-11-18T13:35:35Z</time>
      </trkpt>
      <trkpt lat="42.87594" lon="0.26785">
        <ele>2593.4</ele>
        <time>2021-11-18T13:35:47Z</time>
      </trkpt>
      <trkpt lat="42.87592" lon="0.26783">
        <ele>2591.5</ele>
        <time>2021-11-18T13:35:49Z</time>
      </trkpt>
      <trkpt lat="42.8759" lon="0.26779">
        <ele>2589.1</ele>
        <time>2021-11-18T13:35:53Z</time>
      </trkpt>
      <trkpt lat="42.87585" lon="0.26767">
        <ele>2582.6</ele>
        <time>2021-11-18T13:36:05Z</time>
      </trkpt>
      <trkpt lat="42.87585" lon="0.26765">
        <ele>2582.1</ele>
        <time>2021-11-18T13:36:09Z</time>
      </trkpt>
      <trkpt lat="42.87585" lon="0.26757">
        <ele>2580</ele>
        <time>2021-11-18T13:36:20Z</time>
      </trkpt>
      <trkpt lat="42.87586" lon="0.26755">
        <ele>2580.1</ele>
        <time>2021-11-18T13:36:23Z</time>
      </trkpt>
      <trkpt lat="42.87586" lon="0.26751">
        <ele>2579</ele>
        <time>2021-11-18T13:36:26Z</time>
      </trkpt>
      <trkpt lat="42.87586" lon="0.26748">
        <ele>2578.4</ele>
        <time>2021-11-18T13:36:29Z</time>
      </trkpt>
      <trkpt lat="42.87583" lon="0.26736">
        <ele>2574.2</ele>
        <time>2021-11-18T13:36:41Z</time>
      </trkpt>
      <trkpt lat="42.87584" lon="0.26731">
        <ele>2574</ele>
        <time>2021-11-18T13:36:46Z</time>
      </trkpt>
      <trkpt lat="42.87585" lon="0.26729">
        <ele>2574.3</ele>
        <time>2021-11-18T13:36:49Z</time>
      </trkpt>
      <trkpt lat="42.87585" lon="0.26725">
        <ele>2573.6</ele>
        <time>2021-11-18T13:36:53Z</time>
      </trkpt>
      <trkpt lat="42.87584" lon="0.2672">
        <ele>2572</ele>
        <time>2021-11-18T13:37:00Z</time>
      </trkpt>
      <trkpt lat="42.87583" lon="0.26717">
        <ele>2570.8</ele>
        <time>2021-11-18T13:37:04Z</time>
      </trkpt>
      <trkpt lat="42.87584" lon="0.26715">
        <ele>2571.1</ele>
        <time>2021-11-18T13:37:08Z</time>
      </trkpt>
      <trkpt lat="42.87583" lon="0.26712">
        <ele>2569.9</ele>
        <time>2021-11-18T13:37:13Z</time>
      </trkpt>
      <trkpt lat="42.87581" lon="0.26696">
        <ele>2565.6</ele>
        <time>2021-11-18T13:37:36Z</time>
      </trkpt>
      <trkpt lat="42.87578" lon="0.26691">
        <ele>2562.5</ele>
        <time>2021-11-18T13:37:41Z</time>
      </trkpt>
      <trkpt lat="42.87578" lon="0.26688">
        <ele>2561.9</ele>
        <time>2021-11-18T13:37:43Z</time>
      </trkpt>
      <trkpt lat="42.87578" lon="0.26685">
        <ele>2561.4</ele>
        <time>2021-11-18T13:37:48Z</time>
      </trkpt>
      <trkpt lat="42.87579" lon="0.26682">
        <ele>2561.5</ele>
        <time>2021-11-18T13:37:54Z</time>
      </trkpt>
      <trkpt lat="42.87581" lon="0.26676">
        <ele>2561.9</ele>
        <time>2021-11-18T13:38:00Z</time>
      </trkpt>
      <trkpt lat="42.87581" lon="0.26673">
        <ele>2561.4</ele>
        <time>2021-11-18T13:38:03Z</time>
      </trkpt>
      <trkpt lat="42.87581" lon="0.26669">
        <ele>2560.7</ele>
        <time>2021-11-18T13:38:06Z</time>
      </trkpt>
      <trkpt lat="42.87581" lon="0.26658">
        <ele>2558.4</ele>
        <time>2021-11-18T13:38:20Z</time>
      </trkpt>
      <trkpt lat="42.87583" lon="0.26658">
        <ele>2559.9</ele>
        <time>2021-11-18T13:38:28Z</time>
      </trkpt>
      <trkpt lat="42.87583" lon="0.26652">
        <ele>2558.6</ele>
        <time>2021-11-18T13:38:42Z</time>
      </trkpt>
      <trkpt lat="42.87585" lon="0.26642">
        <ele>2557.8</ele>
        <time>2021-11-18T13:38:51Z</time>
      </trkpt>
      <trkpt lat="42.87586" lon="0.26639">
        <ele>2557.9</ele>
        <time>2021-11-18T13:38:54Z</time>
      </trkpt>
      <trkpt lat="42.87586" lon="0.26638">
        <ele>2557.7</ele>
        <time>2021-11-18T13:39:06Z</time>
      </trkpt>
      <trkpt lat="42.87583" lon="0.26636">
        <ele>2555.1</ele>
        <time>2021-11-18T13:39:16Z</time>
      </trkpt>
      <trkpt lat="42.87583" lon="0.26616">
        <ele>2550.8</ele>
        <time>2021-11-18T13:39:37Z</time>
      </trkpt>
      <trkpt lat="42.87583" lon="0.26614">
        <ele>2550.4</ele>
        <time>2021-11-18T13:39:47Z</time>
      </trkpt>
      <trkpt lat="42.87584" lon="0.26611">
        <ele>2550.5</ele>
        <time>2021-11-18T13:39:51Z</time>
      </trkpt>
      <trkpt lat="42.87584" lon="0.26609">
        <ele>2550</ele>
        <time>2021-11-18T13:39:53Z</time>
      </trkpt>
      <trkpt lat="42.87585" lon="0.26602">
        <ele>2549.3</ele>
        <time>2021-11-18T13:39:59Z</time>
      </trkpt>
      <trkpt lat="42.87584" lon="0.26596">
        <ele>2547.2</ele>
        <time>2021-11-18T13:40:06Z</time>
      </trkpt>
      <trkpt lat="42.87583" lon="0.26593">
        <ele>2545.8</ele>
        <time>2021-11-18T13:40:10Z</time>
      </trkpt>
      <trkpt lat="42.87583" lon="0.26584">
        <ele>2543.9</ele>
        <time>2021-11-18T13:40:21Z</time>
      </trkpt>
      <trkpt lat="42.87584" lon="0.26581">
        <ele>2544.3</ele>
        <time>2021-11-18T13:40:28Z</time>
      </trkpt>
      <trkpt lat="42.87584" lon="0.26574">
        <ele>2543.6</ele>
        <time>2021-11-18T13:40:39Z</time>
      </trkpt>
      <trkpt lat="42.87582" lon="0.26562">
        <ele>2541</ele>
        <time>2021-11-18T13:40:53Z</time>
      </trkpt>
      <trkpt lat="42.87581" lon="0.2656">
        <ele>2540.1</ele>
        <time>2021-11-18T13:40:56Z</time>
      </trkpt>
      <trkpt lat="42.87581" lon="0.26557">
        <ele>2539.8</ele>
        <time>2021-11-18T13:40:59Z</time>
      </trkpt>
      <trkpt lat="42.87579" lon="0.26554">
        <ele>2538</ele>
        <time>2021-11-18T13:41:02Z</time>
      </trkpt>
      <trkpt lat="42.87577" lon="0.26552">
        <ele>2536.4</ele>
        <time>2021-11-18T13:41:05Z</time>
      </trkpt>
      <trkpt lat="42.87576" lon="0.26549">
        <ele>2535.4</ele>
        <time>2021-11-18T13:41:08Z</time>
      </trkpt>
      <trkpt lat="42.87576" lon="0.26547">
        <ele>2535.2</ele>
        <time>2021-11-18T13:41:11Z</time>
      </trkpt>
      <trkpt lat="42.87575" lon="0.26544">
        <ele>2534.1</ele>
        <time>2021-11-18T13:41:14Z</time>
      </trkpt>
      <trkpt lat="42.87574" lon="0.26542">
        <ele>2533.2</ele>
        <time>2021-11-18T13:41:17Z</time>
      </trkpt>
      <trkpt lat="42.87572" lon="0.26542">
        <ele>2531.7</ele>
        <time>2021-11-18T13:41:29Z</time>
      </trkpt>
      <trkpt lat="42.87569" lon="0.26547">
        <ele>2530</ele>
        <time>2021-11-18T13:41:35Z</time>
      </trkpt>
      <trkpt lat="42.87566" lon="0.26549">
        <ele>2528.1</ele>
        <time>2021-11-18T13:41:42Z</time>
      </trkpt>
      <trkpt lat="42.87562" lon="0.26557">
        <ele>2526</ele>
        <time>2021-11-18T13:41:53Z</time>
      </trkpt>
      <trkpt lat="42.8756" lon="0.26558">
        <ele>2524.6</ele>
        <time>2021-11-18T13:41:57Z</time>
      </trkpt>
      <trkpt lat="42.87558" lon="0.26559">
        <ele>2523.2</ele>
        <time>2021-11-18T13:42:00Z</time>
      </trkpt>
      <trkpt lat="42.87556" lon="0.2656">
        <ele>2521.9</ele>
        <time>2021-11-18T13:42:03Z</time>
      </trkpt>
      <trkpt lat="42.87554" lon="0.26561">
        <ele>2520.5</ele>
        <time>2021-11-18T13:42:08Z</time>
      </trkpt>
      <trkpt lat="42.87549" lon="0.26564">
        <ele>2517.2</ele>
        <time>2021-11-18T13:42:21Z</time>
      </trkpt>
      <trkpt lat="42.87547" lon="0.26567">
        <ele>2516.1</ele>
        <time>2021-11-18T13:42:27Z</time>
      </trkpt>
      <trkpt lat="42.87545" lon="0.26568">
        <ele>2514.8</ele>
        <time>2021-11-18T13:42:32Z</time>
      </trkpt>
      <trkpt lat="42.87543" lon="0.26573">
        <ele>2513.8</ele>
        <time>2021-11-18T13:42:39Z</time>
      </trkpt>
      <trkpt lat="42.87541" lon="0.26573">
        <ele>2512.4</ele>
        <time>2021-11-18T13:42:51Z</time>
      </trkpt>
      <trkpt lat="42.8754" lon="0.26576">
        <ele>2512</ele>
        <time>2021-11-18T13:44:11Z</time>
      </trkpt>
      <trkpt lat="42.87539" lon="0.26579">
        <ele>2511.6</ele>
        <time>2021-11-18T13:44:20Z</time>
      </trkpt>
      <trkpt lat="42.87536" lon="0.2658">
        <ele>2509.6</ele>
        <time>2021-11-18T13:44:23Z</time>
      </trkpt>
      <trkpt lat="42.87534" lon="0.26579">
        <ele>2508</ele>
        <time>2021-11-18T13:44:35Z</time>
      </trkpt>
      <trkpt lat="42.87536" lon="0.26572">
        <ele>2508.7</ele>
        <time>2021-11-18T13:44:43Z</time>
      </trkpt>
      <trkpt lat="42.87534" lon="0.26574">
        <ele>2507.5</ele>
        <time>2021-11-18T13:44:53Z</time>
      </trkpt>
      <trkpt lat="42.87533" lon="0.26576">
        <ele>2506.9</ele>
        <time>2021-11-18T13:44:56Z</time>
      </trkpt>
      <trkpt lat="42.87531" lon="0.26578">
        <ele>2505.7</ele>
        <time>2021-11-18T13:44:59Z</time>
      </trkpt>
      <trkpt lat="42.8753" lon="0.26578">
        <ele>2505</ele>
        <time>2021-11-18T13:45:06Z</time>
      </trkpt>
      <trkpt lat="42.87528" lon="0.26579">
        <ele>2503.7</ele>
        <time>2021-11-18T13:45:16Z</time>
      </trkpt>
      <trkpt lat="42.87522" lon="0.26587">
        <ele>2500.5</ele>
        <time>2021-11-18T13:45:27Z</time>
      </trkpt>
      <trkpt lat="42.87518" lon="0.26588">
        <ele>2497.8</ele>
        <time>2021-11-18T13:45:34Z</time>
      </trkpt>
      <trkpt lat="42.87516" lon="0.26583">
        <ele>2495.5</ele>
        <time>2021-11-18T13:45:42Z</time>
      </trkpt>
      <trkpt lat="42.87515" lon="0.26581">
        <ele>2494.5</ele>
        <time>2021-11-18T13:45:45Z</time>
      </trkpt>
      <trkpt lat="42.87513" lon="0.26584">
        <ele>2493.5</ele>
        <time>2021-11-18T13:45:53Z</time>
      </trkpt>
      <trkpt lat="42.87512" lon="0.26587">
        <ele>2493.3</ele>
        <time>2021-11-18T13:46:00Z</time>
      </trkpt>
      <trkpt lat="42.87508" lon="0.26592">
        <ele>2491.3</ele>
        <time>2021-11-18T13:46:09Z</time>
      </trkpt>
      <trkpt lat="42.87508" lon="0.26595">
        <ele>2491.9</ele>
        <time>2021-11-18T13:46:28Z</time>
      </trkpt>
      <trkpt lat="42.87506" lon="0.26596">
        <ele>2490.6</ele>
        <time>2021-11-18T13:46:30Z</time>
      </trkpt>
      <trkpt lat="42.875" lon="0.26607">
        <ele>2488.3</ele>
        <time>2021-11-18T13:46:45Z</time>
      </trkpt>
      <trkpt lat="42.87499" lon="0.26609">
        <ele>2487.9</ele>
        <time>2021-11-18T13:46:48Z</time>
      </trkpt>
      <trkpt lat="42.87495" lon="0.26612">
        <ele>2485.8</ele>
        <time>2021-11-18T13:46:58Z</time>
      </trkpt>
      <trkpt lat="42.8749" lon="0.2662">
        <ele>2483.9</ele>
        <time>2021-11-18T13:47:07Z</time>
      </trkpt>
      <trkpt lat="42.87488" lon="0.26621">
        <ele>2482.8</ele>
        <time>2021-11-18T13:47:10Z</time>
      </trkpt>
      <trkpt lat="42.87486" lon="0.26622">
        <ele>2481.6</ele>
        <time>2021-11-18T13:47:13Z</time>
      </trkpt>
      <trkpt lat="42.87484" lon="0.26626">
        <ele>2481</ele>
        <time>2021-11-18T13:47:20Z</time>
      </trkpt>
      <trkpt lat="42.87482" lon="0.26627">
        <ele>2479.9</ele>
        <time>2021-11-18T13:47:26Z</time>
      </trkpt>
      <trkpt lat="42.87482" lon="0.26629">
        <ele>2480.3</ele>
        <time>2021-11-18T13:47:30Z</time>
      </trkpt>
      <trkpt lat="42.87481" lon="0.2663">
        <ele>2479.8</ele>
        <time>2021-11-18T13:47:43Z</time>
      </trkpt>
      <trkpt lat="42.87479" lon="0.26633">
        <ele>2479.1</ele>
        <time>2021-11-18T13:47:49Z</time>
      </trkpt>
      <trkpt lat="42.87475" lon="0.26635">
        <ele>2476.8</ele>
        <time>2021-11-18T13:47:55Z</time>
      </trkpt>
      <trkpt lat="42.87473" lon="0.26636">
        <ele>2475.7</ele>
        <time>2021-11-18T13:47:57Z</time>
      </trkpt>
      <trkpt lat="42.8747" lon="0.26641">
        <ele>2474.7</ele>
        <time>2021-11-18T13:48:03Z</time>
      </trkpt>
      <trkpt lat="42.87469" lon="0.26643">
        <ele>2474.5</ele>
        <time>2021-11-18T13:48:06Z</time>
      </trkpt>
      <trkpt lat="42.87469" lon="0.26637">
        <ele>2473.3</ele>
        <time>2021-11-18T13:48:13Z</time>
      </trkpt>
      <trkpt lat="42.87467" lon="0.26636">
        <ele>2471.8</ele>
        <time>2021-11-18T13:48:16Z</time>
      </trkpt>
      <trkpt lat="42.87466" lon="0.26638">
        <ele>2471.5</ele>
        <time>2021-11-18T13:48:21Z</time>
      </trkpt>
      <trkpt lat="42.87463" lon="0.2664">
        <ele>2470</ele>
        <time>2021-11-18T13:48:25Z</time>
      </trkpt>
      <trkpt lat="42.87461" lon="0.26641">
        <ele>2468.9</ele>
        <time>2021-11-18T13:48:28Z</time>
      </trkpt>
      <trkpt lat="42.8746" lon="0.26642">
        <ele>2468.4</ele>
        <time>2021-11-18T13:48:31Z</time>
      </trkpt>
      <trkpt lat="42.87458" lon="0.26645">
        <ele>2467.7</ele>
        <time>2021-11-18T13:48:35Z</time>
      </trkpt>
      <trkpt lat="42.87457" lon="0.26647">
        <ele>2467.5</ele>
        <time>2021-11-18T13:48:40Z</time>
      </trkpt>
      <trkpt lat="42.87456" lon="0.2665">
        <ele>2467.5</ele>
        <time>2021-11-18T13:48:45Z</time>
      </trkpt>
      <trkpt lat="42.87455" lon="0.26653">
        <ele>2467.5</ele>
        <time>2021-11-18T13:48:48Z</time>
      </trkpt>
      <trkpt lat="42.87454" lon="0.26654">
        <ele>2467</ele>
        <time>2021-11-18T13:48:56Z</time>
      </trkpt>
      <trkpt lat="42.87455" lon="0.26656">
        <ele>2468.1</ele>
        <time>2021-11-18T13:49:10Z</time>
      </trkpt>
      <trkpt lat="42.87454" lon="0.26659">
        <ele>2468.1</ele>
        <time>2021-11-18T13:49:13Z</time>
      </trkpt>
      <trkpt lat="42.87453" lon="0.26661">
        <ele>2467.9</ele>
        <time>2021-11-18T13:49:15Z</time>
      </trkpt>
      <trkpt lat="42.87451" lon="0.26663">
        <ele>2467</ele>
        <time>2021-11-18T13:49:18Z</time>
      </trkpt>
      <trkpt lat="42.87449" lon="0.26667">
        <ele>2466.7</ele>
        <time>2021-11-18T13:49:22Z</time>
      </trkpt>
      <trkpt lat="42.87447" lon="0.26669">
        <ele>2466.3</ele>
        <time>2021-11-18T13:49:24Z</time>
      </trkpt>
      <trkpt lat="42.87431" lon="0.26682">
        <ele>2462.2</ele>
        <time>2021-11-18T13:49:43Z</time>
      </trkpt>
      <trkpt lat="42.8743" lon="0.26684">
        <ele>2462.5</ele>
        <time>2021-11-18T13:49:45Z</time>
      </trkpt>
      <trkpt lat="42.87423" lon="0.26688">
        <ele>2460.4</ele>
        <time>2021-11-18T13:49:54Z</time>
      </trkpt>
      <trkpt lat="42.87421" lon="0.26688">
        <ele>2459.2</ele>
        <time>2021-11-18T13:49:57Z</time>
      </trkpt>
      <trkpt lat="42.87425" lon="0.26684">
        <ele>2459.6</ele>
        <time>2021-11-18T13:50:20Z</time>
      </trkpt>
      <trkpt lat="42.87427" lon="0.26679">
        <ele>2458.4</ele>
        <time>2021-11-18T13:50:24Z</time>
      </trkpt>
      <trkpt lat="42.87427" lon="0.26676">
        <ele>2457</ele>
        <time>2021-11-18T13:50:26Z</time>
      </trkpt>
      <trkpt lat="42.87431" lon="0.26657">
        <ele>2452.9</ele>
        <time>2021-11-18T13:50:42Z</time>
      </trkpt>
      <trkpt lat="42.87433" lon="0.26649">
        <ele>2452.4</ele>
        <time>2021-11-18T13:50:48Z</time>
      </trkpt>
      <trkpt lat="42.87433" lon="0.26646">
        <ele>2451.7</ele>
        <time>2021-11-18T13:50:54Z</time>
      </trkpt>
      <trkpt lat="42.87431" lon="0.26643">
        <ele>2449.7</ele>
        <time>2021-11-18T13:51:01Z</time>
      </trkpt>
      <trkpt lat="42.87431" lon="0.2664">
        <ele>2449</ele>
        <time>2021-11-18T13:51:06Z</time>
      </trkpt>
      <trkpt lat="42.87427" lon="0.26618">
        <ele>2441.3</ele>
        <time>2021-11-18T13:51:27Z</time>
      </trkpt>
      <trkpt lat="42.87428" lon="0.26613">
        <ele>2440.8</ele>
        <time>2021-11-18T13:51:33Z</time>
      </trkpt>
      <trkpt lat="42.87431" lon="0.26608">
        <ele>2441.6</ele>
        <time>2021-11-18T13:51:41Z</time>
      </trkpt>
      <trkpt lat="42.87429" lon="0.26606">
        <ele>2439.8</ele>
        <time>2021-11-18T13:51:49Z</time>
      </trkpt>
      <trkpt lat="42.87429" lon="0.26603">
        <ele>2439.1</ele>
        <time>2021-11-18T13:51:53Z</time>
      </trkpt>
      <trkpt lat="42.87431" lon="0.26598">
        <ele>2439.3</ele>
        <time>2021-11-18T13:52:15Z</time>
      </trkpt>
      <trkpt lat="42.8743" lon="0.26597">
        <ele>2438.4</ele>
        <time>2021-11-18T13:52:24Z</time>
      </trkpt>
      <trkpt lat="42.87427" lon="0.2659">
        <ele>2434.7</ele>
        <time>2021-11-18T13:52:31Z</time>
      </trkpt>
      <trkpt lat="42.87426" lon="0.26587">
        <ele>2433.4</ele>
        <time>2021-11-18T13:52:33Z</time>
      </trkpt>
      <trkpt lat="42.87423" lon="0.2658">
        <ele>2429.7</ele>
        <time>2021-11-18T13:52:40Z</time>
      </trkpt>
      <trkpt lat="42.87421" lon="0.26578">
        <ele>2428</ele>
        <time>2021-11-18T13:52:46Z</time>
      </trkpt>
      <trkpt lat="42.8742" lon="0.26572">
        <ele>2426</ele>
        <time>2021-11-18T13:52:53Z</time>
      </trkpt>
      <trkpt lat="42.87418" lon="0.26572">
        <ele>2424.6</ele>
        <time>2021-11-18T13:52:56Z</time>
      </trkpt>
      <trkpt lat="42.87413" lon="0.26577">
        <ele>2423.7</ele>
        <time>2021-11-18T13:53:03Z</time>
      </trkpt>
      <trkpt lat="42.87412" lon="0.26574">
        <ele>2422.8</ele>
        <time>2021-11-18T13:53:07Z</time>
      </trkpt>
      <trkpt lat="42.8741" lon="0.26572">
        <ele>2421.8</ele>
        <time>2021-11-18T13:53:09Z</time>
      </trkpt>
      <trkpt lat="42.87409" lon="0.26571">
        <ele>2421.3</ele>
        <time>2021-11-18T13:53:11Z</time>
      </trkpt>
      <trkpt lat="42.87408" lon="0.26568">
        <ele>2420.3</ele>
        <time>2021-11-18T13:53:14Z</time>
      </trkpt>
      <trkpt lat="42.87407" lon="0.26566">
        <ele>2419.5</ele>
        <time>2021-11-18T13:53:16Z</time>
      </trkpt>
      <trkpt lat="42.87404" lon="0.26562">
        <ele>2417.6</ele>
        <time>2021-11-18T13:53:22Z</time>
      </trkpt>
      <trkpt lat="42.87404" lon="0.2656">
        <ele>2417.2</ele>
        <time>2021-11-18T13:53:24Z</time>
      </trkpt>
      <trkpt lat="42.87403" lon="0.26557">
        <ele>2416.1</ele>
        <time>2021-11-18T13:53:26Z</time>
      </trkpt>
      <trkpt lat="42.87402" lon="0.26558">
        <ele>2416</ele>
        <time>2021-11-18T13:53:36Z</time>
      </trkpt>
      <trkpt lat="42.87398" lon="0.26564">
        <ele>2416.3</ele>
        <time>2021-11-18T13:53:43Z</time>
      </trkpt>
      <trkpt lat="42.87397" lon="0.26565">
        <ele>2416.2</ele>
        <time>2021-11-18T13:53:45Z</time>
      </trkpt>
      <trkpt lat="42.87395" lon="0.26566">
        <ele>2415.9</ele>
        <time>2021-11-18T13:53:47Z</time>
      </trkpt>
      <trkpt lat="42.87393" lon="0.26567">
        <ele>2415.5</ele>
        <time>2021-11-18T13:53:49Z</time>
      </trkpt>
      <trkpt lat="42.8739" lon="0.2657">
        <ele>2415.5</ele>
        <time>2021-11-18T13:53:54Z</time>
      </trkpt>
      <trkpt lat="42.87389" lon="0.26572">
        <ele>2415.8</ele>
        <time>2021-11-18T13:53:57Z</time>
      </trkpt>
      <trkpt lat="42.87388" lon="0.26575">
        <ele>2416.4</ele>
        <time>2021-11-18T13:54:00Z</time>
      </trkpt>
      <trkpt lat="42.87388" lon="0.26578">
        <ele>2417.2</ele>
        <time>2021-11-18T13:54:04Z</time>
      </trkpt>
      <trkpt lat="42.87387" lon="0.26581">
        <ele>2417.8</ele>
        <time>2021-11-18T13:54:19Z</time>
      </trkpt>
      <trkpt lat="42.87386" lon="0.26583">
        <ele>2418.2</ele>
        <time>2021-11-18T13:54:22Z</time>
      </trkpt>
      <trkpt lat="42.87385" lon="0.26585">
        <ele>2418.5</ele>
        <time>2021-11-18T13:54:26Z</time>
      </trkpt>
      <trkpt lat="42.87384" lon="0.26588">
        <ele>2419.1</ele>
        <time>2021-11-18T13:54:31Z</time>
      </trkpt>
      <trkpt lat="42.8738" lon="0.26591">
        <ele>2419</ele>
        <time>2021-11-18T13:54:36Z</time>
      </trkpt>
      <trkpt lat="42.87377" lon="0.26595">
        <ele>2419.5</ele>
        <time>2021-11-18T13:54:40Z</time>
      </trkpt>
      <trkpt lat="42.87375" lon="0.26595">
        <ele>2419.1</ele>
        <time>2021-11-18T13:54:44Z</time>
      </trkpt>
      <trkpt lat="42.87373" lon="0.26599">
        <ele>2419.8</ele>
        <time>2021-11-18T13:54:52Z</time>
      </trkpt>
      <trkpt lat="42.87369" lon="0.26602">
        <ele>2419.9</ele>
        <time>2021-11-18T13:55:01Z</time>
      </trkpt>
      <trkpt lat="42.87368" lon="0.26605">
        <ele>2420.6</ele>
        <time>2021-11-18T13:55:22Z</time>
      </trkpt>
      <trkpt lat="42.87357" lon="0.26619">
        <ele>2422.9</ele>
        <time>2021-11-18T13:55:40Z</time>
      </trkpt>
      <trkpt lat="42.87355" lon="0.26626">
        <ele>2424.9</ele>
        <time>2021-11-18T13:55:48Z</time>
      </trkpt>
      <trkpt lat="42.87347" lon="0.26637">
        <ele>2427.2</ele>
        <time>2021-11-18T13:55:59Z</time>
      </trkpt>
      <trkpt lat="42.87345" lon="0.26639">
        <ele>2427.6</ele>
        <time>2021-11-18T13:56:01Z</time>
      </trkpt>
      <trkpt lat="42.87345" lon="0.26636">
        <ele>2426.6</ele>
        <time>2021-11-18T13:56:06Z</time>
      </trkpt>
      <trkpt lat="42.87346" lon="0.26624">
        <ele>2422.5</ele>
        <time>2021-11-18T13:56:14Z</time>
      </trkpt>
      <trkpt lat="42.87346" lon="0.26617">
        <ele>2420</ele>
        <time>2021-11-18T13:56:18Z</time>
      </trkpt>
      <trkpt lat="42.87346" lon="0.26615">
        <ele>2419.3</ele>
        <time>2021-11-18T13:56:20Z</time>
      </trkpt>
      <trkpt lat="42.87344" lon="0.26615">
        <ele>2418.9</ele>
        <time>2021-11-18T13:56:22Z</time>
      </trkpt>
      <trkpt lat="42.87342" lon="0.26614">
        <ele>2418.2</ele>
        <time>2021-11-18T13:56:24Z</time>
      </trkpt>
      <trkpt lat="42.8734" lon="0.26614">
        <ele>2417.8</ele>
        <time>2021-11-18T13:56:27Z</time>
      </trkpt>
      <trkpt lat="42.87338" lon="0.26614">
        <ele>2417.4</ele>
        <time>2021-11-18T13:56:31Z</time>
      </trkpt>
      <trkpt lat="42.87336" lon="0.26615">
        <ele>2417.3</ele>
        <time>2021-11-18T13:56:35Z</time>
      </trkpt>
      <trkpt lat="42.87335" lon="0.26613">
        <ele>2416.4</ele>
        <time>2021-11-18T13:56:39Z</time>
      </trkpt>
      <trkpt lat="42.87335" lon="0.26607">
        <ele>2414.2</ele>
        <time>2021-11-18T13:56:45Z</time>
      </trkpt>
      <trkpt lat="42.87332" lon="0.266">
        <ele>2410.7</ele>
        <time>2021-11-18T13:56:51Z</time>
      </trkpt>
      <trkpt lat="42.87331" lon="0.26599">
        <ele>2409.9</ele>
        <time>2021-11-18T13:56:59Z</time>
      </trkpt>
      <trkpt lat="42.87332" lon="0.26597">
        <ele>2409.6</ele>
        <time>2021-11-18T13:57:02Z</time>
      </trkpt>
      <trkpt lat="42.87327" lon="0.26596">
        <ele>2407.3</ele>
        <time>2021-11-18T13:57:19Z</time>
      </trkpt>
      <trkpt lat="42.87325" lon="0.26598">
        <ele>2407.3</ele>
        <time>2021-11-18T13:57:22Z</time>
      </trkpt>
      <trkpt lat="42.87323" lon="0.26597">
        <ele>2406.2</ele>
        <time>2021-11-18T13:57:24Z</time>
      </trkpt>
      <trkpt lat="42.87322" lon="0.26595">
        <ele>2405.1</ele>
        <time>2021-11-18T13:57:27Z</time>
      </trkpt>
      <trkpt lat="42.87321" lon="0.26587">
        <ele>2401.9</ele>
        <time>2021-11-18T13:57:36Z</time>
      </trkpt>
      <trkpt lat="42.87321" lon="0.26584">
        <ele>2400.8</ele>
        <time>2021-11-18T13:57:39Z</time>
      </trkpt>
      <trkpt lat="42.87319" lon="0.26584">
        <ele>2400.1</ele>
        <time>2021-11-18T13:57:43Z</time>
      </trkpt>
      <trkpt lat="42.87317" lon="0.26583">
        <ele>2399</ele>
        <time>2021-11-18T13:57:47Z</time>
      </trkpt>
      <trkpt lat="42.87317" lon="0.2658">
        <ele>2397.5</ele>
        <time>2021-11-18T13:57:51Z</time>
      </trkpt>
      <trkpt lat="42.87316" lon="0.26577">
        <ele>2395.6</ele>
        <time>2021-11-18T13:57:57Z</time>
      </trkpt>
      <trkpt lat="42.87314" lon="0.26576">
        <ele>2394.4</ele>
        <time>2021-11-18T13:57:59Z</time>
      </trkpt>
      <trkpt lat="42.87312" lon="0.26576">
        <ele>2393.6</ele>
        <time>2021-11-18T13:58:02Z</time>
      </trkpt>
      <trkpt lat="42.8731" lon="0.26578">
        <ele>2393.9</ele>
        <time>2021-11-18T13:58:05Z</time>
      </trkpt>
      <trkpt lat="42.87309" lon="0.26574">
        <ele>2391.5</ele>
        <time>2021-11-18T13:58:13Z</time>
      </trkpt>
      <trkpt lat="42.87309" lon="0.26571">
        <ele>2389.9</ele>
        <time>2021-11-18T13:58:16Z</time>
      </trkpt>
      <trkpt lat="42.87309" lon="0.26568">
        <ele>2388.4</ele>
        <time>2021-11-18T13:58:19Z</time>
      </trkpt>
      <trkpt lat="42.87309" lon="0.26565">
        <ele>2386.9</ele>
        <time>2021-11-18T13:58:22Z</time>
      </trkpt>
      <trkpt lat="42.87309" lon="0.2656">
        <ele>2384.3</ele>
        <time>2021-11-18T13:58:27Z</time>
      </trkpt>
      <trkpt lat="42.87308" lon="0.26558">
        <ele>2382.8</ele>
        <time>2021-11-18T13:58:29Z</time>
      </trkpt>
      <trkpt lat="42.87308" lon="0.26555">
        <ele>2381.3</ele>
        <time>2021-11-18T13:58:32Z</time>
      </trkpt>
      <trkpt lat="42.87312" lon="0.26558">
        <ele>2384.5</ele>
        <time>2021-11-18T13:58:39Z</time>
      </trkpt>
      <trkpt lat="42.87314" lon="0.26558">
        <ele>2385.4</ele>
        <time>2021-11-18T13:58:52Z</time>
      </trkpt>
      <trkpt lat="42.87314" lon="0.26556">
        <ele>2384.4</ele>
        <time>2021-11-18T13:59:02Z</time>
      </trkpt>
      <trkpt lat="42.87308" lon="0.26565">
        <ele>2386.4</ele>
        <time>2021-11-18T14:05:59Z</time>
      </trkpt>
      <trkpt lat="42.87307" lon="0.26563">
        <ele>2385</ele>
        <time>2021-11-18T14:06:07Z</time>
      </trkpt>
      <trkpt lat="42.87306" lon="0.26561">
        <ele>2383.6</ele>
        <time>2021-11-18T14:06:14Z</time>
      </trkpt>
      <trkpt lat="42.87307" lon="0.26558">
        <ele>2382.4</ele>
        <time>2021-11-18T14:06:17Z</time>
      </trkpt>
      <trkpt lat="42.87306" lon="0.26555">
        <ele>2380.5</ele>
        <time>2021-11-18T14:06:23Z</time>
      </trkpt>
      <trkpt lat="42.87307" lon="0.26552">
        <ele>2379.3</ele>
        <time>2021-11-18T14:06:27Z</time>
      </trkpt>
      <trkpt lat="42.87307" lon="0.2655">
        <ele>2378.3</ele>
        <time>2021-11-18T14:06:32Z</time>
      </trkpt>
      <trkpt lat="42.87304" lon="0.26549">
        <ele>2376.5</ele>
        <time>2021-11-18T14:06:42Z</time>
      </trkpt>
      <trkpt lat="42.87302" lon="0.26549">
        <ele>2375.6</ele>
        <time>2021-11-18T14:06:44Z</time>
      </trkpt>
      <trkpt lat="42.87298" lon="0.26549">
        <ele>2373.8</ele>
        <time>2021-11-18T14:06:49Z</time>
      </trkpt>
      <trkpt lat="42.87295" lon="0.26552">
        <ele>2374.1</ele>
        <time>2021-11-18T14:06:59Z</time>
      </trkpt>
      <trkpt lat="42.87294" lon="0.26551">
        <ele>2373.2</ele>
        <time>2021-11-18T14:07:07Z</time>
      </trkpt>
      <trkpt lat="42.87295" lon="0.26549">
        <ele>2372.5</ele>
        <time>2021-11-18T14:07:11Z</time>
      </trkpt>
      <trkpt lat="42.87296" lon="0.26546">
        <ele>2371.3</ele>
        <time>2021-11-18T14:07:16Z</time>
      </trkpt>
      <trkpt lat="42.87297" lon="0.26542">
        <ele>2369.6</ele>
        <time>2021-11-18T14:07:27Z</time>
      </trkpt>
      <trkpt lat="42.87291" lon="0.26543">
        <ele>2367.4</ele>
        <time>2021-11-18T14:07:38Z</time>
      </trkpt>
      <trkpt lat="42.87289" lon="0.26544">
        <ele>2367.1</ele>
        <time>2021-11-18T14:07:40Z</time>
      </trkpt>
      <trkpt lat="42.87288" lon="0.26542">
        <ele>2365.5</ele>
        <time>2021-11-18T14:07:43Z</time>
      </trkpt>
      <trkpt lat="42.87289" lon="0.26541">
        <ele>2365.4</ele>
        <time>2021-11-18T14:07:48Z</time>
      </trkpt>
      <trkpt lat="42.87294" lon="0.26534">
        <ele>2363.9</ele>
        <time>2021-11-18T14:07:57Z</time>
      </trkpt>
      <trkpt lat="42.87292" lon="0.26533">
        <ele>2362.4</ele>
        <time>2021-11-18T14:08:00Z</time>
      </trkpt>
      <trkpt lat="42.87292" lon="0.2653">
        <ele>2360.7</ele>
        <time>2021-11-18T14:08:08Z</time>
      </trkpt>
      <trkpt lat="42.8729" lon="0.26532">
        <ele>2360.9</ele>
        <time>2021-11-18T14:08:12Z</time>
      </trkpt>
      <trkpt lat="42.87289" lon="0.26529">
        <ele>2358.7</ele>
        <time>2021-11-18T14:08:17Z</time>
      </trkpt>
      <trkpt lat="42.87286" lon="0.26526">
        <ele>2355.6</ele>
        <time>2021-11-18T14:08:22Z</time>
      </trkpt>
      <trkpt lat="42.87285" lon="0.26524">
        <ele>2353.9</ele>
        <time>2021-11-18T14:08:24Z</time>
      </trkpt>
      <trkpt lat="42.87285" lon="0.26521">
        <ele>2352.2</ele>
        <time>2021-11-18T14:08:28Z</time>
      </trkpt>
      <trkpt lat="42.87283" lon="0.2652">
        <ele>2350.7</ele>
        <time>2021-11-18T14:08:43Z</time>
      </trkpt>
      <trkpt lat="42.87282" lon="0.26518">
        <ele>2349</ele>
        <time>2021-11-18T14:08:46Z</time>
      </trkpt>
      <trkpt lat="42.87286" lon="0.26509">
        <ele>2346</ele>
        <time>2021-11-18T14:09:03Z</time>
      </trkpt>
      <trkpt lat="42.87286" lon="0.26506">
        <ele>2344.3</ele>
        <time>2021-11-18T14:09:06Z</time>
      </trkpt>
      <trkpt lat="42.87284" lon="0.26505">
        <ele>2342.6</ele>
        <time>2021-11-18T14:09:11Z</time>
      </trkpt>
      <trkpt lat="42.87282" lon="0.26504">
        <ele>2341</ele>
        <time>2021-11-18T14:09:14Z</time>
      </trkpt>
      <trkpt lat="42.87276" lon="0.26505">
        <ele>2338.3</ele>
        <time>2021-11-18T14:09:20Z</time>
      </trkpt>
      <trkpt lat="42.87272" lon="0.26504">
        <ele>2335.5</ele>
        <time>2021-11-18T14:09:26Z</time>
      </trkpt>
      <trkpt lat="42.8727" lon="0.26502">
        <ele>2333.2</ele>
        <time>2021-11-18T14:09:29Z</time>
      </trkpt>
      <trkpt lat="42.87269" lon="0.265">
        <ele>2331.5</ele>
        <time>2021-11-18T14:09:31Z</time>
      </trkpt>
      <trkpt lat="42.8727" lon="0.26494">
        <ele>2330</ele>
        <time>2021-11-18T14:09:36Z</time>
      </trkpt>
      <trkpt lat="42.87267" lon="0.26488">
        <ele>2326.2</ele>
        <time>2021-11-18T14:09:41Z</time>
      </trkpt>
      <trkpt lat="42.87267" lon="0.26483">
        <ele>2324.4</ele>
        <time>2021-11-18T14:09:47Z</time>
      </trkpt>
      <trkpt lat="42.87268" lon="0.26481">
        <ele>2324.3</ele>
        <time>2021-11-18T14:09:49Z</time>
      </trkpt>
      <trkpt lat="42.87268" lon="0.26478">
        <ele>2323.3</ele>
        <time>2021-11-18T14:09:52Z</time>
      </trkpt>
      <trkpt lat="42.87268" lon="0.26475">
        <ele>2322.3</ele>
        <time>2021-11-18T14:10:00Z</time>
      </trkpt>
      <trkpt lat="42.87267" lon="0.26474">
        <ele>2321.3</ele>
        <time>2021-11-18T14:10:02Z</time>
      </trkpt>
      <trkpt lat="42.87264" lon="0.26474">
        <ele>2319.4</ele>
        <time>2021-11-18T14:10:04Z</time>
      </trkpt>
      <trkpt lat="42.8726" lon="0.26476">
        <ele>2317.7</ele>
        <time>2021-11-18T14:10:08Z</time>
      </trkpt>
      <trkpt lat="42.87258" lon="0.26474">
        <ele>2315.7</ele>
        <time>2021-11-18T14:10:13Z</time>
      </trkpt>
      <trkpt lat="42.87257" lon="0.26473">
        <ele>2314.7</ele>
        <time>2021-11-18T14:10:15Z</time>
      </trkpt>
      <trkpt lat="42.87254" lon="0.26473">
        <ele>2312.8</ele>
        <time>2021-11-18T14:10:17Z</time>
      </trkpt>
      <trkpt lat="42.87252" lon="0.26472">
        <ele>2311.2</ele>
        <time>2021-11-18T14:10:19Z</time>
      </trkpt>
      <trkpt lat="42.87251" lon="0.2647">
        <ele>2309.8</ele>
        <time>2021-11-18T14:10:25Z</time>
      </trkpt>
      <trkpt lat="42.87252" lon="0.26467">
        <ele>2309.2</ele>
        <time>2021-11-18T14:10:30Z</time>
      </trkpt>
      <trkpt lat="42.87251" lon="0.26463">
        <ele>2307</ele>
        <time>2021-11-18T14:10:43Z</time>
      </trkpt>
      <trkpt lat="42.87251" lon="0.26461">
        <ele>2306.2</ele>
        <time>2021-11-18T14:10:46Z</time>
      </trkpt>
      <trkpt lat="42.87251" lon="0.26457">
        <ele>2304.6</ele>
        <time>2021-11-18T14:10:48Z</time>
      </trkpt>
      <trkpt lat="42.87249" lon="0.26456">
        <ele>2303</ele>
        <time>2021-11-18T14:10:53Z</time>
      </trkpt>
      <trkpt lat="42.87247" lon="0.26456">
        <ele>2301.9</ele>
        <time>2021-11-18T14:10:55Z</time>
      </trkpt>
      <trkpt lat="42.87243" lon="0.26456">
        <ele>2299.7</ele>
        <time>2021-11-18T14:10:59Z</time>
      </trkpt>
      <trkpt lat="42.8724" lon="0.26453">
        <ele>2296.8</ele>
        <time>2021-11-18T14:11:05Z</time>
      </trkpt>
      <trkpt lat="42.87241" lon="0.2645">
        <ele>2296.2</ele>
        <time>2021-11-18T14:11:10Z</time>
      </trkpt>
      <trkpt lat="42.87239" lon="0.26449">
        <ele>2294.7</ele>
        <time>2021-11-18T14:11:23Z</time>
      </trkpt>
      <trkpt lat="42.87237" lon="0.2645">
        <ele>2294</ele>
        <time>2021-11-18T14:11:25Z</time>
      </trkpt>
      <trkpt lat="42.87236" lon="0.26449">
        <ele>2293</ele>
        <time>2021-11-18T14:11:27Z</time>
      </trkpt>
      <trkpt lat="42.87236" lon="0.26443">
        <ele>2290.7</ele>
        <time>2021-11-18T14:11:57Z</time>
      </trkpt>
      <trkpt lat="42.87236" lon="0.26438">
        <ele>2288.8</ele>
        <time>2021-11-18T14:12:03Z</time>
      </trkpt>
      <trkpt lat="42.87234" lon="0.26436">
        <ele>2286.9</ele>
        <time>2021-11-18T14:12:07Z</time>
      </trkpt>
      <trkpt lat="42.87229" lon="0.26437">
        <ele>2284.5</ele>
        <time>2021-11-18T14:12:13Z</time>
      </trkpt>
      <trkpt lat="42.87228" lon="0.26435">
        <ele>2283.2</ele>
        <time>2021-11-18T14:12:15Z</time>
      </trkpt>
      <trkpt lat="42.87227" lon="0.26432">
        <ele>2281.5</ele>
        <time>2021-11-18T14:12:18Z</time>
      </trkpt>
      <trkpt lat="42.87228" lon="0.26427">
        <ele>2280.1</ele>
        <time>2021-11-18T14:12:22Z</time>
      </trkpt>
      <trkpt lat="42.87227" lon="0.26419">
        <ele>2276.5</ele>
        <time>2021-11-18T14:12:29Z</time>
      </trkpt>
      <trkpt lat="42.87228" lon="0.26417">
        <ele>2276.2</ele>
        <time>2021-11-18T14:12:32Z</time>
      </trkpt>
      <trkpt lat="42.87233" lon="0.26408">
        <ele>2278.1</ele>
        <time>2021-11-18T14:12:40Z</time>
      </trkpt>
      <trkpt lat="42.87233" lon="0.26405">
        <ele>2277.8</ele>
        <time>2021-11-18T14:12:43Z</time>
      </trkpt>
      <trkpt lat="42.87232" lon="0.26403">
        <ele>2277.1</ele>
        <time>2021-11-18T14:12:45Z</time>
      </trkpt>
      <trkpt lat="42.87231" lon="0.26401">
        <ele>2276.4</ele>
        <time>2021-11-18T14:12:51Z</time>
      </trkpt>
      <trkpt lat="42.87227" lon="0.26399">
        <ele>2274</ele>
        <time>2021-11-18T14:12:55Z</time>
      </trkpt>
      <trkpt lat="42.87224" lon="0.26399">
        <ele>2272.3</ele>
        <time>2021-11-18T14:12:58Z</time>
      </trkpt>
      <trkpt lat="42.87222" lon="0.26394">
        <ele>2270.7</ele>
        <time>2021-11-18T14:13:04Z</time>
      </trkpt>
      <trkpt lat="42.87222" lon="0.26391">
        <ele>2270.4</ele>
        <time>2021-11-18T14:13:07Z</time>
      </trkpt>
      <trkpt lat="42.8722" lon="0.2639">
        <ele>2269.2</ele>
        <time>2021-11-18T14:13:16Z</time>
      </trkpt>
      <trkpt lat="42.8722" lon="0.26384">
        <ele>2268.6</ele>
        <time>2021-11-18T14:13:28Z</time>
      </trkpt>
      <trkpt lat="42.87217" lon="0.2638">
        <ele>2266.5</ele>
        <time>2021-11-18T14:13:36Z</time>
      </trkpt>
      <trkpt lat="42.87206" lon="0.26377">
        <ele>2259.9</ele>
        <time>2021-11-18T14:13:48Z</time>
      </trkpt>
      <trkpt lat="42.87204" lon="0.26378">
        <ele>2258.8</ele>
        <time>2021-11-18T14:13:50Z</time>
      </trkpt>
      <trkpt lat="42.87205" lon="0.26375">
        <ele>2259.1</ele>
        <time>2021-11-18T14:14:01Z</time>
      </trkpt>
      <trkpt lat="42.87201" lon="0.26374">
        <ele>2256.7</ele>
        <time>2021-11-18T14:14:37Z</time>
      </trkpt>
      <trkpt lat="42.87199" lon="0.26374">
        <ele>2255.5</ele>
        <time>2021-11-18T14:14:41Z</time>
      </trkpt>
      <trkpt lat="42.87199" lon="0.26372">
        <ele>2255.3</ele>
        <time>2021-11-18T14:15:16Z</time>
      </trkpt>
      <trkpt lat="42.87195" lon="0.2637">
        <ele>2252.7</ele>
        <time>2021-11-18T14:15:21Z</time>
      </trkpt>
      <trkpt lat="42.87193" lon="0.26369">
        <ele>2251.4</ele>
        <time>2021-11-18T14:15:24Z</time>
      </trkpt>
      <trkpt lat="42.87182" lon="0.26353">
        <ele>2243</ele>
        <time>2021-11-18T14:15:42Z</time>
      </trkpt>
      <trkpt lat="42.87179" lon="0.26352">
        <ele>2241</ele>
        <time>2021-11-18T14:15:55Z</time>
      </trkpt>
      <trkpt lat="42.87177" lon="0.26353">
        <ele>2240</ele>
        <time>2021-11-18T14:16:05Z</time>
      </trkpt>
      <trkpt lat="42.87176" lon="0.26351">
        <ele>2239.1</ele>
        <time>2021-11-18T14:16:08Z</time>
      </trkpt>
      <trkpt lat="42.87174" lon="0.26348">
        <ele>2237.5</ele>
        <time>2021-11-18T14:16:11Z</time>
      </trkpt>
      <trkpt lat="42.87171" lon="0.26345">
        <ele>2235.3</ele>
        <time>2021-11-18T14:16:15Z</time>
      </trkpt>
      <trkpt lat="42.87163" lon="0.26335">
        <ele>2228.8</ele>
        <time>2021-11-18T14:16:23Z</time>
      </trkpt>
      <trkpt lat="42.87162" lon="0.26332">
        <ele>2227.8</ele>
        <time>2021-11-18T14:16:25Z</time>
      </trkpt>
      <trkpt lat="42.87162" lon="0.26329">
        <ele>2227.4</ele>
        <time>2021-11-18T14:16:33Z</time>
      </trkpt>
      <trkpt lat="42.87162" lon="0.26327">
        <ele>2227.1</ele>
        <time>2021-11-18T14:16:37Z</time>
      </trkpt>
      <trkpt lat="42.87161" lon="0.26325">
        <ele>2226.2</ele>
        <time>2021-11-18T14:16:42Z</time>
      </trkpt>
      <trkpt lat="42.87171" lon="0.26314">
        <ele>2231.4</ele>
        <time>2021-11-18T14:17:14Z</time>
      </trkpt>
      <trkpt lat="42.87177" lon="0.26311">
        <ele>2234.8</ele>
        <time>2021-11-18T14:17:20Z</time>
      </trkpt>
      <trkpt lat="42.87179" lon="0.26311">
        <ele>2236.1</ele>
        <time>2021-11-18T14:17:23Z</time>
      </trkpt>
      <trkpt lat="42.87188" lon="0.26302">
        <ele>2240.9</ele>
        <time>2021-11-18T14:17:53Z</time>
      </trkpt>
      <trkpt lat="42.87189" lon="0.26298">
        <ele>2241.1</ele>
        <time>2021-11-18T14:17:58Z</time>
      </trkpt>
      <trkpt lat="42.872" lon="0.26283">
        <ele>2246.8</ele>
        <time>2021-11-18T14:18:15Z</time>
      </trkpt>
      <trkpt lat="42.87201" lon="0.26274">
        <ele>2246.7</ele>
        <time>2021-11-18T14:18:22Z</time>
      </trkpt>
      <trkpt lat="42.872" lon="0.26271">
        <ele>2245.7</ele>
        <time>2021-11-18T14:18:24Z</time>
      </trkpt>
      <trkpt lat="42.87197" lon="0.26267">
        <ele>2243.3</ele>
        <time>2021-11-18T14:18:28Z</time>
      </trkpt>
      <trkpt lat="42.87194" lon="0.26264">
        <ele>2241</ele>
        <time>2021-11-18T14:18:33Z</time>
      </trkpt>
      <trkpt lat="42.87191" lon="0.2626">
        <ele>2238.6</ele>
        <time>2021-11-18T14:18:42Z</time>
      </trkpt>
      <trkpt lat="42.87189" lon="0.26258">
        <ele>2237.1</ele>
        <time>2021-11-18T14:18:52Z</time>
      </trkpt>
      <trkpt lat="42.87188" lon="0.26257">
        <ele>2236.3</ele>
        <time>2021-11-18T14:18:56Z</time>
      </trkpt>
      <trkpt lat="42.87188" lon="0.26254">
        <ele>2236</ele>
        <time>2021-11-18T14:18:58Z</time>
      </trkpt>
      <trkpt lat="42.87182" lon="0.26246">
        <ele>2230.2</ele>
        <time>2021-11-18T14:19:11Z</time>
      </trkpt>
      <trkpt lat="42.8718" lon="0.26247">
        <ele>2229.1</ele>
        <time>2021-11-18T14:19:14Z</time>
      </trkpt>
      <trkpt lat="42.87176" lon="0.26246">
        <ele>2226</ele>
        <time>2021-11-18T14:19:34Z</time>
      </trkpt>
      <trkpt lat="42.87173" lon="0.26243">
        <ele>2222.9</ele>
        <time>2021-11-18T14:19:40Z</time>
      </trkpt>
      <trkpt lat="42.87172" lon="0.26238">
        <ele>2220.5</ele>
        <time>2021-11-18T14:19:46Z</time>
      </trkpt>
      <trkpt lat="42.8717" lon="0.26236">
        <ele>2218.5</ele>
        <time>2021-11-18T14:19:49Z</time>
      </trkpt>
      <trkpt lat="42.87168" lon="0.26236">
        <ele>2217.1</ele>
        <time>2021-11-18T14:19:52Z</time>
      </trkpt>
      <trkpt lat="42.87167" lon="0.26235">
        <ele>2216</ele>
        <time>2021-11-18T14:19:54Z</time>
      </trkpt>
      <trkpt lat="42.87165" lon="0.26233">
        <ele>2213.8</ele>
        <time>2021-11-18T14:19:58Z</time>
      </trkpt>
      <trkpt lat="42.87163" lon="0.26232">
        <ele>2212</ele>
        <time>2021-11-18T14:20:01Z</time>
      </trkpt>
      <trkpt lat="42.87162" lon="0.2623">
        <ele>2210.5</ele>
        <time>2021-11-18T14:20:05Z</time>
      </trkpt>
      <trkpt lat="42.8716" lon="0.26228">
        <ele>2208.3</ele>
        <time>2021-11-18T14:20:08Z</time>
      </trkpt>
      <trkpt lat="42.87157" lon="0.26226">
        <ele>2205.3</ele>
        <time>2021-11-18T14:20:16Z</time>
      </trkpt>
      <trkpt lat="42.87155" lon="0.26225">
        <ele>2203.4</ele>
        <time>2021-11-18T14:20:19Z</time>
      </trkpt>
      <trkpt lat="42.87153" lon="0.26225">
        <ele>2201.9</ele>
        <time>2021-11-18T14:20:23Z</time>
      </trkpt>
      <trkpt lat="42.87151" lon="0.26226">
        <ele>2200.7</ele>
        <time>2021-11-18T14:20:26Z</time>
      </trkpt>
      <trkpt lat="42.87149" lon="0.26224">
        <ele>2198.5</ele>
        <time>2021-11-18T14:20:30Z</time>
      </trkpt>
      <trkpt lat="42.87149" lon="0.2622">
        <ele>2197.1</ele>
        <time>2021-11-18T14:20:34Z</time>
      </trkpt>
      <trkpt lat="42.87148" lon="0.26218">
        <ele>2195.7</ele>
        <time>2021-11-18T14:20:43Z</time>
      </trkpt>
      <trkpt lat="42.8715" lon="0.26213">
        <ele>2195.4</ele>
        <time>2021-11-18T14:20:58Z</time>
      </trkpt>
      <trkpt lat="42.87151" lon="0.2621">
        <ele>2195.1</ele>
        <time>2021-11-18T14:21:04Z</time>
      </trkpt>
      <trkpt lat="42.8715" lon="0.26208">
        <ele>2193.7</ele>
        <time>2021-11-18T14:21:07Z</time>
      </trkpt>
      <trkpt lat="42.87149" lon="0.26206">
        <ele>2192.2</ele>
        <time>2021-11-18T14:21:11Z</time>
      </trkpt>
      <trkpt lat="42.87147" lon="0.26205">
        <ele>2190.3</ele>
        <time>2021-11-18T14:21:26Z</time>
      </trkpt>
      <trkpt lat="42.87145" lon="0.26207">
        <ele>2189.5</ele>
        <time>2021-11-18T14:21:29Z</time>
      </trkpt>
      <trkpt lat="42.87143" lon="0.26207">
        <ele>2188</ele>
        <time>2021-11-18T14:21:32Z</time>
      </trkpt>
      <trkpt lat="42.87142" lon="0.26206">
        <ele>2186.9</ele>
        <time>2021-11-18T14:21:36Z</time>
      </trkpt>
      <trkpt lat="42.8714" lon="0.26203">
        <ele>2184.3</ele>
        <time>2021-11-18T14:21:39Z</time>
      </trkpt>
      <trkpt lat="42.87139" lon="0.26201">
        <ele>2182.8</ele>
        <time>2021-11-18T14:21:42Z</time>
      </trkpt>
      <trkpt lat="42.87137" lon="0.26199">
        <ele>2180.6</ele>
        <time>2021-11-18T14:21:46Z</time>
      </trkpt>
      <trkpt lat="42.87137" lon="0.26197">
        <ele>2179.9</ele>
        <time>2021-11-18T14:21:50Z</time>
      </trkpt>
      <trkpt lat="42.87141" lon="0.26193">
        <ele>2181.5</ele>
        <time>2021-11-18T14:21:58Z</time>
      </trkpt>
      <trkpt lat="42.87141" lon="0.26191">
        <ele>2180.8</ele>
        <time>2021-11-18T14:22:02Z</time>
      </trkpt>
      <trkpt lat="42.87142" lon="0.26189">
        <ele>2180.9</ele>
        <time>2021-11-18T14:22:10Z</time>
      </trkpt>
      <trkpt lat="42.87146" lon="0.26185">
        <ele>2182.6</ele>
        <time>2021-11-18T14:22:17Z</time>
      </trkpt>
      <trkpt lat="42.87143" lon="0.26178">
        <ele>2177.8</ele>
        <time>2021-11-18T14:22:31Z</time>
      </trkpt>
      <trkpt lat="42.87141" lon="0.26179">
        <ele>2176.6</ele>
        <time>2021-11-18T14:23:29Z</time>
      </trkpt>
      <trkpt lat="42.87145" lon="0.26183">
        <ele>2181.1</ele>
        <time>2021-11-18T14:24:13Z</time>
      </trkpt>
      <trkpt lat="42.87146" lon="0.26181">
        <ele>2181.2</ele>
        <time>2021-11-18T14:28:18Z</time>
      </trkpt>
      <trkpt lat="42.87146" lon="0.26186">
        <ele>2182.9</ele>
        <time>2021-11-18T14:28:30Z</time>
      </trkpt>
      <trkpt lat="42.87147" lon="0.26183">
        <ele>2182.6</ele>
        <time>2021-11-18T14:28:33Z</time>
      </trkpt>
      <trkpt lat="42.87146" lon="0.26181">
        <ele>2181.2</ele>
        <time>2021-11-18T14:28:41Z</time>
      </trkpt>
      <trkpt lat="42.87144" lon="0.26178">
        <ele>2178.6</ele>
        <time>2021-11-18T14:28:57Z</time>
      </trkpt>
      <trkpt lat="42.87142" lon="0.2618">
        <ele>2177.7</ele>
        <time>2021-11-18T14:29:47Z</time>
      </trkpt>
      <trkpt lat="42.87144" lon="0.26181">
        <ele>2179.6</ele>
        <time>2021-11-18T14:29:54Z</time>
      </trkpt>
      <trkpt lat="42.87147" lon="0.2618">
        <ele>2181.6</ele>
        <time>2021-11-18T14:30:09Z</time>
      </trkpt>
      <trkpt lat="42.87148" lon="0.26178">
        <ele>2181.6</ele>
        <time>2021-11-18T14:30:16Z</time>
      </trkpt>
      <trkpt lat="42.8715" lon="0.26178">
        <ele>2183.2</ele>
        <time>2021-11-18T14:30:28Z</time>
      </trkpt>
      <trkpt lat="42.87151" lon="0.26176">
        <ele>2183.2</ele>
        <time>2021-11-18T14:30:32Z</time>
      </trkpt>
      <trkpt lat="42.87145" lon="0.26169">
        <ele>2176.2</ele>
        <time>2021-11-18T14:31:11Z</time>
      </trkpt>
      <trkpt lat="42.87144" lon="0.26167">
        <ele>2174.7</ele>
        <time>2021-11-18T14:31:16Z</time>
      </trkpt>
      <trkpt lat="42.87142" lon="0.26165">
        <ele>2172.4</ele>
        <time>2021-11-18T14:31:20Z</time>
      </trkpt>
      <trkpt lat="42.87142" lon="0.26162">
        <ele>2171.3</ele>
        <time>2021-11-18T14:31:24Z</time>
      </trkpt>
      <trkpt lat="42.87141" lon="0.26159">
        <ele>2169.5</ele>
        <time>2021-11-18T14:31:29Z</time>
      </trkpt>
      <trkpt lat="42.87141" lon="0.26157">
        <ele>2168.8</ele>
        <time>2021-11-18T14:31:33Z</time>
      </trkpt>
      <trkpt lat="42.87143" lon="0.26151">
        <ele>2168.1</ele>
        <time>2021-11-18T14:31:50Z</time>
      </trkpt>
      <trkpt lat="42.87146" lon="0.26148">
        <ele>2169.2</ele>
        <time>2021-11-18T14:32:08Z</time>
      </trkpt>
      <trkpt lat="42.87144" lon="0.26143">
        <ele>2165.9</ele>
        <time>2021-11-18T14:32:13Z</time>
      </trkpt>
      <trkpt lat="42.87143" lon="0.26141">
        <ele>2164.4</ele>
        <time>2021-11-18T14:32:15Z</time>
      </trkpt>
      <trkpt lat="42.87141" lon="0.26139">
        <ele>2162.2</ele>
        <time>2021-11-18T14:32:19Z</time>
      </trkpt>
      <trkpt lat="42.8715" lon="0.26103">
        <ele>2155.5</ele>
        <time>2021-11-18T14:49:08Z</time>
      </trkpt>
      <trkpt lat="42.87152" lon="0.26102">
        <ele>2156.6</ele>
        <time>2021-11-18T14:49:25Z</time>
      </trkpt>
      <trkpt lat="42.87158" lon="0.26108">
        <ele>2163.2</ele>
        <time>2021-11-18T14:50:07Z</time>
      </trkpt>
      <trkpt lat="42.87161" lon="0.26103">
        <ele>2163.5</ele>
        <time>2021-11-18T14:50:16Z</time>
      </trkpt>
      <trkpt lat="42.87166" lon="0.26101">
        <ele>2166.3</ele>
        <time>2021-11-18T14:50:20Z</time>
      </trkpt>
      <trkpt lat="42.87168" lon="0.261">
        <ele>2167.4</ele>
        <time>2021-11-18T14:51:52Z</time>
      </trkpt>
      <trkpt lat="42.87176" lon="0.26086">
        <ele>2167.5</ele>
        <time>2021-11-18T14:52:03Z</time>
      </trkpt>
      <trkpt lat="42.87179" lon="0.26086">
        <ele>2169.6</ele>
        <time>2021-11-18T14:52:05Z</time>
      </trkpt>
      <trkpt lat="42.87169" lon="0.26087">
        <ele>2163</ele>
        <time>2021-11-18T14:52:26Z</time>
      </trkpt>
      <trkpt lat="42.87164" lon="0.26087">
        <ele>2159.5</ele>
        <time>2021-11-18T14:52:31Z</time>
      </trkpt>
      <trkpt lat="42.87162" lon="0.26086">
        <ele>2157.7</ele>
        <time>2021-11-18T14:52:35Z</time>
      </trkpt>
      <trkpt lat="42.87159" lon="0.26086">
        <ele>2155.6</ele>
        <time>2021-11-18T14:52:47Z</time>
      </trkpt>
      <trkpt lat="42.87157" lon="0.26087">
        <ele>2154.5</ele>
        <time>2021-11-18T14:52:50Z</time>
      </trkpt>
      <trkpt lat="42.87155" lon="0.26088">
        <ele>2153.5</ele>
        <time>2021-11-18T14:52:55Z</time>
      </trkpt>
      <trkpt lat="42.87154" lon="0.26085">
        <ele>2151.7</ele>
        <time>2021-11-18T14:53:05Z</time>
      </trkpt>
      <trkpt lat="42.87153" lon="0.26086">
        <ele>2151.3</ele>
        <time>2021-11-18T14:53:30Z</time>
      </trkpt>
      <trkpt lat="42.87162" lon="0.26072">
        <ele>2151.6</ele>
        <time>2021-11-18T14:54:00Z</time>
      </trkpt>
      <trkpt lat="42.87166" lon="0.26072">
        <ele>2154.2</ele>
        <time>2021-11-18T14:54:03Z</time>
      </trkpt>
      <trkpt lat="42.87168" lon="0.26072">
        <ele>2155.6</ele>
        <time>2021-11-18T14:54:05Z</time>
      </trkpt>
      <trkpt lat="42.87167" lon="0.26069">
        <ele>2153.5</ele>
        <time>2021-11-18T14:54:13Z</time>
      </trkpt>
      <trkpt lat="42.87165" lon="0.26067">
        <ele>2151.3</ele>
        <time>2021-11-18T14:54:35Z</time>
      </trkpt>
      <trkpt lat="42.87166" lon="0.2606">
        <ele>2148.7</ele>
        <time>2021-11-18T14:55:22Z</time>
      </trkpt>
      <trkpt lat="42.87166" lon="0.26057">
        <ele>2147.3</ele>
        <time>2021-11-18T14:55:35Z</time>
      </trkpt>
      <trkpt lat="42.87165" lon="0.26053">
        <ele>2144.8</ele>
        <time>2021-11-18T14:55:43Z</time>
      </trkpt>
      <trkpt lat="42.87163" lon="0.26052">
        <ele>2143.1</ele>
        <time>2021-11-18T14:55:47Z</time>
      </trkpt>
      <trkpt lat="42.87161" lon="0.26052">
        <ele>2141.9</ele>
        <time>2021-11-18T14:55:52Z</time>
      </trkpt>
      <trkpt lat="42.87167" lon="0.26049">
        <ele>2144.2</ele>
        <time>2021-11-18T14:56:12Z</time>
      </trkpt>
      <trkpt lat="42.87158" lon="0.26054">
        <ele>2140.9</ele>
        <time>2021-11-18T14:57:06Z</time>
      </trkpt>
      <trkpt lat="42.87165" lon="0.26045">
        <ele>2141.1</ele>
        <time>2021-11-18T14:57:52Z</time>
      </trkpt>
      <trkpt lat="42.8717" lon="0.26038">
        <ele>2141.2</ele>
        <time>2021-11-18T14:58:09Z</time>
      </trkpt>
      <trkpt lat="42.87176" lon="0.26028">
        <ele>2140.8</ele>
        <time>2021-11-18T14:58:21Z</time>
      </trkpt>
      <trkpt lat="42.87179" lon="0.26021">
        <ele>2139.7</ele>
        <time>2021-11-18T14:58:27Z</time>
      </trkpt>
      <trkpt lat="42.87178" lon="0.26018">
        <ele>2137.6</ele>
        <time>2021-11-18T14:58:30Z</time>
      </trkpt>
      <trkpt lat="42.87176" lon="0.26016">
        <ele>2135.3</ele>
        <time>2021-11-18T14:58:33Z</time>
      </trkpt>
      <trkpt lat="42.87174" lon="0.26016">
        <ele>2133.8</ele>
        <time>2021-11-18T14:58:35Z</time>
      </trkpt>
      <trkpt lat="42.87171" lon="0.26015">
        <ele>2131.2</ele>
        <time>2021-11-18T14:58:38Z</time>
      </trkpt>
      <trkpt lat="42.87165" lon="0.26016">
        <ele>2127.6</ele>
        <time>2021-11-18T14:58:46Z</time>
      </trkpt>
      <trkpt lat="42.87163" lon="0.26015">
        <ele>2126.2</ele>
        <time>2021-11-18T14:58:51Z</time>
      </trkpt>
      <trkpt lat="42.87161" lon="0.26014">
        <ele>2124.7</ele>
        <time>2021-11-18T14:58:54Z</time>
      </trkpt>
      <trkpt lat="42.87157" lon="0.26015">
        <ele>2123.2</ele>
        <time>2021-11-18T14:58:58Z</time>
      </trkpt>
      <trkpt lat="42.87155" lon="0.26015">
        <ele>2122.2</ele>
        <time>2021-11-18T14:59:01Z</time>
      </trkpt>
      <trkpt lat="42.87145" lon="0.26015">
        <ele>2117.2</ele>
        <time>2021-11-18T14:59:19Z</time>
      </trkpt>
      <trkpt lat="42.87143" lon="0.26014">
        <ele>2115.8</ele>
        <time>2021-11-18T14:59:23Z</time>
      </trkpt>
      <trkpt lat="42.87144" lon="0.26011">
        <ele>2115.1</ele>
        <time>2021-11-18T14:59:31Z</time>
      </trkpt>
      <trkpt lat="42.87142" lon="0.26009">
        <ele>2113.3</ele>
        <time>2021-11-18T14:59:38Z</time>
      </trkpt>
      <trkpt lat="42.8714" lon="0.26008">
        <ele>2111.9</ele>
        <time>2021-11-18T14:59:50Z</time>
      </trkpt>
      <trkpt lat="42.87138" lon="0.26007">
        <ele>2110.6</ele>
        <time>2021-11-18T14:59:52Z</time>
      </trkpt>
      <trkpt lat="42.87138" lon="0.26004">
        <ele>2109.5</ele>
        <time>2021-11-18T14:59:57Z</time>
      </trkpt>
      <trkpt lat="42.87136" lon="0.26003">
        <ele>2108.1</ele>
        <time>2021-11-18T15:00:00Z</time>
      </trkpt>
      <trkpt lat="42.87134" lon="0.26003">
        <ele>2107.2</ele>
        <time>2021-11-18T15:00:03Z</time>
      </trkpt>
      <trkpt lat="42.87132" lon="0.26002">
        <ele>2105.9</ele>
        <time>2021-11-18T15:00:05Z</time>
      </trkpt>
      <trkpt lat="42.87131" lon="0.25999">
        <ele>2105.1</ele>
        <time>2021-11-18T15:00:09Z</time>
      </trkpt>
      <trkpt lat="42.87132" lon="0.25997">
        <ele>2106.2</ele>
        <time>2021-11-18T15:00:12Z</time>
      </trkpt>
      <trkpt lat="42.87132" lon="0.25994">
        <ele>2107.2</ele>
        <time>2021-11-18T15:00:14Z</time>
      </trkpt>
      <trkpt lat="42.87128" lon="0.25993">
        <ele>2105.7</ele>
        <time>2021-11-18T15:00:26Z</time>
      </trkpt>
      <trkpt lat="42.87124" lon="0.25996">
        <ele>2102.8</ele>
        <time>2021-11-18T15:00:32Z</time>
      </trkpt>
      <trkpt lat="42.87123" lon="0.25994">
        <ele>2103</ele>
        <time>2021-11-18T15:00:35Z</time>
      </trkpt>
      <trkpt lat="42.8712" lon="0.25994">
        <ele>2101.5</ele>
        <time>2021-11-18T15:00:38Z</time>
      </trkpt>
      <trkpt lat="42.87119" lon="0.25994">
        <ele>2101.1</ele>
        <time>2021-11-18T15:00:41Z</time>
      </trkpt>
      <trkpt lat="42.87117" lon="0.25992">
        <ele>2100.7</ele>
        <time>2021-11-18T15:00:45Z</time>
      </trkpt>
      <trkpt lat="42.87116" lon="0.25991">
        <ele>2100.5</ele>
        <time>2021-11-18T15:00:51Z</time>
      </trkpt>
      <trkpt lat="42.87114" lon="0.25992">
        <ele>2099.3</ele>
        <time>2021-11-18T15:00:56Z</time>
      </trkpt>
      <trkpt lat="42.87113" lon="0.25989">
        <ele>2099.7</ele>
        <time>2021-11-18T15:01:42Z</time>
      </trkpt>
      <trkpt lat="42.87113" lon="0.25983">
        <ele>2101.4</ele>
        <time>2021-11-18T15:01:49Z</time>
      </trkpt>
      <trkpt lat="42.87111" lon="0.25981">
        <ele>2100.9</ele>
        <time>2021-11-18T15:01:53Z</time>
      </trkpt>
      <trkpt lat="42.87111" lon="0.25983">
        <ele>2100.4</ele>
        <time>2021-11-18T15:01:57Z</time>
      </trkpt>
      <trkpt lat="42.87109" lon="0.25985">
        <ele>2098.8</ele>
        <time>2021-11-18T15:02:00Z</time>
      </trkpt>
      <trkpt lat="42.87107" lon="0.25987">
        <ele>2097.3</ele>
        <time>2021-11-18T15:02:03Z</time>
      </trkpt>
      <trkpt lat="42.87106" lon="0.25988">
        <ele>2096.5</ele>
        <time>2021-11-18T15:02:13Z</time>
      </trkpt>
      <trkpt lat="42.87104" lon="0.25996">
        <ele>2093.5</ele>
        <time>2021-11-18T15:02:36Z</time>
      </trkpt>
      <trkpt lat="42.87102" lon="0.25998">
        <ele>2092</ele>
        <time>2021-11-18T15:02:39Z</time>
      </trkpt>
      <trkpt lat="42.87097" lon="0.25999">
        <ele>2089.5</ele>
        <time>2021-11-18T15:02:48Z</time>
      </trkpt>
      <trkpt lat="42.87095" lon="0.25998">
        <ele>2088.8</ele>
        <time>2021-11-18T15:02:53Z</time>
      </trkpt>
      <trkpt lat="42.87095" lon="0.25995">
        <ele>2089.5</ele>
        <time>2021-11-18T15:02:56Z</time>
      </trkpt>
      <trkpt lat="42.87093" lon="0.25993">
        <ele>2089</ele>
        <time>2021-11-18T15:03:02Z</time>
      </trkpt>
      <trkpt lat="42.87091" lon="0.25992">
        <ele>2088.3</ele>
        <time>2021-11-18T15:03:06Z</time>
      </trkpt>
      <trkpt lat="42.87088" lon="0.25992">
        <ele>2086.9</ele>
        <time>2021-11-18T15:03:09Z</time>
      </trkpt>
      <trkpt lat="42.87086" lon="0.25993">
        <ele>2085.7</ele>
        <time>2021-11-18T15:03:15Z</time>
      </trkpt>
      <trkpt lat="42.87085" lon="0.25989">
        <ele>2086.1</ele>
        <time>2021-11-18T15:03:24Z</time>
      </trkpt>
      <trkpt lat="42.87083" lon="0.25988">
        <ele>2085.4</ele>
        <time>2021-11-18T15:03:27Z</time>
      </trkpt>
      <trkpt lat="42.87081" lon="0.25989">
        <ele>2084.8</ele>
        <time>2021-11-18T15:03:32Z</time>
      </trkpt>
      <trkpt lat="42.8708" lon="0.25992">
        <ele>2084</ele>
        <time>2021-11-18T15:03:34Z</time>
      </trkpt>
      <trkpt lat="42.87078" lon="0.25993">
        <ele>2083.3</ele>
        <time>2021-11-18T15:03:37Z</time>
      </trkpt>
      <trkpt lat="42.87076" lon="0.25993">
        <ele>2082.9</ele>
        <time>2021-11-18T15:03:40Z</time>
      </trkpt>
      <trkpt lat="42.87072" lon="0.25997">
        <ele>2081</ele>
        <time>2021-11-18T15:03:46Z</time>
      </trkpt>
      <trkpt lat="42.8707" lon="0.25998">
        <ele>2080.2</ele>
        <time>2021-11-18T15:03:48Z</time>
      </trkpt>
      <trkpt lat="42.87068" lon="0.25997">
        <ele>2080</ele>
        <time>2021-11-18T15:03:51Z</time>
      </trkpt>
      <trkpt lat="42.87067" lon="0.25995">
        <ele>2080.4</ele>
        <time>2021-11-18T15:03:55Z</time>
      </trkpt>
      <trkpt lat="42.87062" lon="0.25995">
        <ele>2079.3</ele>
        <time>2021-11-18T15:04:17Z</time>
      </trkpt>
      <trkpt lat="42.8706" lon="0.25994">
        <ele>2079.2</ele>
        <time>2021-11-18T15:04:20Z</time>
      </trkpt>
      <trkpt lat="42.87059" lon="0.25994">
        <ele>2079</ele>
        <time>2021-11-18T15:04:24Z</time>
      </trkpt>
      <trkpt lat="42.87057" lon="0.25993">
        <ele>2078.9</ele>
        <time>2021-11-18T15:04:31Z</time>
      </trkpt>
      <trkpt lat="42.87056" lon="0.25996">
        <ele>2077.6</ele>
        <time>2021-11-18T15:04:33Z</time>
      </trkpt>
      <trkpt lat="42.87053" lon="0.25998">
        <ele>2076.1</ele>
        <time>2021-11-18T15:04:36Z</time>
      </trkpt>
      <trkpt lat="42.87051" lon="0.25998">
        <ele>2075.7</ele>
        <time>2021-11-18T15:04:40Z</time>
      </trkpt>
      <trkpt lat="42.8705" lon="0.25999">
        <ele>2075</ele>
        <time>2021-11-18T15:04:43Z</time>
      </trkpt>
      <trkpt lat="42.87047" lon="0.25999">
        <ele>2074.3</ele>
        <time>2021-11-18T15:04:47Z</time>
      </trkpt>
      <trkpt lat="42.87045" lon="0.26">
        <ele>2073.3</ele>
        <time>2021-11-18T15:04:50Z</time>
      </trkpt>
      <trkpt lat="42.87043" lon="0.26002">
        <ele>2073</ele>
        <time>2021-11-18T15:04:53Z</time>
      </trkpt>
      <trkpt lat="42.87043" lon="0.26005">
        <ele>2073.2</ele>
        <time>2021-11-18T15:04:58Z</time>
      </trkpt>
      <trkpt lat="42.87041" lon="0.26005">
        <ele>2072.7</ele>
        <time>2021-11-18T15:05:04Z</time>
      </trkpt>
      <trkpt lat="42.87037" lon="0.26008">
        <ele>2071.8</ele>
        <time>2021-11-18T15:05:13Z</time>
      </trkpt>
      <trkpt lat="42.87035" lon="0.26009">
        <ele>2071.3</ele>
        <time>2021-11-18T15:05:15Z</time>
      </trkpt>
      <trkpt lat="42.87033" lon="0.2601">
        <ele>2070.7</ele>
        <time>2021-11-18T15:05:17Z</time>
      </trkpt>
      <trkpt lat="42.87026" lon="0.26017">
        <ele>2068.9</ele>
        <time>2021-11-18T15:05:28Z</time>
      </trkpt>
      <trkpt lat="42.87024" lon="0.26018">
        <ele>2068.2</ele>
        <time>2021-11-18T15:05:31Z</time>
      </trkpt>
      <trkpt lat="42.87017" lon="0.26019">
        <ele>2066</ele>
        <time>2021-11-18T15:05:39Z</time>
      </trkpt>
      <trkpt lat="42.87014" lon="0.26015">
        <ele>2065.2</ele>
        <time>2021-11-18T15:05:47Z</time>
      </trkpt>
      <trkpt lat="42.87012" lon="0.26014">
        <ele>2064.6</ele>
        <time>2021-11-18T15:05:50Z</time>
      </trkpt>
      <trkpt lat="42.87011" lon="0.26016">
        <ele>2064.2</ele>
        <time>2021-11-18T15:05:53Z</time>
      </trkpt>
      <trkpt lat="42.87008" lon="0.26017">
        <ele>2063.3</ele>
        <time>2021-11-18T15:05:58Z</time>
      </trkpt>
      <trkpt lat="42.87006" lon="0.26016">
        <ele>2062.7</ele>
        <time>2021-11-18T15:06:03Z</time>
      </trkpt>
      <trkpt lat="42.87003" lon="0.26016">
        <ele>2061.8</ele>
        <time>2021-11-18T15:06:46Z</time>
      </trkpt>
      <trkpt lat="42.87001" lon="0.26018">
        <ele>2061</ele>
        <time>2021-11-18T15:06:49Z</time>
      </trkpt>
      <trkpt lat="42.87008" lon="0.26019">
        <ele>2063.2</ele>
        <time>2021-11-18T15:07:31Z</time>
      </trkpt>
      <trkpt lat="42.87006" lon="0.26019">
        <ele>2062.5</ele>
        <time>2021-11-18T15:07:33Z</time>
      </trkpt>
      <trkpt lat="42.87002" lon="0.26022">
        <ele>2061.1</ele>
        <time>2021-11-18T15:07:39Z</time>
      </trkpt>
      <trkpt lat="42.86999" lon="0.26022">
        <ele>2060.4</ele>
        <time>2021-11-18T15:07:42Z</time>
      </trkpt>
      <trkpt lat="42.86997" lon="0.26022">
        <ele>2060.4</ele>
        <time>2021-11-18T15:07:46Z</time>
      </trkpt>
      <trkpt lat="42.86996" lon="0.26019">
        <ele>2060.6</ele>
        <time>2021-11-18T15:07:49Z</time>
      </trkpt>
      <trkpt lat="42.86994" lon="0.2602">
        <ele>2060.5</ele>
        <time>2021-11-18T15:07:56Z</time>
      </trkpt>
      <trkpt lat="42.86995" lon="0.26024">
        <ele>2060.1</ele>
        <time>2021-11-18T15:08:18Z</time>
      </trkpt>
      <trkpt lat="42.86993" lon="0.26024">
        <ele>2060.1</ele>
        <time>2021-11-18T15:08:21Z</time>
      </trkpt>
      <trkpt lat="42.86991" lon="0.26022">
        <ele>2060.2</ele>
        <time>2021-11-18T15:08:23Z</time>
      </trkpt>
      <trkpt lat="42.86989" lon="0.26022">
        <ele>2060.2</ele>
        <time>2021-11-18T15:08:26Z</time>
      </trkpt>
      <trkpt lat="42.86988" lon="0.26026">
        <ele>2059.8</ele>
        <time>2021-11-18T15:08:48Z</time>
      </trkpt>
      <trkpt lat="42.86987" lon="0.26029">
        <ele>2059.4</ele>
        <time>2021-11-18T15:08:51Z</time>
      </trkpt>
      <trkpt lat="42.86983" lon="0.26034">
        <ele>2058.6</ele>
        <time>2021-11-18T15:08:57Z</time>
      </trkpt>
      <trkpt lat="42.86978" lon="0.26036">
        <ele>2058.1</ele>
        <time>2021-11-18T15:09:05Z</time>
      </trkpt>
      <trkpt lat="42.86971" lon="0.26045">
        <ele>2056.2</ele>
        <time>2021-11-18T15:09:16Z</time>
      </trkpt>
      <trkpt lat="42.86969" lon="0.26047">
        <ele>2055.7</ele>
        <time>2021-11-18T15:09:21Z</time>
      </trkpt>
      <trkpt lat="42.86969" lon="0.26048">
        <ele>2055.5</ele>
        <time>2021-11-18T15:09:37Z</time>
      </trkpt>
      <trkpt lat="42.86967" lon="0.26046">
        <ele>2055.7</ele>
        <time>2021-11-18T15:09:40Z</time>
      </trkpt>
      <trkpt lat="42.86963" lon="0.26043">
        <ele>2055.9</ele>
        <time>2021-11-18T15:09:44Z</time>
      </trkpt>
      <trkpt lat="42.86961" lon="0.26044">
        <ele>2055.5</ele>
        <time>2021-11-18T15:09:46Z</time>
      </trkpt>
      <trkpt lat="42.86959" lon="0.26045">
        <ele>2055.1</ele>
        <time>2021-11-18T15:09:48Z</time>
      </trkpt>
      <trkpt lat="42.86957" lon="0.26046">
        <ele>2054.8</ele>
        <time>2021-11-18T15:09:51Z</time>
      </trkpt>
      <trkpt lat="42.86951" lon="0.26064">
        <ele>2050.3</ele>
        <time>2021-11-18T15:10:21Z</time>
      </trkpt>
      <trkpt lat="42.86951" lon="0.26066">
        <ele>2049.8</ele>
        <time>2021-11-18T15:10:27Z</time>
      </trkpt>
      <trkpt lat="42.86951" lon="0.26069">
        <ele>2049.2</ele>
        <time>2021-11-18T15:10:31Z</time>
      </trkpt>
      <trkpt lat="42.86949" lon="0.26072">
        <ele>2048.2</ele>
        <time>2021-11-18T15:10:35Z</time>
      </trkpt>
      <trkpt lat="42.86947" lon="0.26072">
        <ele>2047.8</ele>
        <time>2021-11-18T15:10:37Z</time>
      </trkpt>
      <trkpt lat="42.86946" lon="0.26069">
        <ele>2048.4</ele>
        <time>2021-11-18T15:10:40Z</time>
      </trkpt>
      <trkpt lat="42.86944" lon="0.26068">
        <ele>2048.3</ele>
        <time>2021-11-18T15:10:44Z</time>
      </trkpt>
      <trkpt lat="42.86942" lon="0.26069">
        <ele>2047.7</ele>
        <time>2021-11-18T15:10:46Z</time>
      </trkpt>
      <trkpt lat="42.8694" lon="0.26071">
        <ele>2046.9</ele>
        <time>2021-11-18T15:10:51Z</time>
      </trkpt>
      <trkpt lat="42.86936" lon="0.26077">
        <ele>2044.6</ele>
        <time>2021-11-18T15:11:03Z</time>
      </trkpt>
      <trkpt lat="42.86932" lon="0.26081">
        <ele>2042.8</ele>
        <time>2021-11-18T15:11:07Z</time>
      </trkpt>
      <trkpt lat="42.86929" lon="0.26085">
        <ele>2041.2</ele>
        <time>2021-11-18T15:11:11Z</time>
      </trkpt>
      <trkpt lat="42.86926" lon="0.2609">
        <ele>2039.6</ele>
        <time>2021-11-18T15:11:17Z</time>
      </trkpt>
      <trkpt lat="42.86923" lon="0.26096">
        <ele>2037.6</ele>
        <time>2021-11-18T15:11:22Z</time>
      </trkpt>
      <trkpt lat="42.86922" lon="0.26099">
        <ele>2036.7</ele>
        <time>2021-11-18T15:11:28Z</time>
      </trkpt>
      <trkpt lat="42.8692" lon="0.26097">
        <ele>2036.6</ele>
        <time>2021-11-18T15:12:04Z</time>
      </trkpt>
      <trkpt lat="42.8691" lon="0.26111">
        <ele>2029.7</ele>
        <time>2021-11-18T15:12:17Z</time>
      </trkpt>
      <trkpt lat="42.86904" lon="0.26115">
        <ele>2026.4</ele>
        <time>2021-11-18T15:12:25Z</time>
      </trkpt>
      <trkpt lat="42.86902" lon="0.26124">
        <ele>2023.5</ele>
        <time>2021-11-18T15:12:32Z</time>
      </trkpt>
      <trkpt lat="42.86901" lon="0.26125">
        <ele>2022.9</ele>
        <time>2021-11-18T15:12:54Z</time>
      </trkpt>
      <trkpt lat="42.86899" lon="0.26126">
        <ele>2021.9</ele>
        <time>2021-11-18T15:12:56Z</time>
      </trkpt>
      <trkpt lat="42.86895" lon="0.26132">
        <ele>2018.9</ele>
        <time>2021-11-18T15:13:02Z</time>
      </trkpt>
      <trkpt lat="42.86893" lon="0.26133">
        <ele>2017.9</ele>
        <time>2021-11-18T15:13:06Z</time>
      </trkpt>
      <trkpt lat="42.86891" lon="0.26131">
        <ele>2017.6</ele>
        <time>2021-11-18T15:13:09Z</time>
      </trkpt>
      <trkpt lat="42.86887" lon="0.26128">
        <ele>2016.7</ele>
        <time>2021-11-18T15:13:49Z</time>
      </trkpt>
      <trkpt lat="42.8688" lon="0.26139">
        <ele>2011.4</ele>
        <time>2021-11-18T15:14:00Z</time>
      </trkpt>
      <trkpt lat="42.86877" lon="0.26139">
        <ele>2010.2</ele>
        <time>2021-11-18T15:14:05Z</time>
      </trkpt>
      <trkpt lat="42.86876" lon="0.26136">
        <ele>2010.6</ele>
        <time>2021-11-18T15:14:10Z</time>
      </trkpt>
      <trkpt lat="42.86874" lon="0.26135">
        <ele>2010</ele>
        <time>2021-11-18T15:14:13Z</time>
      </trkpt>
      <trkpt lat="42.86873" lon="0.26132">
        <ele>2010.3</ele>
        <time>2021-11-18T15:14:16Z</time>
      </trkpt>
      <trkpt lat="42.86871" lon="0.26132">
        <ele>2009.6</ele>
        <time>2021-11-18T15:14:20Z</time>
      </trkpt>
      <trkpt lat="42.86868" lon="0.26134">
        <ele>2007.9</ele>
        <time>2021-11-18T15:14:23Z</time>
      </trkpt>
      <trkpt lat="42.86866" lon="0.26138">
        <ele>2006.2</ele>
        <time>2021-11-18T15:14:28Z</time>
      </trkpt>
      <trkpt lat="42.86865" lon="0.2614">
        <ele>2005.4</ele>
        <time>2021-11-18T15:14:34Z</time>
      </trkpt>
      <trkpt lat="42.86864" lon="0.26143">
        <ele>2004.3</ele>
        <time>2021-11-18T15:14:37Z</time>
      </trkpt>
      <trkpt lat="42.86862" lon="0.26144">
        <ele>2003.3</ele>
        <time>2021-11-18T15:14:41Z</time>
      </trkpt>
      <trkpt lat="42.86861" lon="0.26147">
        <ele>2002.2</ele>
        <time>2021-11-18T15:14:57Z</time>
      </trkpt>
      <trkpt lat="42.86859" lon="0.26149">
        <ele>2000.9</ele>
        <time>2021-11-18T15:15:00Z</time>
      </trkpt>
      <trkpt lat="42.86857" lon="0.26152">
        <ele>1999.5</ele>
        <time>2021-11-18T15:15:05Z</time>
      </trkpt>
      <trkpt lat="42.86846" lon="0.26163">
        <ele>1992.7</ele>
        <time>2021-11-18T15:15:24Z</time>
      </trkpt>
      <trkpt lat="42.86844" lon="0.26168">
        <ele>1990.9</ele>
        <time>2021-11-18T15:15:29Z</time>
      </trkpt>
      <trkpt lat="42.86843" lon="0.26171">
        <ele>1990.2</ele>
        <time>2021-11-18T15:15:31Z</time>
      </trkpt>
      <trkpt lat="42.86842" lon="0.26173">
        <ele>1989.6</ele>
        <time>2021-11-18T15:15:34Z</time>
      </trkpt>
      <trkpt lat="42.86829" lon="0.26188">
        <ele>1982.1</ele>
        <time>2021-11-18T15:15:53Z</time>
      </trkpt>
      <trkpt lat="42.86829" lon="0.26191">
        <ele>1981.7</ele>
        <time>2021-11-18T15:15:57Z</time>
      </trkpt>
      <trkpt lat="42.86827" lon="0.26193">
        <ele>1980.5</ele>
        <time>2021-11-18T15:16:03Z</time>
      </trkpt>
      <trkpt lat="42.86823" lon="0.26201">
        <ele>1977.4</ele>
        <time>2021-11-18T15:16:10Z</time>
      </trkpt>
      <trkpt lat="42.86821" lon="0.26202">
        <ele>1976.3</ele>
        <time>2021-11-18T15:16:12Z</time>
      </trkpt>
      <trkpt lat="42.86814" lon="0.26214">
        <ele>1971.1</ele>
        <time>2021-11-18T15:16:24Z</time>
      </trkpt>
      <trkpt lat="42.8681" lon="0.26216">
        <ele>1968.9</ele>
        <time>2021-11-18T15:16:29Z</time>
      </trkpt>
      <trkpt lat="42.86808" lon="0.26217">
        <ele>1967.7</ele>
        <time>2021-11-18T15:16:33Z</time>
      </trkpt>
      <trkpt lat="42.86804" lon="0.26221">
        <ele>1965.1</ele>
        <time>2021-11-18T15:16:39Z</time>
      </trkpt>
      <trkpt lat="42.868" lon="0.26236">
        <ele>1960.7</ele>
        <time>2021-11-18T15:16:54Z</time>
      </trkpt>
      <trkpt lat="42.86796" lon="0.26237">
        <ele>1958.4</ele>
        <time>2021-11-18T15:17:02Z</time>
      </trkpt>
      <trkpt lat="42.86792" lon="0.26237">
        <ele>1956.4</ele>
        <time>2021-11-18T15:17:07Z</time>
      </trkpt>
      <trkpt lat="42.86788" lon="0.26241">
        <ele>1953.6</ele>
        <time>2021-11-18T15:17:13Z</time>
      </trkpt>
      <trkpt lat="42.86784" lon="0.26242">
        <ele>1951.3</ele>
        <time>2021-11-18T15:17:19Z</time>
      </trkpt>
      <trkpt lat="42.86779" lon="0.26247">
        <ele>1947.8</ele>
        <time>2021-11-18T15:17:28Z</time>
      </trkpt>
      <trkpt lat="42.86764" lon="0.26265">
        <ele>1938.9</ele>
        <time>2021-11-18T15:17:49Z</time>
      </trkpt>
      <trkpt lat="42.86756" lon="0.26276">
        <ele>1934.3</ele>
        <time>2021-11-18T15:17:59Z</time>
      </trkpt>
      <trkpt lat="42.86753" lon="0.2628">
        <ele>1932.5</ele>
        <time>2021-11-18T15:18:05Z</time>
      </trkpt>
      <trkpt lat="42.86751" lon="0.2629">
        <ele>1931.1</ele>
        <time>2021-11-18T15:18:15Z</time>
      </trkpt>
      <trkpt lat="42.86748" lon="0.26295">
        <ele>1929.8</ele>
        <time>2021-11-18T15:18:21Z</time>
      </trkpt>
      <trkpt lat="42.86745" lon="0.26298">
        <ele>1928.7</ele>
        <time>2021-11-18T15:18:26Z</time>
      </trkpt>
      <trkpt lat="42.86745" lon="0.263">
        <ele>1928.6</ele>
        <time>2021-11-18T15:18:29Z</time>
      </trkpt>
      <trkpt lat="42.86744" lon="0.26309">
        <ele>1927.9</ele>
        <time>2021-11-18T15:18:38Z</time>
      </trkpt>
      <trkpt lat="42.86743" lon="0.26315">
        <ele>1927.3</ele>
        <time>2021-11-18T15:18:45Z</time>
      </trkpt>
      <trkpt lat="42.86743" lon="0.26317">
        <ele>1927.2</ele>
        <time>2021-11-18T15:18:50Z</time>
      </trkpt>
      <trkpt lat="42.86744" lon="0.26319">
        <ele>1927.5</ele>
        <time>2021-11-18T15:18:54Z</time>
      </trkpt>
      <trkpt lat="42.86742" lon="0.26328">
        <ele>1926.4</ele>
        <time>2021-11-18T15:19:01Z</time>
      </trkpt>
      <trkpt lat="42.8674" lon="0.2633">
        <ele>1925.6</ele>
        <time>2021-11-18T15:19:03Z</time>
      </trkpt>
      <trkpt lat="42.86741" lon="0.26325">
        <ele>1926.2</ele>
        <time>2021-11-18T15:19:27Z</time>
      </trkpt>
      <trkpt lat="42.86742" lon="0.26326">
        <ele>1926.5</ele>
        <time>2021-11-18T15:20:15Z</time>
      </trkpt>
      <trkpt lat="42.86738" lon="0.26327">
        <ele>1925</ele>
        <time>2021-11-18T15:20:18Z</time>
      </trkpt>
      <trkpt lat="42.86736" lon="0.26328">
        <ele>1924.2</ele>
        <time>2021-11-18T15:20:19Z</time>
      </trkpt>
      <trkpt lat="42.86733" lon="0.2633">
        <ele>1923.1</ele>
        <time>2021-11-18T15:20:21Z</time>
      </trkpt>
      <trkpt lat="42.8673" lon="0.26331">
        <ele>1921.9</ele>
        <time>2021-11-18T15:20:22Z</time>
      </trkpt>
      <trkpt lat="42.86728" lon="0.2633">
        <ele>1921.3</ele>
        <time>2021-11-18T15:20:24Z</time>
      </trkpt>
      <trkpt lat="42.86726" lon="0.26331">
        <ele>1920.5</ele>
        <time>2021-11-18T15:20:26Z</time>
      </trkpt>
      <trkpt lat="42.86722" lon="0.26333">
        <ele>1918.9</ele>
        <time>2021-11-18T15:20:32Z</time>
      </trkpt>
      <trkpt lat="42.86721" lon="0.26335">
        <ele>1918.7</ele>
        <time>2021-11-18T15:20:34Z</time>
      </trkpt>
      <trkpt lat="42.86719" lon="0.26338">
        <ele>1918.1</ele>
        <time>2021-11-18T15:20:36Z</time>
      </trkpt>
      <trkpt lat="42.86717" lon="0.26341">
        <ele>1917.6</ele>
        <time>2021-11-18T15:20:40Z</time>
      </trkpt>
      <trkpt lat="42.86712" lon="0.26343">
        <ele>1915.8</ele>
        <time>2021-11-18T15:20:44Z</time>
      </trkpt>
      <trkpt lat="42.8671" lon="0.26345">
        <ele>1915.1</ele>
        <time>2021-11-18T15:20:47Z</time>
      </trkpt>
      <trkpt lat="42.86704" lon="0.2635">
        <ele>1913</ele>
        <time>2021-11-18T15:20:54Z</time>
      </trkpt>
      <trkpt lat="42.86702" lon="0.26352">
        <ele>1912.3</ele>
        <time>2021-11-18T15:20:56Z</time>
      </trkpt>
      <trkpt lat="42.86701" lon="0.26355">
        <ele>1912</ele>
        <time>2021-11-18T15:21:00Z</time>
      </trkpt>
      <trkpt lat="42.86699" lon="0.26358">
        <ele>1911.2</ele>
        <time>2021-11-18T15:21:03Z</time>
      </trkpt>
      <trkpt lat="42.86699" lon="0.26357">
        <ele>1911.2</ele>
        <time>2021-11-18T15:21:14Z</time>
      </trkpt>
      <trkpt lat="42.86706" lon="0.26352">
        <ele>1913.9</ele>
        <time>2021-11-18T15:21:22Z</time>
      </trkpt>
      <trkpt lat="42.86707" lon="0.26349">
        <ele>1914.1</ele>
        <time>2021-11-18T15:21:25Z</time>
      </trkpt>
      <trkpt lat="42.86705" lon="0.26343">
        <ele>1913.1</ele>
        <time>2021-11-18T15:21:32Z</time>
      </trkpt>
      <trkpt lat="42.86703" lon="0.26341">
        <ele>1912.3</ele>
        <time>2021-11-18T15:21:35Z</time>
      </trkpt>
      <trkpt lat="42.86701" lon="0.2634">
        <ele>1911.5</ele>
        <time>2021-11-18T15:21:38Z</time>
      </trkpt>
      <trkpt lat="42.867" lon="0.26338">
        <ele>1911.1</ele>
        <time>2021-11-18T15:21:41Z</time>
      </trkpt>
      <trkpt lat="42.86698" lon="0.26337">
        <ele>1910.4</ele>
        <time>2021-11-18T15:21:45Z</time>
      </trkpt>
      <trkpt lat="42.86697" lon="0.26335">
        <ele>1910</ele>
        <time>2021-11-18T15:21:47Z</time>
      </trkpt>
      <trkpt lat="42.86695" lon="0.26334">
        <ele>1909.2</ele>
        <time>2021-11-18T15:21:51Z</time>
      </trkpt>
      <trkpt lat="42.86694" lon="0.26333">
        <ele>1908.9</ele>
        <time>2021-11-18T15:21:55Z</time>
      </trkpt>
      <trkpt lat="42.8669" lon="0.26337">
        <ele>1907.4</ele>
        <time>2021-11-18T15:22:05Z</time>
      </trkpt>
      <trkpt lat="42.8669" lon="0.26339">
        <ele>1907.4</ele>
        <time>2021-11-18T15:22:11Z</time>
      </trkpt>
      <trkpt lat="42.86688" lon="0.26341">
        <ele>1906.7</ele>
        <time>2021-11-18T15:22:14Z</time>
      </trkpt>
      <trkpt lat="42.86686" lon="0.26341">
        <ele>1906</ele>
        <time>2021-11-18T15:22:17Z</time>
      </trkpt>
      <trkpt lat="42.86683" lon="0.26345">
        <ele>1904.8</ele>
        <time>2021-11-18T15:22:21Z</time>
      </trkpt>
      <trkpt lat="42.86682" lon="0.26348">
        <ele>1904.4</ele>
        <time>2021-11-18T15:22:24Z</time>
      </trkpt>
      <trkpt lat="42.86675" lon="0.26353">
        <ele>1901.6</ele>
        <time>2021-11-18T15:22:40Z</time>
      </trkpt>
      <trkpt lat="42.86672" lon="0.26354">
        <ele>1900.4</ele>
        <time>2021-11-18T15:22:44Z</time>
      </trkpt>
      <trkpt lat="42.86671" lon="0.26354">
        <ele>1900</ele>
        <time>2021-11-18T15:22:47Z</time>
      </trkpt>
      <trkpt lat="42.86667" lon="0.26357">
        <ele>1898.3</ele>
        <time>2021-11-18T15:22:55Z</time>
      </trkpt>
      <trkpt lat="42.86664" lon="0.26357">
        <ele>1897.2</ele>
        <time>2021-11-18T15:22:59Z</time>
      </trkpt>
      <trkpt lat="42.86661" lon="0.26361">
        <ele>1895.9</ele>
        <time>2021-11-18T15:23:06Z</time>
      </trkpt>
      <trkpt lat="42.8666" lon="0.26361">
        <ele>1895.6</ele>
        <time>2021-11-18T15:23:10Z</time>
      </trkpt>
      <trkpt lat="42.86659" lon="0.26357">
        <ele>1895.3</ele>
        <time>2021-11-18T15:23:17Z</time>
      </trkpt>
      <trkpt lat="42.86654" lon="0.26364">
        <ele>1893.3</ele>
        <time>2021-11-18T15:23:36Z</time>
      </trkpt>
      <trkpt lat="42.86652" lon="0.26366">
        <ele>1892.6</ele>
        <time>2021-11-18T15:23:40Z</time>
      </trkpt>
      <trkpt lat="42.86649" lon="0.2637">
        <ele>1891.4</ele>
        <time>2021-11-18T15:23:46Z</time>
      </trkpt>
      <trkpt lat="42.86647" lon="0.2637">
        <ele>1890.7</ele>
        <time>2021-11-18T15:23:51Z</time>
      </trkpt>
      <trkpt lat="42.86645" lon="0.26371">
        <ele>1890</ele>
        <time>2021-11-18T15:23:55Z</time>
      </trkpt>
      <trkpt lat="42.86643" lon="0.26372">
        <ele>1889.3</ele>
        <time>2021-11-18T15:23:58Z</time>
      </trkpt>
      <trkpt lat="42.8664" lon="0.26375">
        <ele>1888.2</ele>
        <time>2021-11-18T15:24:10Z</time>
      </trkpt>
      <trkpt lat="42.86638" lon="0.26374">
        <ele>1887.5</ele>
        <time>2021-11-18T15:24:15Z</time>
      </trkpt>
      <trkpt lat="42.86636" lon="0.26373">
        <ele>1886.8</ele>
        <time>2021-11-18T15:24:17Z</time>
      </trkpt>
      <trkpt lat="42.86634" lon="0.26373">
        <ele>1886.1</ele>
        <time>2021-11-18T15:24:20Z</time>
      </trkpt>
      <trkpt lat="42.86633" lon="0.26372">
        <ele>1885.8</ele>
        <time>2021-11-18T15:24:24Z</time>
      </trkpt>
      <trkpt lat="42.86632" lon="0.26375">
        <ele>1885.4</ele>
        <time>2021-11-18T15:24:26Z</time>
      </trkpt>
      <trkpt lat="42.8663" lon="0.26374">
        <ele>1884.7</ele>
        <time>2021-11-18T15:24:30Z</time>
      </trkpt>
      <trkpt lat="42.86628" lon="0.26373">
        <ele>1884</ele>
        <time>2021-11-18T15:24:33Z</time>
      </trkpt>
      <trkpt lat="42.86627" lon="0.26371">
        <ele>1883.7</ele>
        <time>2021-11-18T15:24:37Z</time>
      </trkpt>
      <trkpt lat="42.86625" lon="0.2637">
        <ele>1882.9</ele>
        <time>2021-11-18T15:24:41Z</time>
      </trkpt>
      <trkpt lat="42.86622" lon="0.26368">
        <ele>1881.8</ele>
        <time>2021-11-18T15:24:45Z</time>
      </trkpt>
      <trkpt lat="42.8662" lon="0.26365">
        <ele>1881.1</ele>
        <time>2021-11-18T15:24:47Z</time>
      </trkpt>
      <trkpt lat="42.86618" lon="0.26366">
        <ele>1880.4</ele>
        <time>2021-11-18T15:24:52Z</time>
      </trkpt>
      <trkpt lat="42.86617" lon="0.26368">
        <ele>1880.1</ele>
        <time>2021-11-18T15:24:56Z</time>
      </trkpt>
      <trkpt lat="42.86615" lon="0.26368">
        <ele>1879.4</ele>
        <time>2021-11-18T15:25:00Z</time>
      </trkpt>
      <trkpt lat="42.86613" lon="0.26368">
        <ele>1878.6</ele>
        <time>2021-11-18T15:25:04Z</time>
      </trkpt>
      <trkpt lat="42.86612" lon="0.26373">
        <ele>1878.4</ele>
        <time>2021-11-18T15:25:13Z</time>
      </trkpt>
      <trkpt lat="42.86611" lon="0.26374">
        <ele>1878.1</ele>
        <time>2021-11-18T15:25:17Z</time>
      </trkpt>
      <trkpt lat="42.8661" lon="0.26375">
        <ele>1877.8</ele>
        <time>2021-11-18T15:25:23Z</time>
      </trkpt>
      <trkpt lat="42.86608" lon="0.26375">
        <ele>1877.1</ele>
        <time>2021-11-18T15:25:25Z</time>
      </trkpt>
      <trkpt lat="42.86606" lon="0.26375">
        <ele>1876.4</ele>
        <time>2021-11-18T15:25:27Z</time>
      </trkpt>
      <trkpt lat="42.86602" lon="0.26381">
        <ele>1875.2</ele>
        <time>2021-11-18T15:25:35Z</time>
      </trkpt>
      <trkpt lat="42.86598" lon="0.26383">
        <ele>1873.9</ele>
        <time>2021-11-18T15:25:40Z</time>
      </trkpt>
      <trkpt lat="42.86596" lon="0.26383">
        <ele>1873.3</ele>
        <time>2021-11-18T15:25:44Z</time>
      </trkpt>
      <trkpt lat="42.86594" lon="0.26385">
        <ele>1872.7</ele>
        <time>2021-11-18T15:25:47Z</time>
      </trkpt>
      <trkpt lat="42.8659" lon="0.26387">
        <ele>1871.4</ele>
        <time>2021-11-18T15:25:53Z</time>
      </trkpt>
      <trkpt lat="42.86589" lon="0.26389">
        <ele>1871.2</ele>
        <time>2021-11-18T15:25:55Z</time>
      </trkpt>
      <trkpt lat="42.86587" lon="0.26392">
        <ele>1870.7</ele>
        <time>2021-11-18T15:25:57Z</time>
      </trkpt>
      <trkpt lat="42.86586" lon="0.26394">
        <ele>1870.5</ele>
        <time>2021-11-18T15:26:00Z</time>
      </trkpt>
      <trkpt lat="42.86584" lon="0.26395">
        <ele>1869.9</ele>
        <time>2021-11-18T15:26:02Z</time>
      </trkpt>
      <trkpt lat="42.86581" lon="0.26398">
        <ele>1869.3</ele>
        <time>2021-11-18T15:26:08Z</time>
      </trkpt>
      <trkpt lat="42.86577" lon="0.26399">
        <ele>1868.5</ele>
        <time>2021-11-18T15:26:14Z</time>
      </trkpt>
      <trkpt lat="42.86579" lon="0.26397">
        <ele>1868.8</ele>
        <time>2021-11-18T15:26:37Z</time>
      </trkpt>
      <trkpt lat="42.86576" lon="0.26396">
        <ele>1868</ele>
        <time>2021-11-18T15:26:42Z</time>
      </trkpt>
      <trkpt lat="42.86574" lon="0.26393">
        <ele>1867.2</ele>
        <time>2021-11-18T15:26:45Z</time>
      </trkpt>
      <trkpt lat="42.86575" lon="0.2639">
        <ele>1867.2</ele>
        <time>2021-11-18T15:26:49Z</time>
      </trkpt>
      <trkpt lat="42.86573" lon="0.26387">
        <ele>1866.3</ele>
        <time>2021-11-18T15:26:51Z</time>
      </trkpt>
      <trkpt lat="42.86571" lon="0.26386">
        <ele>1865.7</ele>
        <time>2021-11-18T15:26:53Z</time>
      </trkpt>
      <trkpt lat="42.8657" lon="0.26389">
        <ele>1865.7</ele>
        <time>2021-11-18T15:26:55Z</time>
      </trkpt>
      <trkpt lat="42.86568" lon="0.26391">
        <ele>1865.4</ele>
        <time>2021-11-18T15:26:57Z</time>
      </trkpt>
      <trkpt lat="42.86565" lon="0.26391">
        <ele>1864.6</ele>
        <time>2021-11-18T15:27:00Z</time>
      </trkpt>
      <trkpt lat="42.86562" lon="0.26395">
        <ele>1864.4</ele>
        <time>2021-11-18T15:27:05Z</time>
      </trkpt>
      <trkpt lat="42.86561" lon="0.26397">
        <ele>1864.5</ele>
        <time>2021-11-18T15:27:10Z</time>
      </trkpt>
      <trkpt lat="42.86554" lon="0.26398">
        <ele>1863</ele>
        <time>2021-11-18T15:27:21Z</time>
      </trkpt>
      <trkpt lat="42.86552" lon="0.264">
        <ele>1862.9</ele>
        <time>2021-11-18T15:27:25Z</time>
      </trkpt>
      <trkpt lat="42.86551" lon="0.26402">
        <ele>1863.1</ele>
        <time>2021-11-18T15:27:29Z</time>
      </trkpt>
      <trkpt lat="42.86552" lon="0.26404">
        <ele>1863.7</ele>
        <time>2021-11-18T15:27:40Z</time>
      </trkpt>
      <trkpt lat="42.8655" lon="0.2641">
        <ele>1864.5</ele>
        <time>2021-11-18T15:27:52Z</time>
      </trkpt>
      <trkpt lat="42.86548" lon="0.2641">
        <ele>1864.1</ele>
        <time>2021-11-18T15:27:56Z</time>
      </trkpt>
      <trkpt lat="42.86543" lon="0.2641">
        <ele>1863.2</ele>
        <time>2021-11-18T15:28:03Z</time>
      </trkpt>
      <trkpt lat="42.86541" lon="0.26411">
        <ele>1863.1</ele>
        <time>2021-11-18T15:28:05Z</time>
      </trkpt>
      <trkpt lat="42.86539" lon="0.26414">
        <ele>1863.4</ele>
        <time>2021-11-18T15:28:08Z</time>
      </trkpt>
      <trkpt lat="42.86536" lon="0.26415">
        <ele>1863.2</ele>
        <time>2021-11-18T15:28:12Z</time>
      </trkpt>
      <trkpt lat="42.86532" lon="0.26414">
        <ele>1862.3</ele>
        <time>2021-11-18T15:28:16Z</time>
      </trkpt>
      <trkpt lat="42.8653" lon="0.26414">
        <ele>1861.9</ele>
        <time>2021-11-18T15:28:18Z</time>
      </trkpt>
      <trkpt lat="42.86528" lon="0.26413">
        <ele>1861.3</ele>
        <time>2021-11-18T15:28:22Z</time>
      </trkpt>
      <trkpt lat="42.86527" lon="0.2641">
        <ele>1860.2</ele>
        <time>2021-11-18T15:28:25Z</time>
      </trkpt>
      <trkpt lat="42.86526" lon="0.26409">
        <ele>1859.8</ele>
        <time>2021-11-18T15:28:28Z</time>
      </trkpt>
      <trkpt lat="42.86524" lon="0.26409">
        <ele>1859.4</ele>
        <time>2021-11-18T15:28:31Z</time>
      </trkpt>
      <trkpt lat="42.86522" lon="0.26407">
        <ele>1858.4</ele>
        <time>2021-11-18T15:28:34Z</time>
      </trkpt>
      <trkpt lat="42.86509" lon="0.26405">
        <ele>1855.1</ele>
        <time>2021-11-18T15:28:49Z</time>
      </trkpt>
      <trkpt lat="42.86507" lon="0.26406">
        <ele>1855.1</ele>
        <time>2021-11-18T15:28:52Z</time>
      </trkpt>
      <trkpt lat="42.86503" lon="0.26405">
        <ele>1853.9</ele>
        <time>2021-11-18T15:28:59Z</time>
      </trkpt>
      <trkpt lat="42.86501" lon="0.26406">
        <ele>1853.8</ele>
        <time>2021-11-18T15:29:03Z</time>
      </trkpt>
      <trkpt lat="42.86499" lon="0.26405">
        <ele>1853.1</ele>
        <time>2021-11-18T15:29:07Z</time>
      </trkpt>
      <trkpt lat="42.86497" lon="0.26406">
        <ele>1853.2</ele>
        <time>2021-11-18T15:29:11Z</time>
      </trkpt>
      <trkpt lat="42.86495" lon="0.26406">
        <ele>1852.9</ele>
        <time>2021-11-18T15:29:15Z</time>
      </trkpt>
      <trkpt lat="42.86493" lon="0.26406">
        <ele>1852.5</ele>
        <time>2021-11-18T15:29:18Z</time>
      </trkpt>
      <trkpt lat="42.86489" lon="0.26407">
        <ele>1852.3</ele>
        <time>2021-11-18T15:29:23Z</time>
      </trkpt>
      <trkpt lat="42.86482" lon="0.26407">
        <ele>1851.2</ele>
        <time>2021-11-18T15:29:35Z</time>
      </trkpt>
      <trkpt lat="42.8648" lon="0.26406">
        <ele>1850.5</ele>
        <time>2021-11-18T15:29:38Z</time>
      </trkpt>
      <trkpt lat="42.86478" lon="0.26405">
        <ele>1849.7</ele>
        <time>2021-11-18T15:29:43Z</time>
      </trkpt>
      <trkpt lat="42.86486" lon="0.26411">
        <ele>1853.6</ele>
        <time>2021-11-18T15:31:06Z</time>
      </trkpt>
      <trkpt lat="42.86483" lon="0.26408">
        <ele>1851.8</ele>
        <time>2021-11-18T15:31:25Z</time>
      </trkpt>
      <trkpt lat="42.86479" lon="0.26406">
        <ele>1850.3</ele>
        <time>2021-11-18T15:31:49Z</time>
      </trkpt>
      <trkpt lat="42.86478" lon="0.26408">
        <ele>1851</ele>
        <time>2021-11-18T15:31:53Z</time>
      </trkpt>
      <trkpt lat="42.86474" lon="0.2641">
        <ele>1851.3</ele>
        <time>2021-11-18T15:31:58Z</time>
      </trkpt>
      <trkpt lat="42.86472" lon="0.26409">
        <ele>1850.6</ele>
        <time>2021-11-18T15:32:01Z</time>
      </trkpt>
      <trkpt lat="42.8647" lon="0.26409">
        <ele>1850.3</ele>
        <time>2021-11-18T15:32:04Z</time>
      </trkpt>
      <trkpt lat="42.86468" lon="0.26407">
        <ele>1849</ele>
        <time>2021-11-18T15:32:11Z</time>
      </trkpt>
      <trkpt lat="42.86466" lon="0.26405">
        <ele>1847.8</ele>
        <time>2021-11-18T15:32:14Z</time>
      </trkpt>
      <trkpt lat="42.8646" lon="0.26402">
        <ele>1845.5</ele>
        <time>2021-11-18T15:32:21Z</time>
      </trkpt>
      <trkpt lat="42.86455" lon="0.264">
        <ele>1843.7</ele>
        <time>2021-11-18T15:32:27Z</time>
      </trkpt>
      <trkpt lat="42.8645" lon="0.26401">
        <ele>1843.4</ele>
        <time>2021-11-18T15:32:33Z</time>
      </trkpt>
      <trkpt lat="42.86449" lon="0.264">
        <ele>1842.8</ele>
        <time>2021-11-18T15:32:35Z</time>
      </trkpt>
      <trkpt lat="42.86447" lon="0.26399">
        <ele>1841.9</ele>
        <time>2021-11-18T15:32:37Z</time>
      </trkpt>
      <trkpt lat="42.86431" lon="0.26396">
        <ele>1837.8</ele>
        <time>2021-11-18T15:33:02Z</time>
      </trkpt>
      <trkpt lat="42.8643" lon="0.26398">
        <ele>1838.6</ele>
        <time>2021-11-18T15:33:10Z</time>
      </trkpt>
      <trkpt lat="42.86427" lon="0.26396">
        <ele>1837.1</ele>
        <time>2021-11-18T15:33:20Z</time>
      </trkpt>
      <trkpt lat="42.86425" lon="0.26397">
        <ele>1837.3</ele>
        <time>2021-11-18T15:33:28Z</time>
      </trkpt>
      <trkpt lat="42.86423" lon="0.26396">
        <ele>1836.4</ele>
        <time>2021-11-18T15:33:31Z</time>
      </trkpt>
      <trkpt lat="42.86422" lon="0.26398">
        <ele>1837.3</ele>
        <time>2021-11-18T15:33:34Z</time>
      </trkpt>
      <trkpt lat="42.8642" lon="0.26398">
        <ele>1836.9</ele>
        <time>2021-11-18T15:33:39Z</time>
      </trkpt>
      <trkpt lat="42.86418" lon="0.26397">
        <ele>1836.1</ele>
        <time>2021-11-18T15:33:42Z</time>
      </trkpt>
      <trkpt lat="42.86419" lon="0.26395">
        <ele>1835.2</ele>
        <time>2021-11-18T15:33:47Z</time>
      </trkpt>
      <trkpt lat="42.86417" lon="0.26389">
        <ele>1831.8</ele>
        <time>2021-11-18T15:33:57Z</time>
      </trkpt>
      <trkpt lat="42.86416" lon="0.26387">
        <ele>1830.7</ele>
        <time>2021-11-18T15:34:01Z</time>
      </trkpt>
      <trkpt lat="42.86415" lon="0.26383">
        <ele>1828.6</ele>
        <time>2021-11-18T15:34:03Z</time>
      </trkpt>
      <trkpt lat="42.86414" lon="0.26381">
        <ele>1827.5</ele>
        <time>2021-11-18T15:34:04Z</time>
      </trkpt>
      <trkpt lat="42.86412" lon="0.26394">
        <ele>1834.1</ele>
        <time>2021-11-18T15:34:45Z</time>
      </trkpt>
      <trkpt lat="42.86414" lon="0.2639">
        <ele>1832.1</ele>
        <time>2021-11-18T15:35:00Z</time>
      </trkpt>
      <trkpt lat="42.86412" lon="0.26386">
        <ele>1830</ele>
        <time>2021-11-18T15:35:11Z</time>
      </trkpt>
      <trkpt lat="42.86403" lon="0.2638">
        <ele>1826.7</ele>
        <time>2021-11-18T15:35:34Z</time>
      </trkpt>
      <trkpt lat="42.86401" lon="0.26381">
        <ele>1827.1</ele>
        <time>2021-11-18T15:35:38Z</time>
      </trkpt>
      <trkpt lat="42.86399" lon="0.2638">
        <ele>1826.6</ele>
        <time>2021-11-18T15:35:44Z</time>
      </trkpt>
      <trkpt lat="42.86398" lon="0.26378">
        <ele>1825.6</ele>
        <time>2021-11-18T15:35:48Z</time>
      </trkpt>
      <trkpt lat="42.86394" lon="0.26376">
        <ele>1824.5</ele>
        <time>2021-11-18T15:35:55Z</time>
      </trkpt>
      <trkpt lat="42.86392" lon="0.26375">
        <ele>1823.9</ele>
        <time>2021-11-18T15:35:59Z</time>
      </trkpt>
      <trkpt lat="42.8639" lon="0.26376">
        <ele>1824.4</ele>
        <time>2021-11-18T15:36:02Z</time>
      </trkpt>
      <trkpt lat="42.86388" lon="0.26377">
        <ele>1824.8</ele>
        <time>2021-11-18T15:36:06Z</time>
      </trkpt>
      <trkpt lat="42.86385" lon="0.26374">
        <ele>1823.3</ele>
        <time>2021-11-18T15:36:11Z</time>
      </trkpt>
      <trkpt lat="42.86383" lon="0.26374">
        <ele>1823.2</ele>
        <time>2021-11-18T15:36:13Z</time>
      </trkpt>
      <trkpt lat="42.8638" lon="0.2637">
        <ele>1821.2</ele>
        <time>2021-11-18T15:36:17Z</time>
      </trkpt>
      <trkpt lat="42.86378" lon="0.26369">
        <ele>1820.7</ele>
        <time>2021-11-18T15:36:24Z</time>
      </trkpt>
      <trkpt lat="42.86376" lon="0.2637">
        <ele>1821.1</ele>
        <time>2021-11-18T15:36:28Z</time>
      </trkpt>
      <trkpt lat="42.86375" lon="0.26368">
        <ele>1820.1</ele>
        <time>2021-11-18T15:36:29Z</time>
      </trkpt>
      <trkpt lat="42.86371" lon="0.26362">
        <ele>1817.2</ele>
        <time>2021-11-18T15:36:42Z</time>
      </trkpt>
      <trkpt lat="42.86369" lon="0.26361">
        <ele>1816.7</ele>
        <time>2021-11-18T15:36:47Z</time>
      </trkpt>
      <trkpt lat="42.86367" lon="0.26358">
        <ele>1815.3</ele>
        <time>2021-11-18T15:36:50Z</time>
      </trkpt>
      <trkpt lat="42.86365" lon="0.26357">
        <ele>1814.8</ele>
        <time>2021-11-18T15:36:53Z</time>
      </trkpt>
      <trkpt lat="42.86364" lon="0.26355">
        <ele>1813.8</ele>
        <time>2021-11-18T15:36:57Z</time>
      </trkpt>
      <trkpt lat="42.86363" lon="0.26353">
        <ele>1812.9</ele>
        <time>2021-11-18T15:37:01Z</time>
      </trkpt>
      <trkpt lat="42.86361" lon="0.26352">
        <ele>1812.4</ele>
        <time>2021-11-18T15:37:06Z</time>
      </trkpt>
      <trkpt lat="42.86357" lon="0.26348">
        <ele>1810.5</ele>
        <time>2021-11-18T15:37:12Z</time>
      </trkpt>
      <trkpt lat="42.86353" lon="0.26347">
        <ele>1810.1</ele>
        <time>2021-11-18T15:37:20Z</time>
      </trkpt>
      <trkpt lat="42.86351" lon="0.26346">
        <ele>1809.6</ele>
        <time>2021-11-18T15:37:23Z</time>
      </trkpt>
      <trkpt lat="42.86348" lon="0.26347">
        <ele>1810.1</ele>
        <time>2021-11-18T15:37:26Z</time>
      </trkpt>
      <trkpt lat="42.86346" lon="0.26348">
        <ele>1810.5</ele>
        <time>2021-11-18T15:37:28Z</time>
      </trkpt>
      <trkpt lat="42.86344" lon="0.26347">
        <ele>1810.1</ele>
        <time>2021-11-18T15:37:30Z</time>
      </trkpt>
      <trkpt lat="42.86339" lon="0.26344">
        <ele>1808.7</ele>
        <time>2021-11-18T15:37:34Z</time>
      </trkpt>
      <trkpt lat="42.86333" lon="0.26339">
        <ele>1806.4</ele>
        <time>2021-11-18T15:37:40Z</time>
      </trkpt>
      <trkpt lat="42.86329" lon="0.26335">
        <ele>1802.9</ele>
        <time>2021-11-18T15:37:46Z</time>
      </trkpt>
      <trkpt lat="42.86327" lon="0.26336">
        <ele>1802.5</ele>
        <time>2021-11-18T15:37:48Z</time>
      </trkpt>
      <trkpt lat="42.86322" lon="0.26332">
        <ele>1798.6</ele>
        <time>2021-11-18T15:37:54Z</time>
      </trkpt>
      <trkpt lat="42.8632" lon="0.26331">
        <ele>1797.3</ele>
        <time>2021-11-18T15:37:56Z</time>
      </trkpt>
      <trkpt lat="42.86318" lon="0.26329">
        <ele>1795.6</ele>
        <time>2021-11-18T15:37:59Z</time>
      </trkpt>
      <trkpt lat="42.86316" lon="0.26328">
        <ele>1794.3</ele>
        <time>2021-11-18T15:38:02Z</time>
      </trkpt>
      <trkpt lat="42.86314" lon="0.26327">
        <ele>1793</ele>
        <time>2021-11-18T15:38:06Z</time>
      </trkpt>
      <trkpt lat="42.86312" lon="0.26326">
        <ele>1791.7</ele>
        <time>2021-11-18T15:38:10Z</time>
      </trkpt>
      <trkpt lat="42.86307" lon="0.26321">
        <ele>1787.4</ele>
        <time>2021-11-18T15:38:18Z</time>
      </trkpt>
      <trkpt lat="42.86305" lon="0.26319">
        <ele>1785.7</ele>
        <time>2021-11-18T15:38:20Z</time>
      </trkpt>
      <trkpt lat="42.86303" lon="0.26318">
        <ele>1784.5</ele>
        <time>2021-11-18T15:38:22Z</time>
      </trkpt>
      <trkpt lat="42.86302" lon="0.26316">
        <ele>1783.2</ele>
        <time>2021-11-18T15:38:26Z</time>
      </trkpt>
      <trkpt lat="42.863" lon="0.26315">
        <ele>1781.9</ele>
        <time>2021-11-18T15:38:29Z</time>
      </trkpt>
      <trkpt lat="42.86295" lon="0.26312">
        <ele>1778.6</ele>
        <time>2021-11-18T15:38:35Z</time>
      </trkpt>
      <trkpt lat="42.86291" lon="0.26306">
        <ele>1774.4</ele>
        <time>2021-11-18T15:38:42Z</time>
      </trkpt>
      <trkpt lat="42.8629" lon="0.26303">
        <ele>1772.7</ele>
        <time>2021-11-18T15:38:47Z</time>
      </trkpt>
      <trkpt lat="42.86289" lon="0.26301">
        <ele>1771.5</ele>
        <time>2021-11-18T15:38:51Z</time>
      </trkpt>
      <trkpt lat="42.86289" lon="0.26298">
        <ele>1770.2</ele>
        <time>2021-11-18T15:38:56Z</time>
      </trkpt>
      <trkpt lat="42.86288" lon="0.26295">
        <ele>1768.5</ele>
        <time>2021-11-18T15:38:59Z</time>
      </trkpt>
      <trkpt lat="42.86287" lon="0.26293">
        <ele>1767.3</ele>
        <time>2021-11-18T15:39:04Z</time>
      </trkpt>
      <trkpt lat="42.86282" lon="0.26288">
        <ele>1763.2</ele>
        <time>2021-11-18T15:39:12Z</time>
      </trkpt>
      <trkpt lat="42.8628" lon="0.26287">
        <ele>1762.1</ele>
        <time>2021-11-18T15:39:15Z</time>
      </trkpt>
      <trkpt lat="42.86278" lon="0.26285">
        <ele>1760.5</ele>
        <time>2021-11-18T15:39:18Z</time>
      </trkpt>
      <trkpt lat="42.86274" lon="0.26283">
        <ele>1758.1</ele>
        <time>2021-11-18T15:39:24Z</time>
      </trkpt>
      <trkpt lat="42.86274" lon="0.2628">
        <ele>1756.9</ele>
        <time>2021-11-18T15:39:33Z</time>
      </trkpt>
      <trkpt lat="42.8627" lon="0.26278">
        <ele>1754.5</ele>
        <time>2021-11-18T15:39:40Z</time>
      </trkpt>
      <trkpt lat="42.86259" lon="0.26262">
        <ele>1744</ele>
        <time>2021-11-18T15:39:58Z</time>
      </trkpt>
      <trkpt lat="42.86253" lon="0.26252">
        <ele>1737.8</ele>
        <time>2021-11-18T15:40:11Z</time>
      </trkpt>
      <trkpt lat="42.86251" lon="0.2625">
        <ele>1736.3</ele>
        <time>2021-11-18T15:40:15Z</time>
      </trkpt>
      <trkpt lat="42.8625" lon="0.26248">
        <ele>1735.4</ele>
        <time>2021-11-18T15:40:17Z</time>
      </trkpt>
      <trkpt lat="42.86249" lon="0.26246">
        <ele>1734.4</ele>
        <time>2021-11-18T15:40:20Z</time>
      </trkpt>
      <trkpt lat="42.8625" lon="0.26244">
        <ele>1734.3</ele>
        <time>2021-11-18T15:40:24Z</time>
      </trkpt>
      <trkpt lat="42.8625" lon="0.26242">
        <ele>1733.7</ele>
        <time>2021-11-18T15:40:27Z</time>
      </trkpt>
      <trkpt lat="42.86249" lon="0.26239">
        <ele>1732.4</ele>
        <time>2021-11-18T15:40:30Z</time>
      </trkpt>
      <trkpt lat="42.86243" lon="0.26228">
        <ele>1727</ele>
        <time>2021-11-18T15:40:43Z</time>
      </trkpt>
      <trkpt lat="42.86232" lon="0.26216">
        <ele>1719.7</ele>
        <time>2021-11-18T15:41:00Z</time>
      </trkpt>
      <trkpt lat="42.86231" lon="0.26214">
        <ele>1718.8</ele>
        <time>2021-11-18T15:41:04Z</time>
      </trkpt>
      <trkpt lat="42.86229" lon="0.26212">
        <ele>1717.5</ele>
        <time>2021-11-18T15:41:08Z</time>
      </trkpt>
      <trkpt lat="42.86227" lon="0.26211">
        <ele>1716.5</ele>
        <time>2021-11-18T15:41:11Z</time>
      </trkpt>
      <trkpt lat="42.86225" lon="0.26211">
        <ele>1715.8</ele>
        <time>2021-11-18T15:41:16Z</time>
      </trkpt>
      <trkpt lat="42.86223" lon="0.26209">
        <ele>1714.6</ele>
        <time>2021-11-18T15:41:19Z</time>
      </trkpt>
      <trkpt lat="42.8622" lon="0.26209">
        <ele>1713.5</ele>
        <time>2021-11-18T15:41:22Z</time>
      </trkpt>
      <trkpt lat="42.8622" lon="0.26206">
        <ele>1712.8</ele>
        <time>2021-11-18T15:41:26Z</time>
      </trkpt>
      <trkpt lat="42.86218" lon="0.26205">
        <ele>1711.9</ele>
        <time>2021-11-18T15:41:29Z</time>
      </trkpt>
      <trkpt lat="42.86216" lon="0.26201">
        <ele>1710.2</ele>
        <time>2021-11-18T15:41:32Z</time>
      </trkpt>
      <trkpt lat="42.86214" lon="0.26199">
        <ele>1709</ele>
        <time>2021-11-18T15:41:35Z</time>
      </trkpt>
      <trkpt lat="42.86212" lon="0.26195">
        <ele>1707.4</ele>
        <time>2021-11-18T15:41:41Z</time>
      </trkpt>
      <trkpt lat="42.8621" lon="0.26193">
        <ele>1706.2</ele>
        <time>2021-11-18T15:41:45Z</time>
      </trkpt>
      <trkpt lat="42.86208" lon="0.26193">
        <ele>1705.6</ele>
        <time>2021-11-18T15:41:48Z</time>
      </trkpt>
      <trkpt lat="42.86206" lon="0.26192">
        <ele>1704.7</ele>
        <time>2021-11-18T15:41:52Z</time>
      </trkpt>
      <trkpt lat="42.86204" lon="0.2619">
        <ele>1703.5</ele>
        <time>2021-11-18T15:41:55Z</time>
      </trkpt>
      <trkpt lat="42.86202" lon="0.26189">
        <ele>1702.6</ele>
        <time>2021-11-18T15:41:58Z</time>
      </trkpt>
      <trkpt lat="42.86199" lon="0.26187">
        <ele>1701.2</ele>
        <time>2021-11-18T15:42:02Z</time>
      </trkpt>
      <trkpt lat="42.86194" lon="0.26186">
        <ele>1699.4</ele>
        <time>2021-11-18T15:42:06Z</time>
      </trkpt>
      <trkpt lat="42.86191" lon="0.26183">
        <ele>1697.8</ele>
        <time>2021-11-18T15:42:11Z</time>
      </trkpt>
      <trkpt lat="42.8617" lon="0.26185">
        <ele>1691.4</ele>
        <time>2021-11-18T15:42:45Z</time>
      </trkpt>
      <trkpt lat="42.86166" lon="0.26188">
        <ele>1690.6</ele>
        <time>2021-11-18T15:42:52Z</time>
      </trkpt>
      <trkpt lat="42.86165" lon="0.26191">
        <ele>1690.9</ele>
        <time>2021-11-18T15:42:55Z</time>
      </trkpt>
      <trkpt lat="42.86163" lon="0.26192">
        <ele>1690.4</ele>
        <time>2021-11-18T15:42:57Z</time>
      </trkpt>
      <trkpt lat="42.86147" lon="0.26196">
        <ele>1686</ele>
        <time>2021-11-18T15:43:14Z</time>
      </trkpt>
      <trkpt lat="42.86143" lon="0.26192">
        <ele>1684.1</ele>
        <time>2021-11-18T15:43:21Z</time>
      </trkpt>
      <trkpt lat="42.86141" lon="0.26192">
        <ele>1683.4</ele>
        <time>2021-11-18T15:43:24Z</time>
      </trkpt>
      <trkpt lat="42.86119" lon="0.26195">
        <ele>1676.8</ele>
        <time>2021-11-18T15:43:55Z</time>
      </trkpt>
      <trkpt lat="42.86116" lon="0.26196">
        <ele>1676</ele>
        <time>2021-11-18T15:43:59Z</time>
      </trkpt>
      <trkpt lat="42.86115" lon="0.26198">
        <ele>1675.9</ele>
        <time>2021-11-18T15:44:02Z</time>
      </trkpt>
      <trkpt lat="42.86112" lon="0.26198">
        <ele>1674.9</ele>
        <time>2021-11-18T15:44:05Z</time>
      </trkpt>
      <trkpt lat="42.8611" lon="0.26199">
        <ele>1674.4</ele>
        <time>2021-11-18T15:44:07Z</time>
      </trkpt>
      <trkpt lat="42.86109" lon="0.26201">
        <ele>1674.3</ele>
        <time>2021-11-18T15:44:09Z</time>
      </trkpt>
      <trkpt lat="42.86106" lon="0.26201">
        <ele>1673.3</ele>
        <time>2021-11-18T15:44:12Z</time>
      </trkpt>
      <trkpt lat="42.86102" lon="0.26202">
        <ele>1672.1</ele>
        <time>2021-11-18T15:44:16Z</time>
      </trkpt>
      <trkpt lat="42.86097" lon="0.26201">
        <ele>1670.4</ele>
        <time>2021-11-18T15:44:21Z</time>
      </trkpt>
      <trkpt lat="42.86095" lon="0.26201">
        <ele>1669.7</ele>
        <time>2021-11-18T15:44:27Z</time>
      </trkpt>
      <trkpt lat="42.86095" lon="0.26204">
        <ele>1670</ele>
        <time>2021-11-18T15:44:35Z</time>
      </trkpt>
      <trkpt lat="42.86092" lon="0.26204">
        <ele>1669</ele>
        <time>2021-11-18T15:44:38Z</time>
      </trkpt>
      <trkpt lat="42.86081" lon="0.26206">
        <ele>1665.6</ele>
        <time>2021-11-18T15:44:50Z</time>
      </trkpt>
      <trkpt lat="42.86079" lon="0.26208">
        <ele>1665.1</ele>
        <time>2021-11-18T15:44:53Z</time>
      </trkpt>
      <trkpt lat="42.86077" lon="0.26208">
        <ele>1664.5</ele>
        <time>2021-11-18T15:44:56Z</time>
      </trkpt>
      <trkpt lat="42.86069" lon="0.26215">
        <ele>1662.5</ele>
        <time>2021-11-18T15:45:04Z</time>
      </trkpt>
      <trkpt lat="42.86064" lon="0.26214">
        <ele>1660.9</ele>
        <time>2021-11-18T15:45:09Z</time>
      </trkpt>
      <trkpt lat="42.86062" lon="0.26213">
        <ele>1660.2</ele>
        <time>2021-11-18T15:45:11Z</time>
      </trkpt>
      <trkpt lat="42.86055" lon="0.26209">
        <ele>1657.6</ele>
        <time>2021-11-18T15:45:17Z</time>
      </trkpt>
      <trkpt lat="42.86034" lon="0.26223">
        <ele>1652.4</ele>
        <time>2021-11-18T15:45:41Z</time>
      </trkpt>
      <trkpt lat="42.86032" lon="0.26225">
        <ele>1651.9</ele>
        <time>2021-11-18T15:45:43Z</time>
      </trkpt>
      <trkpt lat="42.86029" lon="0.26228">
        <ele>1651.3</ele>
        <time>2021-11-18T15:45:47Z</time>
      </trkpt>
      <trkpt lat="42.86024" lon="0.26234">
        <ele>1650.4</ele>
        <time>2021-11-18T15:45:53Z</time>
      </trkpt>
      <trkpt lat="42.86018" lon="0.26237">
        <ele>1648.9</ele>
        <time>2021-11-18T15:45:59Z</time>
      </trkpt>
      <trkpt lat="42.86014" lon="0.2624">
        <ele>1648.1</ele>
        <time>2021-11-18T15:46:03Z</time>
      </trkpt>
      <trkpt lat="42.86013" lon="0.26245">
        <ele>1648.3</ele>
        <time>2021-11-18T15:46:08Z</time>
      </trkpt>
      <trkpt lat="42.86013" lon="0.26248">
        <ele>1648.7</ele>
        <time>2021-11-18T15:46:10Z</time>
      </trkpt>
      <trkpt lat="42.86009" lon="0.26255">
        <ele>1648.2</ele>
        <time>2021-11-18T15:46:17Z</time>
      </trkpt>
      <trkpt lat="42.86002" lon="0.26263">
        <ele>1646.7</ele>
        <time>2021-11-18T15:46:25Z</time>
      </trkpt>
      <trkpt lat="42.85995" lon="0.26268">
        <ele>1644.3</ele>
        <time>2021-11-18T15:46:31Z</time>
      </trkpt>
      <trkpt lat="42.85994" lon="0.26271">
        <ele>1644.1</ele>
        <time>2021-11-18T15:46:34Z</time>
      </trkpt>
      <trkpt lat="42.85971" lon="0.26287">
        <ele>1635.2</ele>
        <time>2021-11-18T15:46:57Z</time>
      </trkpt>
      <trkpt lat="42.85969" lon="0.26287">
        <ele>1634.3</ele>
        <time>2021-11-18T15:46:59Z</time>
      </trkpt>
      <trkpt lat="42.85956" lon="0.26285">
        <ele>1628.4</ele>
        <time>2021-11-18T15:47:13Z</time>
      </trkpt>
      <trkpt lat="42.85948" lon="0.26289">
        <ele>1625.2</ele>
        <time>2021-11-18T15:47:20Z</time>
      </trkpt>
      <trkpt lat="42.85947" lon="0.26292">
        <ele>1625</ele>
        <time>2021-11-18T15:47:22Z</time>
      </trkpt>
      <trkpt lat="42.85919" lon="0.26306">
        <ele>1613.7</ele>
        <time>2021-11-18T15:47:52Z</time>
      </trkpt>
      <trkpt lat="42.85917" lon="0.26307">
        <ele>1612.9</ele>
        <time>2021-11-18T15:47:54Z</time>
      </trkpt>
      <trkpt lat="42.85895" lon="0.26315">
        <ele>1601.4</ele>
        <time>2021-11-18T15:48:21Z</time>
      </trkpt>
      <trkpt lat="42.85878" lon="0.26332">
        <ele>1593.1</ele>
        <time>2021-11-18T15:48:47Z</time>
      </trkpt>
      <trkpt lat="42.85874" lon="0.26339">
        <ele>1590.9</ele>
        <time>2021-11-18T15:48:56Z</time>
      </trkpt>
      <trkpt lat="42.85867" lon="0.26346">
        <ele>1586.8</ele>
        <time>2021-11-18T15:49:09Z</time>
      </trkpt>
      <trkpt lat="42.85861" lon="0.26348">
        <ele>1583.4</ele>
        <time>2021-11-18T15:49:24Z</time>
      </trkpt>
      <trkpt lat="42.85858" lon="0.26353">
        <ele>1581.6</ele>
        <time>2021-11-18T15:49:32Z</time>
      </trkpt>
      <trkpt lat="42.85855" lon="0.26355">
        <ele>1579.8</ele>
        <time>2021-11-18T15:49:38Z</time>
      </trkpt>
      <trkpt lat="42.8585" lon="0.26355">
        <ele>1576.9</ele>
        <time>2021-11-18T15:49:44Z</time>
      </trkpt>
      <trkpt lat="42.85846" lon="0.26359">
        <ele>1574.5</ele>
        <time>2021-11-18T15:49:52Z</time>
      </trkpt>
      <trkpt lat="42.85843" lon="0.26363">
        <ele>1572.6</ele>
        <time>2021-11-18T15:49:59Z</time>
      </trkpt>
      <trkpt lat="42.85839" lon="0.26366">
        <ele>1570.2</ele>
        <time>2021-11-18T15:50:07Z</time>
      </trkpt>
      <trkpt lat="42.85837" lon="0.2637">
        <ele>1568.8</ele>
        <time>2021-11-18T15:50:11Z</time>
      </trkpt>
      <trkpt lat="42.85837" lon="0.26374">
        <ele>1568.7</ele>
        <time>2021-11-18T15:50:14Z</time>
      </trkpt>
      <trkpt lat="42.85835" lon="0.26377">
        <ele>1567.4</ele>
        <time>2021-11-18T15:50:17Z</time>
      </trkpt>
      <trkpt lat="42.85831" lon="0.2639">
        <ele>1564.8</ele>
        <time>2021-11-18T15:50:28Z</time>
      </trkpt>
      <trkpt lat="42.85828" lon="0.26391">
        <ele>1563.3</ele>
        <time>2021-11-18T15:50:32Z</time>
      </trkpt>
      <trkpt lat="42.85825" lon="0.26391">
        <ele>1561.8</ele>
        <time>2021-11-18T15:50:35Z</time>
      </trkpt>
      <trkpt lat="42.85824" lon="0.26394">
        <ele>1561.2</ele>
        <time>2021-11-18T15:50:42Z</time>
      </trkpt>
      <trkpt lat="42.85821" lon="0.26396">
        <ele>1559.6</ele>
        <time>2021-11-18T15:50:46Z</time>
      </trkpt>
      <trkpt lat="42.85818" lon="0.26401">
        <ele>1557.9</ele>
        <time>2021-11-18T15:50:52Z</time>
      </trkpt>
      <trkpt lat="42.85817" lon="0.26408">
        <ele>1557.1</ele>
        <time>2021-11-18T15:50:59Z</time>
      </trkpt>
      <trkpt lat="42.85814" lon="0.26413">
        <ele>1555.4</ele>
        <time>2021-11-18T15:51:08Z</time>
      </trkpt>
      <trkpt lat="42.85813" lon="0.26416">
        <ele>1554.8</ele>
        <time>2021-11-18T15:51:11Z</time>
      </trkpt>
      <trkpt lat="42.85811" lon="0.26423">
        <ele>1553.6</ele>
        <time>2021-11-18T15:51:17Z</time>
      </trkpt>
      <trkpt lat="42.85811" lon="0.26427">
        <ele>1553.5</ele>
        <time>2021-11-18T15:51:20Z</time>
      </trkpt>
      <trkpt lat="42.85809" lon="0.26432">
        <ele>1552.4</ele>
        <time>2021-11-18T15:51:25Z</time>
      </trkpt>
      <trkpt lat="42.85809" lon="0.26435">
        <ele>1552.3</ele>
        <time>2021-11-18T15:51:28Z</time>
      </trkpt>
      <trkpt lat="42.85808" lon="0.26439">
        <ele>1551.7</ele>
        <time>2021-11-18T15:51:31Z</time>
      </trkpt>
      <trkpt lat="42.85805" lon="0.26456">
        <ele>1549.8</ele>
        <time>2021-11-18T15:51:48Z</time>
      </trkpt>
      <trkpt lat="42.85804" lon="0.2646">
        <ele>1549.2</ele>
        <time>2021-11-18T15:51:51Z</time>
      </trkpt>
      <trkpt lat="42.85798" lon="0.26474">
        <ele>1545.8</ele>
        <time>2021-11-18T15:52:06Z</time>
      </trkpt>
      <trkpt lat="42.85798" lon="0.26477">
        <ele>1545.7</ele>
        <time>2021-11-18T15:52:09Z</time>
      </trkpt>
      <trkpt lat="42.85792" lon="0.2649">
        <ele>1542.4</ele>
        <time>2021-11-18T15:52:22Z</time>
      </trkpt>
      <trkpt lat="42.85791" lon="0.26497">
        <ele>1541.7</ele>
        <time>2021-11-18T15:52:30Z</time>
      </trkpt>
      <trkpt lat="42.85787" lon="0.26507">
        <ele>1540.3</ele>
        <time>2021-11-18T15:52:39Z</time>
      </trkpt>
      <trkpt lat="42.85787" lon="0.2651">
        <ele>1540.5</ele>
        <time>2021-11-18T15:52:43Z</time>
      </trkpt>
      <trkpt lat="42.85788" lon="0.26513">
        <ele>1541.3</ele>
        <time>2021-11-18T15:52:46Z</time>
      </trkpt>
      <trkpt lat="42.85782" lon="0.26525">
        <ele>1539.4</ele>
        <time>2021-11-18T15:53:00Z</time>
      </trkpt>
      <trkpt lat="42.85778" lon="0.26529">
        <ele>1537.9</ele>
        <time>2021-11-18T15:53:06Z</time>
      </trkpt>
      <trkpt lat="42.85775" lon="0.26535">
        <ele>1537</ele>
        <time>2021-11-18T15:53:12Z</time>
      </trkpt>
      <trkpt lat="42.85771" lon="0.26539">
        <ele>1535.6</ele>
        <time>2021-11-18T15:53:18Z</time>
      </trkpt>
      <trkpt lat="42.85772" lon="0.26543">
        <ele>1536.4</ele>
        <time>2021-11-18T15:53:22Z</time>
      </trkpt>
      <trkpt lat="42.85769" lon="0.26549">
        <ele>1535.7</ele>
        <time>2021-11-18T15:53:28Z</time>
      </trkpt>
      <trkpt lat="42.85767" lon="0.26558">
        <ele>1535.7</ele>
        <time>2021-11-18T15:53:37Z</time>
      </trkpt>
      <trkpt lat="42.85768" lon="0.26562">
        <ele>1536.5</ele>
        <time>2021-11-18T15:53:41Z</time>
      </trkpt>
      <trkpt lat="42.85767" lon="0.26565">
        <ele>1536.4</ele>
        <time>2021-11-18T15:53:45Z</time>
      </trkpt>
      <trkpt lat="42.8576" lon="0.26587">
        <ele>1535.2</ele>
        <time>2021-11-18T15:54:05Z</time>
      </trkpt>
      <trkpt lat="42.85758" lon="0.2659">
        <ele>1534.2</ele>
        <time>2021-11-18T15:54:08Z</time>
      </trkpt>
      <trkpt lat="42.85756" lon="0.26598">
        <ele>1533</ele>
        <time>2021-11-18T15:54:14Z</time>
      </trkpt>
      <trkpt lat="42.85754" lon="0.26601">
        <ele>1532.1</ele>
        <time>2021-11-18T15:54:17Z</time>
      </trkpt>
      <trkpt lat="42.85754" lon="0.26604">
        <ele>1532</ele>
        <time>2021-11-18T15:54:19Z</time>
      </trkpt>
      <trkpt lat="42.8575" lon="0.26609">
        <ele>1530.1</ele>
        <time>2021-11-18T15:54:24Z</time>
      </trkpt>
      <trkpt lat="42.85749" lon="0.26619">
        <ele>1529.4</ele>
        <time>2021-11-18T15:54:31Z</time>
      </trkpt>
      <trkpt lat="42.8575" lon="0.26626">
        <ele>1529.5</ele>
        <time>2021-11-18T15:54:35Z</time>
      </trkpt>
      <trkpt lat="42.85748" lon="0.26629">
        <ele>1528.7</ele>
        <time>2021-11-18T15:54:38Z</time>
      </trkpt>
      <trkpt lat="42.85749" lon="0.26632">
        <ele>1528.9</ele>
        <time>2021-11-18T15:54:40Z</time>
      </trkpt>
      <trkpt lat="42.85746" lon="0.26641">
        <ele>1527.6</ele>
        <time>2021-11-18T15:54:46Z</time>
      </trkpt>
      <trkpt lat="42.85744" lon="0.26644">
        <ele>1526.9</ele>
        <time>2021-11-18T15:54:49Z</time>
      </trkpt>
      <trkpt lat="42.85734" lon="0.26656">
        <ele>1523.2</ele>
        <time>2021-11-18T15:55:02Z</time>
      </trkpt>
      <trkpt lat="42.85733" lon="0.2666">
        <ele>1522.7</ele>
        <time>2021-11-18T15:55:06Z</time>
      </trkpt>
      <trkpt lat="42.85732" lon="0.26663">
        <ele>1522.3</ele>
        <time>2021-11-18T15:55:12Z</time>
      </trkpt>
      <trkpt lat="42.8573" lon="0.26668">
        <ele>1521.4</ele>
        <time>2021-11-18T15:55:29Z</time>
      </trkpt>
      <trkpt lat="42.85726" lon="0.26671">
        <ele>1519.9</ele>
        <time>2021-11-18T15:55:35Z</time>
      </trkpt>
      <trkpt lat="42.85728" lon="0.26678">
        <ele>1520.2</ele>
        <time>2021-11-18T15:55:54Z</time>
      </trkpt>
      <trkpt lat="42.85731" lon="0.26692">
        <ele>1520.3</ele>
        <time>2021-11-18T15:56:15Z</time>
      </trkpt>
      <trkpt lat="42.85725" lon="0.26677">
        <ele>1519.2</ele>
        <time>2021-11-18T15:56:22Z</time>
      </trkpt>
      <trkpt lat="42.85728" lon="0.26682">
        <ele>1519.9</ele>
        <time>2021-11-18T15:56:40Z</time>
      </trkpt>
      <trkpt lat="42.85727" lon="0.2669">
        <ele>1519.1</ele>
        <time>2021-11-18T15:56:47Z</time>
      </trkpt>
      <trkpt lat="42.85721" lon="0.26702">
        <ele>1516.3</ele>
        <time>2021-11-18T15:57:26Z</time>
      </trkpt>
      <trkpt lat="42.85715" lon="0.26705">
        <ele>1514.2</ele>
        <time>2021-11-18T15:57:32Z</time>
      </trkpt>
      <trkpt lat="42.8569" lon="0.26727">
        <ele>1504.4</ele>
        <time>2021-11-18T15:58:03Z</time>
      </trkpt>
      <trkpt lat="42.85689" lon="0.2673">
        <ele>1503.9</ele>
        <time>2021-11-18T15:58:06Z</time>
      </trkpt>
      <trkpt lat="42.85683" lon="0.26766">
        <ele>1500.4</ele>
        <time>2021-11-18T15:58:46Z</time>
      </trkpt>
      <trkpt lat="42.85676" lon="0.26782">
        <ele>1497.8</ele>
        <time>2021-11-18T15:59:02Z</time>
      </trkpt>
      <trkpt lat="42.85667" lon="0.26795">
        <ele>1494.6</ele>
        <time>2021-11-18T15:59:17Z</time>
      </trkpt>
      <trkpt lat="42.85664" lon="0.26802">
        <ele>1493.7</ele>
        <time>2021-11-18T15:59:23Z</time>
      </trkpt>
      <trkpt lat="42.85655" lon="0.26814">
        <ele>1491.1</ele>
        <time>2021-11-18T15:59:40Z</time>
      </trkpt>
      <trkpt lat="42.85648" lon="0.26828">
        <ele>1489</ele>
        <time>2021-11-18T15:59:56Z</time>
      </trkpt>
      <trkpt lat="42.85641" lon="0.26835">
        <ele>1486.8</ele>
        <time>2021-11-18T16:00:07Z</time>
      </trkpt>
      <trkpt lat="42.85632" lon="0.26844">
        <ele>1483.8</ele>
        <time>2021-11-18T16:00:25Z</time>
      </trkpt>
      <trkpt lat="42.85622" lon="0.2685">
        <ele>1480.5</ele>
        <time>2021-11-18T16:00:42Z</time>
      </trkpt>
      <trkpt lat="42.85614" lon="0.26862">
        <ele>1477.3</ele>
        <time>2021-11-18T16:01:00Z</time>
      </trkpt>
      <trkpt lat="42.85604" lon="0.26876">
        <ele>1473.2</ele>
        <time>2021-11-18T16:01:16Z</time>
      </trkpt>
      <trkpt lat="42.856" lon="0.26892">
        <ele>1470.7</ele>
        <time>2021-11-18T16:01:31Z</time>
      </trkpt>
      <trkpt lat="42.85595" lon="0.26902">
        <ele>1468.2</ele>
        <time>2021-11-18T16:01:44Z</time>
      </trkpt>
      <trkpt lat="42.85588" lon="0.2692">
        <ele>1464.4</ele>
        <time>2021-11-18T16:02:00Z</time>
      </trkpt>
      <trkpt lat="42.85573" lon="0.26939">
        <ele>1458.8</ele>
        <time>2021-11-18T16:02:16Z</time>
      </trkpt>
      <trkpt lat="42.85572" lon="0.26942">
        <ele>1458.3</ele>
        <time>2021-11-18T16:02:18Z</time>
      </trkpt>
      <trkpt lat="42.8556" lon="0.26954">
        <ele>1454</ele>
        <time>2021-11-18T16:02:33Z</time>
      </trkpt>
      <trkpt lat="42.85554" lon="0.26961">
        <ele>1451.7</ele>
        <time>2021-11-18T16:02:38Z</time>
      </trkpt>
      <trkpt lat="42.8555" lon="0.26971">
        <ele>1449.9</ele>
        <time>2021-11-18T16:02:46Z</time>
      </trkpt>
      <trkpt lat="42.85537" lon="0.26988">
        <ele>1444.7</ele>
        <time>2021-11-18T16:03:03Z</time>
      </trkpt>
      <trkpt lat="42.85532" lon="0.27">
        <ele>1442.4</ele>
        <time>2021-11-18T16:03:33Z</time>
      </trkpt>
      <trkpt lat="42.85513" lon="0.27046">
        <ele>1436.1</ele>
        <time>2021-11-18T16:04:08Z</time>
      </trkpt>
      <trkpt lat="42.85503" lon="0.27056">
        <ele>1431.9</ele>
        <time>2021-11-18T16:04:20Z</time>
      </trkpt>
      <trkpt lat="42.85497" lon="0.27064">
        <ele>1429.6</ele>
        <time>2021-11-18T16:04:28Z</time>
      </trkpt>
      <trkpt lat="42.85475" lon="0.27094">
        <ele>1423.9</ele>
        <time>2021-11-18T16:05:00Z</time>
      </trkpt>
      <trkpt lat="42.85458" lon="0.2711">
        <ele>1420.6</ele>
        <time>2021-11-18T16:05:16Z</time>
      </trkpt>
      <trkpt lat="42.85456" lon="0.27114">
        <ele>1420.4</ele>
        <time>2021-11-18T16:05:18Z</time>
      </trkpt>
      <trkpt lat="42.85434" lon="0.2714">
        <ele>1415.8</ele>
        <time>2021-11-18T16:05:45Z</time>
      </trkpt>
      <trkpt lat="42.85434" lon="0.27145">
        <ele>1416.3</ele>
        <time>2021-11-18T16:05:47Z</time>
      </trkpt>
      <trkpt lat="42.85434" lon="0.2715">
        <ele>1416.8</ele>
        <time>2021-11-18T16:05:51Z</time>
      </trkpt>
      <trkpt lat="42.8543" lon="0.27167">
        <ele>1417</ele>
        <time>2021-11-18T16:06:04Z</time>
      </trkpt>
      <trkpt lat="42.85416" lon="0.2719">
        <ele>1414.1</ele>
        <time>2021-11-18T16:06:22Z</time>
      </trkpt>
      <trkpt lat="42.85398" lon="0.27215">
        <ele>1411.3</ele>
        <time>2021-11-18T16:06:44Z</time>
      </trkpt>
      <trkpt lat="42.85383" lon="0.27246">
        <ele>1408.8</ele>
        <time>2021-11-18T16:07:10Z</time>
      </trkpt>
      <trkpt lat="42.85359" lon="0.27269">
        <ele>1405.2</ele>
        <time>2021-11-18T16:07:37Z</time>
      </trkpt>
    </trkseg>
  </trk>
</gpx>